| time (UTC) | temp C | wind direction | speed KPH | gust KPH | rain 1hr cm | rain 24hr cm | rain mn cm | humidity % | barometer mb |
| 20260906064803 | 28 | 49 | 3.2 | 9.7 | 0.00 | 0.00 | 0.00 | 1 | 1013.4 |
| 20260906064704 | 28 | 50 | 3.2 | 9.7 | 0.00 | 0.00 | 0.00 | 1 | 1013.4 |
| 20260906064604 | 28 | 50 | 4.8 | 9.7 | 0.00 | 0.00 | 0.00 | 1 | 1013.4 |
| 20260906064504 | 28 | 50 | 4.8 | 9.7 | 0.00 | 0.00 | 0.00 | 1 | 1013.4 |
| 20260906064404 | 28 | 49 | 4.8 | 9.7 | 0.00 | 0.00 | 0.00 | 1 | 1013.5 |
| 20260906064303 | 28 | 49 | 4.8 | 9.7 | 0.00 | 0.00 | 0.00 | 1 | 1013.5 |
| 20260906064224 | 28 | 49 | 4.8 | 9.7 | 0.00 | 0.00 | 0.00 | 1 | 1013.5 |
| 20260906064103 | 28 | 47 | 4.8 | 9.7 | 0.00 | 0.00 | 0.00 | 1 | 1013.5 |
| 20260906064025 | 28 | 46 | 4.8 | 9.7 | 0.00 | 0.00 | 0.00 | 1 | 1013.5 |
| 20260906063903 | 28 | 45 | 4.8 | 9.7 | 0.00 | 0.00 | 0.00 | 1 | 1013.5 |
| 20260906063804 | 28 | 43 | 4.8 | 9.7 | 0.00 | 0.00 | 0.00 | 1 | 1013.5 |
| 20260906063703 | 28 | 43 | 4.8 | 9.7 | 0.00 | 0.00 | 0.00 | 1 | 1013.5 |
| 20260906063603 | 28 | 43 | 4.8 | 9.7 | 0.00 | 0.00 | 0.00 | 1 | 1013.5 |
| 20260906063503 | 28 | 42 | 4.8 | 9.7 | 0.00 | 0.00 | 0.00 | 1 | 1013.6 |
| 20260906063404 | 28 | 41 | 4.8 | 9.7 | 0.00 | 0.00 | 0.00 | 1 | 1013.5 |
| 20260906063303 | 28 | 41 | 4.8 | 9.7 | 0.00 | 0.00 | 0.00 | 1 | 1013.5 |
| 20260906063203 | 28 | 41 | 4.8 | 9.7 | 0.00 | 0.00 | 0.00 | 1 | 1013.6 |
| 20260906063124 | 28 | 42 | 4.8 | 11.3 | 0.00 | 0.00 | 0.00 | 1 | 1013.5 |
| 20260906063024 | 28 | 44 | 4.8 | 11.3 | 0.00 | 0.00 | 0.00 | 1 | 1013.6 |
| 20260906062903 | 28 | 45 | 4.8 | 11.3 | 0.00 | 0.00 | 0.00 | 1 | 1013.6 |
| 20260906062803 | 28 | 45 | 4.8 | 12.9 | 0.00 | 0.00 | 0.00 | 1 | 1013.5 |
| 20260906062703 | 28 | 45 | 4.8 | 12.9 | 0.00 | 0.00 | 0.00 | 1 | 1013.6 |
| 20260906062624 | 28 | 45 | 4.8 | 12.9 | 0.00 | 0.00 | 0.00 | 1 | 1013.6 |
| 20260906062504 | 28 | 45 | 4.8 | 12.9 | 0.00 | 0.00 | 0.00 | 1 | 1013.6 |
| 20260906062424 | 28 | 45 | 4.8 | 12.9 | 0.00 | 0.00 | 0.00 | 1 | 1013.6 |
| 20260906062306 | 28 | 44 | 4.8 | 12.9 | 0.00 | 0.00 | 0.00 | 1 | 1013.6 |
| 20260906062203 | 28 | 44 | 4.8 | 12.9 | 0.00 | 0.00 | 0.00 | 1 | 1013.6 |
| 20260906062104 | 28 | 43 | 4.8 | 12.9 | 0.00 | 0.00 | 0.00 | 1 | 1013.6 |
| 20260906062004 | 28 | 41 | 4.8 | 12.9 | 0.00 | 0.00 | 0.00 | 1 | 1013.7 |
| 20260906061903 | 28 | 40 | 4.8 | 12.9 | 0.00 | 0.00 | 0.00 | 1 | 1013.6 |
| 20260906061804 | 28 | 38 | 4.8 | 9.7 | 0.00 | 0.00 | 0.00 | 1 | 1013.7 |
| 20260906061703 | 28 | 38 | 4.8 | 9.7 | 0.00 | 0.00 | 0.00 | 1 | 1013.7 |
| 20260906061604 | 28 | 38 | 4.8 | 9.7 | 0.00 | 0.00 | 0.00 | 1 | 1013.7 |
| 20260906061504 | 28 | 37 | 4.8 | 9.7 | 0.00 | 0.00 | 0.00 | 1 | 1013.7 |
| 20260906061404 | 28 | 38 | 4.8 | 9.7 | 0.00 | 0.00 | 0.00 | 1 | 1013.8 |
| 20260906061304 | 28 | 39 | 4.8 | 9.7 | 0.00 | 0.00 | 0.00 | 1 | 1013.8 |
| 20260906061203 | 28 | 40 | 4.8 | 8.0 | 0.00 | 0.00 | 0.00 | 1 | 1013.8 |
| 20260906061103 | 28 | 41 | 4.8 | 8.0 | 0.00 | 0.00 | 0.00 | 1 | 1013.8 |
| 20260906061004 | 28 | 42 | 4.8 | 8.0 | 0.00 | 0.00 | 0.00 | 1 | 1013.8 |
| 20260906060903 | 28 | 44 | 4.8 | 8.0 | 0.00 | 0.00 | 0.00 | 1 | 1013.8 |
| 20260906060803 | 28 | 38 | 4.8 | 11.3 | 0.00 | 0.00 | 0.00 | 1 | 1013.8 |
| 20260906060703 | 28 | 38 | 4.8 | 11.3 | 0.00 | 0.00 | 0.00 | 1 | 1013.8 |
| 20260906060603 | 28 | 38 | 4.8 | 11.3 | 0.00 | 0.00 | 0.00 | 1 | 1013.8 |
| 20260906060503 | 28 | 38 | 4.8 | 11.3 | 0.00 | 0.00 | 0.00 | 1 | 1013.8 |
| 20260906060404 | 28 | 36 | 4.8 | 11.3 | 0.00 | 0.00 | 0.00 | 1 | 1013.8 |
| 20260906060304 | 28 | 35 | 4.8 | 11.3 | 0.00 | 0.00 | 0.00 | 1 | 1013.8 |
| 20260906060204 | 28 | 34 | 4.8 | 11.3 | 0.00 | 0.00 | 0.00 | 1 | 1013.8 |
| 20260906060104 | 28 | 33 | 4.8 | 11.3 | 0.00 | 0.00 | 0.00 | 1 | 1013.8 |
| 20260906060003 | 28 | 32 | 4.8 | 11.3 | 0.00 | 0.00 | 0.00 | 1 | 1013.8 |
| 20260906055924 | 28 | 31 | 4.8 | 11.3 | 0.00 | 0.00 | 0.00 | 1 | 1013.8 |
| 20260906055824 | 28 | 34 | 4.8 | 11.3 | 0.00 | 0.00 | 0.00 | 1 | 1013.7 |
| 20260906055703 | 28 | 36 | 4.8 | 9.7 | 0.00 | 0.00 | 0.00 | 1 | 1013.7 |
| 20260906055625 | 28 | 36 | 4.8 | 9.7 | 0.00 | 0.00 | 0.00 | 1 | 1013.8 |
| 20260906055525 | 28 | 35 | 3.2 | 9.7 | 0.00 | 0.00 | 0.00 | 1 | 1013.8 |
| 20260906055424 | 28 | 34 | 3.2 | 9.7 | 0.00 | 0.00 | 0.00 | 1 | 1013.7 |
| 20260906055306 | 28 | 32 | 3.2 | 9.7 | 0.00 | 0.00 | 0.00 | 1 | 1013.8 |
| 20260906055224 | 28 | 31 | 3.2 | 9.7 | 0.00 | 0.00 | 0.00 | 1 | 1013.7 |
| 20260906055104 | 28 | 30 | 3.2 | 9.7 | 0.00 | 0.00 | 0.00 | 1 | 1013.7 |
| 20260906055003 | 28 | 29 | 3.2 | 9.7 | 0.00 | 0.00 | 0.00 | 1 | 1013.7 |
| 20260906054903 | 28 | 27 | 3.2 | 8.0 | 0.00 | 0.00 | 0.00 | 1 | 1013.7 |
| 20260906054803 | 28 | 25 | 3.2 | 6.4 | 0.00 | 0.00 | 0.00 | 1 | 1013.6 |
| 20260906054703 | 28 | 24 | 3.2 | 9.7 | 0.00 | 0.00 | 0.00 | 1 | 1013.6 |
| 20260906054604 | 28 | 24 | 3.2 | 9.7 | 0.00 | 0.00 | 0.00 | 1 | 1013.6 |
| 20260906054504 | 28 | 23 | 3.2 | 9.7 | 0.00 | 0.00 | 0.00 | 1 | 1013.6 |
| 20260906054403 | 28 | 22 | 3.2 | 9.7 | 0.00 | 0.00 | 0.00 | 1 | 1013.6 |
| 20260906054303 | 28 | 22 | 3.2 | 9.7 | 0.00 | 0.00 | 0.00 | 1 | 1013.6 |
| 20260906054204 | 28 | 21 | 3.2 | 9.7 | 0.00 | 0.00 | 0.00 | 1 | 1013.5 |
| 20260906054103 | 28 | 21 | 3.2 | 9.7 | 0.00 | 0.00 | 0.00 | 1 | 1013.5 |
| 20260906054003 | 28 | 21 | 3.2 | 9.7 | 0.00 | 0.00 | 0.00 | 1 | 1013.5 |
| 20260906053903 | 28 | 21 | 3.2 | 9.7 | 0.00 | 0.00 | 0.00 | 1 | 1013.5 |
| 20260906053803 | 28 | 20 | 3.2 | 9.7 | 0.00 | 0.00 | 0.00 | 1 | 1013.4 |
| 20260906053704 | 28 | 21 | 3.2 | 8.0 | 0.00 | 0.00 | 0.00 | 1 | 1013.5 |
| 20260906053604 | 28 | 21 | 3.2 | 8.0 | 0.00 | 0.00 | 0.00 | 1 | 1013.5 |
| 20260906053525 | 28 | 21 | 3.2 | 8.0 | 0.00 | 0.00 | 0.00 | 1 | 1013.5 |
| 20260906053424 | 28 | 21 | 3.2 | 8.0 | 0.00 | 0.00 | 0.00 | 1 | 1013.5 |
| 20260906053303 | 28 | 21 | 3.2 | 8.0 | 0.00 | 0.00 | 0.00 | 1 | 1013.5 |
| 20260906053203 | 28 | 21 | 3.2 | 9.7 | 0.00 | 0.00 | 0.00 | 1 | 1013.5 |
| 20260906053103 | 28 | 21 | 3.2 | 9.7 | 0.00 | 0.00 | 0.00 | 1 | 1013.5 |
| 20260906053003 | 28 | 21 | 3.2 | 9.7 | 0.00 | 0.00 | 0.00 | 1 | 1013.6 |
| 20260906052903 | 28 | 21 | 3.2 | 9.7 | 0.00 | 0.00 | 0.00 | 1 | 1013.6 |
| 20260906052803 | 28 | 21 | 3.2 | 9.7 | 0.00 | 0.00 | 0.00 | 1 | 1013.6 |
| 20260906052703 | 28 | 22 | 3.2 | 9.7 | 0.00 | 0.00 | 0.00 | 1 | 1013.6 |
| 20260906052604 | 28 | 22 | 3.2 | 9.7 | 0.00 | 0.00 | 0.00 | 1 | 1013.6 |
| 20260906052503 | 28 | 22 | 3.2 | 9.7 | 0.00 | 0.00 | 0.00 | 1 | 1013.6 |
| 20260906052404 | 28 | 23 | 3.2 | 9.7 | 0.00 | 0.00 | 0.00 | 1 | 1013.6 |
| 20260906052305 | 28 | 23 | 3.2 | 9.7 | 0.00 | 0.00 | 0.00 | 1 | 1013.6 |
| 20260906052204 | 28 | 23 | 3.2 | 9.7 | 0.00 | 0.00 | 0.00 | 1 | 1013.5 |
| 20260906052103 | 28 | 24 | 3.2 | 9.7 | 0.00 | 0.00 | 0.00 | 1 | 1013.6 |
| 20260906052003 | 28 | 24 | 3.2 | 9.7 | 0.00 | 0.00 | 0.00 | 1 | 1013.6 |
| 20260906051903 | 28 | 24 | 3.2 | 9.7 | 0.00 | 0.00 | 0.00 | 1 | 1013.6 |
| 20260906051803 | 28 | 24 | 3.2 | 9.7 | 0.00 | 0.00 | 0.00 | 1 | 1013.6 |
| 20260906051724 | 28 | 24 | 3.2 | 9.7 | 0.00 | 0.00 | 0.00 | 1 | 1013.6 |
| 20260906051603 | 28 | 24 | 3.2 | 9.7 | 0.00 | 0.00 | 0.00 | 1 | 1013.6 |
| 20260906051503 | 28 | 24 | 3.2 | 9.7 | 0.00 | 0.00 | 0.00 | 1 | 1013.6 |
| 20260906051403 | 28 | 25 | 3.2 | 9.7 | 0.00 | 0.00 | 0.00 | 1 | 1013.6 |
| 20260906051304 | 28 | 25 | 3.2 | 9.7 | 0.00 | 0.00 | 0.00 | 1 | 1013.6 |
| 20260906051204 | 28 | 25 | 3.2 | 8.0 | 0.00 | 0.00 | 0.00 | 1 | 1013.6 |
| 20260906051103 | 28 | 25 | 3.2 | 8.0 | 0.00 | 0.00 | 0.00 | 1 | 1013.6 |
| 20260906051003 | 28 | 25 | 3.2 | 8.0 | 0.00 | 0.00 | 0.00 | 1 | 1013.6 |
| 20260906050924 | 28 | 25 | 3.2 | 8.0 | 0.00 | 0.00 | 0.00 | 1 | 1013.7 |
| 20260906050803 | 28 | 24 | 3.2 | 8.0 | 0.00 | 0.00 | 0.00 | 1 | 1013.8 |
| 20260906050724 | 28 | 24 | 3.2 | 8.0 | 0.00 | 0.00 | 0.00 | 1 | 1013.8 |
| 20260906050603 | 28 | 18 | 3.2 | 9.7 | 0.00 | 0.00 | 0.00 | 1 | 1013.8 |
| 20260906050503 | 28 | 12 | 3.2 | 9.7 | 0.00 | 0.00 | 0.00 | 1 | 1013.8 |
| 20260906050403 | 28 | 357 | 3.2 | 9.7 | 0.00 | 0.00 | 0.00 | 1 | 1013.8 |
| 20260906050324 | 28 | 348 | 3.2 | 9.7 | 0.00 | 0.00 | 0.00 | 1 | 1013.8 |
| 20260906050203 | 28 | 338 | 3.2 | 9.7 | 0.00 | 0.00 | 0.00 | 1 | 1013.8 |
| 20260906050004 | 28 | 311 | 3.2 | 9.7 | 0.00 | 0.00 | 0.00 | 1 | 1013.7 |
| 20260906045924 | 28 | 304 | 3.2 | 9.7 | 0.00 | 0.00 | 0.00 | 1 | 1013.7 |
| 20260906045803 | 28 | 280 | 3.2 | 9.7 | 0.00 | 0.00 | 0.00 | 1 | 1013.6 |
| 20260906045704 | 28 | 269 | 3.2 | 8.0 | 0.00 | 0.00 | 0.00 | 1 | 1013.7 |
| 20260906045603 | 28 | 267 | 3.2 | 8.0 | 0.00 | 0.00 | 0.00 | 1 | 1013.6 |
| 20260906045504 | 28 | 266 | 3.2 | 8.0 | 0.00 | 0.00 | 0.00 | 1 | 1013.7 |
| 20260906045403 | 28 | 264 | 3.2 | 8.0 | 0.00 | 0.00 | 0.00 | 1 | 1013.7 |
| 20260906045306 | 28 | 263 | 3.2 | 8.0 | 0.00 | 0.00 | 0.00 | 1 | 1013.7 |
| 20260906045203 | 28 | 262 | 3.2 | 6.4 | 0.00 | 0.00 | 0.00 | 1 | 1013.7 |
| 20260906045104 | 28 | 262 | 3.2 | 6.4 | 0.00 | 0.00 | 0.00 | 1 | 1013.7 |
| 20260906045003 | 28 | 261 | 3.2 | 8.0 | 0.00 | 0.00 | 0.00 | 1 | 1013.6 |
| 20260906044904 | 28 | 261 | 3.2 | 8.0 | 0.00 | 0.00 | 0.00 | 1 | 1013.6 |
| 20260906044803 | 28 | 261 | 3.2 | 8.0 | 0.00 | 0.00 | 0.00 | 1 | 1013.6 |
| 20260906044703 | 28 | 261 | 3.2 | 8.0 | 0.00 | 0.00 | 0.00 | 1 | 1013.6 |
| 20260906044603 | 28 | 260 | 3.2 | 8.0 | 0.00 | 0.00 | 0.00 | 1 | 1013.7 |
| 20260906044524 | 28 | 260 | 3.2 | 8.0 | 0.00 | 0.00 | 0.00 | 1 | 1013.7 |
| 20260906044403 | 28 | 260 | 3.2 | 8.0 | 0.00 | 0.00 | 0.00 | 1 | 1013.7 |
| 20260906044303 | 28 | 260 | 3.2 | 8.0 | 0.00 | 0.00 | 0.00 | 1 | 1013.8 |
| 20260906044203 | 28 | 259 | 3.2 | 8.0 | 0.00 | 0.00 | 0.00 | 1 | 1013.8 |
| 20260906044124 | 28 | 259 | 3.2 | 8.0 | 0.00 | 0.00 | 0.00 | 1 | 1013.8 |
| 20260906044003 | 28 | 259 | 3.2 | 6.4 | 0.00 | 0.00 | 0.00 | 1 | 1013.8 |
| 20260906043924 | 28 | 258 | 3.2 | 6.4 | 0.00 | 0.00 | 0.00 | 1 | 1013.8 |
| 20260906043803 | 29 | 258 | 3.2 | 6.4 | 0.00 | 0.00 | 0.00 | 1 | 1013.8 |
| 20260906043703 | 29 | 258 | 3.2 | 6.4 | 0.00 | 0.00 | 0.00 | 1 | 1013.9 |
| 20260906043625 | 29 | 257 | 3.2 | 6.4 | 0.00 | 0.00 | 0.00 | 1 | 1013.9 |
| 20260906043525 | 29 | 257 | 3.2 | 6.4 | 0.00 | 0.00 | 0.00 | 1 | 1013.9 |
| 20260906043403 | 29 | 257 | 3.2 | 6.4 | 0.00 | 0.00 | 0.00 | 1 | 1013.9 |
| 20260906043303 | 29 | 256 | 3.2 | 6.4 | 0.00 | 0.00 | 0.00 | 1 | 1013.8 |
| 20260906043204 | 29 | 256 | 3.2 | 8.0 | 0.00 | 0.00 | 0.00 | 1 | 1013.8 |
| 20260906043124 | 29 | 256 | 3.2 | 8.0 | 0.00 | 0.00 | 0.00 | 1 | 1013.8 |
| 20260906043003 | 29 | 255 | 3.2 | 8.0 | 0.00 | 0.00 | 0.00 | 1 | 1013.8 |
| 20260906042903 | 29 | 255 | 3.2 | 8.0 | 0.00 | 0.00 | 0.00 | 1 | 1013.8 |
| 20260906042803 | 29 | 255 | 3.2 | 8.0 | 0.00 | 0.00 | 0.00 | 1 | 1013.8 |
| 20260906042703 | 29 | 256 | 3.2 | 8.0 | 0.00 | 0.00 | 0.00 | 1 | 1013.8 |
| 20260906042624 | 29 | 258 | 3.2 | 8.0 | 0.00 | 0.00 | 0.00 | 1 | 1013.8 |
| 20260906042504 | 29 | 264 | 3.2 | 8.0 | 0.00 | 0.00 | 0.00 | 1 | 1013.8 |
| 20260906042403 | 29 | 266 | 3.2 | 8.0 | 0.00 | 0.00 | 0.00 | 1 | 1013.8 |
| 20260906042306 | 29 | 269 | 4.8 | 9.7 | 0.00 | 0.00 | 0.00 | 1 | 1013.8 |
| 20260906042203 | 29 | 273 | 4.8 | 9.7 | 0.00 | 0.00 | 0.00 | 1 | 1013.7 |
| 20260906042104 | 29 | 275 | 4.8 | 9.7 | 0.00 | 0.00 | 0.00 | 1 | 1013.7 |
| 20260906042003 | 29 | 276 | 4.8 | 9.7 | 0.00 | 0.00 | 0.00 | 1 | 1013.7 |
| 20260906041925 | 29 | 278 | 4.8 | 9.7 | 0.00 | 0.00 | 0.00 | 1 | 1013.6 |
| 20260906041803 | 29 | 282 | 4.8 | 9.7 | 0.00 | 0.00 | 0.00 | 1 | 1013.7 |
| 20260906041704 | 29 | 283 | 4.8 | 9.7 | 0.00 | 0.00 | 0.00 | 1 | 1013.6 |
| 20260906041603 | 29 | 282 | 3.2 | 9.7 | 0.00 | 0.00 | 0.00 | 1 | 1013.6 |
| 20260906041503 | 29 | 284 | 4.8 | 9.7 | 0.00 | 0.00 | 0.00 | 1 | 1013.6 |
| 20260906041403 | 29 | 286 | 4.8 | 9.7 | 0.00 | 0.00 | 0.00 | 1 | 1013.6 |
| 20260906041303 | 29 | 288 | 4.8 | 9.7 | 0.00 | 0.00 | 0.00 | 1 | 1013.6 |
| 20260906041203 | 29 | 292 | 4.8 | 9.7 | 0.00 | 0.00 | 0.00 | 1 | 1013.6 |
| 20260906041103 | 29 | 296 | 3.2 | 9.7 | 0.00 | 0.00 | 0.00 | 1 | 1013.5 |
| 20260906041004 | 29 | 298 | 3.2 | 9.7 | 0.00 | 0.00 | 0.00 | 1 | 1013.5 |
| 20260906040904 | 29 | 300 | 3.2 | 9.7 | 0.00 | 0.00 | 0.00 | 1 | 1013.6 |
| 20260906040803 | 29 | 300 | 3.2 | 11.3 | 0.00 | 0.00 | 0.00 | 1 | 1013.6 |
| 20260906040703 | 29 | 301 | 4.8 | 11.3 | 0.00 | 0.00 | 0.00 | 1 | 1013.6 |
| 20260906040603 | 29 | 302 | 4.8 | 11.3 | 0.00 | 0.00 | 0.00 | 1 | 1013.6 |
| 20260906040504 | 29 | 310 | 4.8 | 11.3 | 0.00 | 0.00 | 0.00 | 1 | 1013.6 |
| 20260906040404 | 29 | 316 | 3.2 | 11.3 | 0.00 | 0.00 | 0.00 | 1 | 1013.6 |
| 20260906040325 | 29 | 321 | 3.2 | 11.3 | 0.00 | 0.00 | 0.00 | 1 | 1013.6 |
| 20260906040203 | 29 | 336 | 3.2 | 11.3 | 0.00 | 0.00 | 0.00 | 1 | 1013.6 |
| 20260906040124 | 29 | 342 | 3.2 | 11.3 | 0.00 | 0.00 | 0.00 | 1 | 1013.6 |
| 20260906040004 | 29 | 338 | 3.2 | 11.3 | 0.00 | 0.00 | 0.00 | 1 | 1013.5 |
| 20260906035925 | 29 | 336 | 4.8 | 11.3 | 0.00 | 0.00 | 0.00 | 1 | 1013.5 |
| 20260906035803 | 29 | 335 | 3.2 | 9.7 | 0.00 | 0.00 | 0.00 | 1 | 1013.6 |
| 20260906035703 | 29 | 336 | 3.2 | 9.7 | 0.00 | 0.00 | 0.00 | 1 | 1013.5 |
| 20260906035603 | 29 | 342 | 3.2 | 9.7 | 0.00 | 0.00 | 0.00 | 1 | 1013.5 |
| 20260906035503 | 29 | 328 | 3.2 | 9.7 | 0.00 | 0.00 | 0.00 | 1 | 1013.5 |
| 20260906035403 | 29 | 321 | 3.2 | 9.7 | 0.00 | 0.00 | 0.00 | 1 | 1013.5 |
| 20260906035324 | 29 | 313 | 3.2 | 9.7 | 0.00 | 0.00 | 0.00 | 1 | 1013.5 |
| 20260906035204 | 29 | 293 | 3.2 | 9.7 | 0.00 | 0.00 | 0.00 | 1 | 1013.5 |
| 20260906035103 | 29 | 285 | 3.2 | 9.7 | 0.00 | 0.00 | 0.00 | 1 | 1013.5 |
| 20260906035003 | 29 | 283 | 3.2 | 9.7 | 0.00 | 0.00 | 0.00 | 1 | 1013.5 |
| 20260906034903 | 29 | 280 | 3.2 | 9.7 | 0.00 | 0.00 | 0.00 | 1 | 1013.5 |
| 20260906034825 | 29 | 279 | 3.2 | 9.7 | 0.00 | 0.00 | 0.00 | 1 | 1013.5 |
| 20260906034703 | 29 | 271 | 3.2 | 9.7 | 0.00 | 0.00 | 0.00 | 1 | 1013.5 |
| 20260906034603 | 29 | 265 | 3.2 | 9.7 | 0.00 | 0.00 | 0.00 | 1 | 1013.5 |
| 20260906034503 | 29 | 258 | 3.2 | 9.7 | 0.00 | 0.00 | 0.00 | 1 | 1013.5 |
| 20260906034403 | 29 | 253 | 3.2 | 9.7 | 0.00 | 0.00 | 0.00 | 1 | 1013.5 |
| 20260906034303 | 29 | 250 | 3.2 | 8.0 | 0.00 | 0.00 | 0.00 | 1 | 1013.5 |
| 20260906034204 | 29 | 249 | 3.2 | 8.0 | 0.00 | 0.00 | 0.00 | 1 | 1013.5 |
| 20260906034103 | 29 | 248 | 3.2 | 8.0 | 0.00 | 0.00 | 0.00 | 1 | 1013.5 |
| 20260906034003 | 29 | 248 | 3.2 | 8.0 | 0.00 | 0.00 | 0.00 | 2 | 1013.5 |
| 20260906033903 | 29 | 247 | 3.2 | 8.0 | 0.00 | 0.00 | 0.00 | 2 | 1013.5 |
| 20260906033803 | 29 | 246 | 3.2 | 8.0 | 0.00 | 0.00 | 0.00 | 3 | 1013.5 |
| 20260906033724 | 29 | 245 | 3.2 | 8.0 | 0.00 | 0.00 | 0.00 | 4 | 1013.5 |
| 20260906033604 | 29 | 244 | 3.2 | 8.0 | 0.00 | 0.00 | 0.00 | 5 | 1013.6 |
| 20260906033503 | 29 | 244 | 3.2 | 8.0 | 0.00 | 0.00 | 0.00 | 5 | 1013.5 |
| 20260906033403 | 29 | 243 | 3.2 | 8.0 | 0.00 | 0.00 | 0.00 | 6 | 1013.6 |
| 20260906033303 | 29 | 243 | 3.2 | 8.0 | 0.00 | 0.00 | 0.00 | 6 | 1013.6 |
| 20260906033225 | 29 | 243 | 3.2 | 8.0 | 0.00 | 0.00 | 0.00 | 7 | 1013.5 |
| 20260906033103 | 29 | 243 | 3.2 | 8.0 | 0.00 | 0.00 | 0.00 | 8 | 1013.5 |
| 20260906033003 | 29 | 244 | 3.2 | 8.0 | 0.00 | 0.00 | 0.00 | 8 | 1013.5 |
| 20260906032903 | 29 | 245 | 3.2 | 8.0 | 0.00 | 0.00 | 0.00 | 9 | 1013.5 |
| 20260906032824 | 29 | 246 | 3.2 | 8.0 | 0.00 | 0.00 | 0.00 | 10 | 1013.5 |
| 20260906032703 | 29 | 246 | 3.2 | 9.7 | 0.00 | 0.00 | 0.00 | 10 | 1013.5 |
| 20260906032603 | 29 | 251 | 4.8 | 11.3 | 0.00 | 0.00 | 0.00 | 11 | 1013.5 |
| 20260906032503 | 29 | 253 | 4.8 | 11.3 | 0.00 | 0.00 | 0.00 | 12 | 1013.5 |
| 20260906032404 | 30 | 255 | 4.8 | 11.3 | 0.00 | 0.00 | 0.00 | 12 | 1013.5 |
| 20260906032306 | 30 | 255 | 4.8 | 11.3 | 0.00 | 0.00 | 0.00 | 13 | 1013.4 |
| 20260906032224 | 30 | 255 | 4.8 | 11.3 | 0.00 | 0.00 | 0.00 | 14 | 1013.5 |
| 20260906032125 | 30 | 256 | 4.8 | 11.3 | 0.00 | 0.00 | 0.00 | 14 | 1013.4 |
| 20260906032003 | 30 | 257 | 4.8 | 11.3 | 0.00 | 0.00 | 0.00 | 16 | 1013.4 |
| 20260906031924 | 30 | 256 | 4.8 | 11.3 | 0.00 | 0.00 | 0.00 | 16 | 1013.4 |
| 20260906031803 | 30 | 255 | 4.8 | 11.3 | 0.00 | 0.00 | 0.00 | 17 | 1013.4 |
| 20260906031703 | 30 | 257 | 4.8 | 11.3 | 0.00 | 0.00 | 0.00 | 18 | 1013.4 |
| 20260906031603 | 30 | 255 | 4.8 | 9.7 | 0.00 | 0.00 | 0.00 | 18 | 1013.4 |
| 20260906031504 | 30 | 256 | 4.8 | 11.3 | 0.00 | 0.00 | 0.00 | 19 | 1013.4 |
| 20260906031403 | 30 | 257 | 4.8 | 11.3 | 0.00 | 0.00 | 0.00 | 21 | 1013.4 |
| 20260906031303 | 30 | 259 | 4.8 | 11.3 | 0.00 | 0.00 | 0.00 | 21 | 1013.4 |
| 20260906031203 | 30 | 259 | 4.8 | 11.3 | 0.00 | 0.00 | 0.00 | 22 | 1013.4 |
| 20260906031124 | 30 | 258 | 4.8 | 11.3 | 0.00 | 0.00 | 0.00 | 23 | 1013.4 |
| 20260906031003 | 30 | 259 | 4.8 | 11.3 | 0.00 | 0.00 | 0.00 | 23 | 1013.3 |
| 20260906030924 | 30 | 259 | 4.8 | 11.3 | 0.00 | 0.00 | 0.00 | 24 | 1013.3 |
| 20260906030824 | 30 | 261 | 4.8 | 11.3 | 0.00 | 0.00 | 0.00 | 24 | 1013.3 |
| 20260906030703 | 30 | 261 | 4.8 | 11.3 | 0.00 | 0.00 | 0.00 | 26 | 1013.3 |
| 20260906030625 | 30 | 259 | 4.8 | 11.3 | 0.00 | 0.00 | 0.00 | 26 | 1013.3 |
| 20260906030503 | 30 | 256 | 4.8 | 11.3 | 0.00 | 0.00 | 0.00 | 26 | 1013.3 |
| 20260906030403 | 30 | 255 | 4.8 | 11.3 | 0.00 | 0.00 | 0.00 | 27 | 1013.3 |
| 20260906030303 | 30 | 254 | 4.8 | 11.3 | 0.00 | 0.00 | 0.00 | 27 | 1013.3 |
| 20260906030203 | 30 | 255 | 4.8 | 11.3 | 0.00 | 0.00 | 0.00 | 28 | 1013.3 |
| 20260906030003 | 30 | 258 | 4.8 | 11.3 | 0.00 | 0.00 | 0.00 | 29 | 1013.2 |
| 20260906025903 | 30 | 258 | 4.8 | 11.3 | 0.00 | 0.00 | 0.00 | 30 | 1013.1 |
| 20260906025803 | 30 | 258 | 4.8 | 11.3 | 0.00 | 0.00 | 0.00 | 30 | 1013.1 |
| 20260906025703 | 30 | 257 | 4.8 | 9.7 | 0.00 | 0.00 | 0.00 | 31 | 1013.2 |
| 20260906025603 | 30 | 257 | 4.8 | 9.7 | 0.00 | 0.00 | 0.00 | 31 | 1013.1 |
| 20260906025503 | 30 | 258 | 4.8 | 9.7 | 0.00 | 0.00 | 0.00 | 32 | 1013.1 |
| 20260906025403 | 30 | 261 | 4.8 | 9.7 | 0.00 | 0.00 | 0.00 | 32 | 1013.1 |
| 20260906025324 | 30 | 261 | 4.8 | 9.7 | 0.00 | 0.00 | 0.00 | 32 | 1013.1 |
| 20260906025203 | 30 | 262 | 4.8 | 9.7 | 0.00 | 0.00 | 0.00 | 33 | 1013.0 |
| 20260906025125 | 30 | 262 | 4.8 | 9.7 | 0.00 | 0.00 | 0.00 | 33 | 1013.1 |
| 20260906025003 | 30 | 261 | 4.8 | 11.3 | 0.00 | 0.00 | 0.00 | 34 | 1013.0 |
| 20260906024903 | 30 | 260 | 4.8 | 12.9 | 0.00 | 0.00 | 0.00 | 34 | 1013.0 |
| 20260906024803 | 30 | 258 | 4.8 | 12.9 | 0.00 | 0.00 | 0.00 | 34 | 1013.0 |
| 20260906024703 | 30 | 257 | 4.8 | 12.9 | 0.00 | 0.00 | 0.00 | 35 | 1012.9 |
| 20260906024604 | 30 | 258 | 4.8 | 12.9 | 0.00 | 0.00 | 0.00 | 35 | 1012.9 |
| 20260906024503 | 30 | 258 | 4.8 | 12.9 | 0.00 | 0.00 | 0.00 | 35 | 1012.9 |
| 20260906024403 | 30 | 256 | 4.8 | 12.9 | 0.00 | 0.00 | 0.00 | 36 | 1012.8 |
| 20260906024304 | 30 | 255 | 4.8 | 12.9 | 0.00 | 0.00 | 0.00 | 36 | 1012.8 |
| 20260906024204 | 30 | 255 | 4.8 | 12.9 | 0.00 | 0.00 | 0.00 | 36 | 1012.8 |
| 20260906024103 | 31 | 255 | 6.4 | 12.9 | 0.00 | 0.00 | 0.00 | 37 | 1012.8 |
| 20260906024003 | 31 | 256 | 4.8 | 12.9 | 0.00 | 0.00 | 0.00 | 37 | 1012.7 |
| 20260906023903 | 31 | 257 | 4.8 | 11.3 | 0.00 | 0.00 | 0.00 | 37 | 1012.6 |
| 20260906023803 | 31 | 260 | 4.8 | 11.3 | 0.00 | 0.00 | 0.00 | 38 | 1012.6 |
| 20260906023704 | 31 | 261 | 4.8 | 11.3 | 0.00 | 0.00 | 0.00 | 38 | 1012.6 |
| 20260906023603 | 31 | 264 | 6.4 | 14.5 | 0.00 | 0.00 | 0.00 | 38 | 1012.6 |
| 20260906023503 | 31 | 264 | 6.4 | 14.5 | 0.00 | 0.00 | 0.00 | 38 | 1012.5 |
| 20260906023403 | 31 | 265 | 6.4 | 14.5 | 0.00 | 0.00 | 0.00 | 38 | 1012.4 |
| 20260906023303 | 31 | 265 | 6.4 | 16.1 | 0.00 | 0.00 | 0.00 | 39 | 1012.4 |
| 20260906023225 | 31 | 266 | 6.4 | 16.1 | 0.00 | 0.00 | 0.00 | 39 | 1012.4 |
| 20260906023103 | 31 | 266 | 6.4 | 16.1 | 0.00 | 0.00 | 0.00 | 39 | 1012.4 |
| 20260906023003 | 31 | 268 | 6.4 | 16.1 | 0.00 | 0.00 | 0.00 | 39 | 1012.3 |
| 20260906022903 | 31 | 270 | 6.4 | 16.1 | 0.00 | 0.00 | 0.00 | 39 | 1012.3 |
| 20260906022804 | 31 | 270 | 6.4 | 16.1 | 0.00 | 0.00 | 0.00 | 40 | 1012.3 |
| 20260906022703 | 31 | 274 | 6.4 | 16.1 | 0.00 | 0.00 | 0.00 | 40 | 1012.2 |
| 20260906022624 | 31 | 272 | 6.4 | 16.1 | 0.00 | 0.00 | 0.00 | 40 | 1012.2 |
| 20260906022504 | 31 | 270 | 6.4 | 16.1 | 0.00 | 0.00 | 0.00 | 40 | 1012.2 |
| 20260906022403 | 31 | 269 | 6.4 | 16.1 | 0.00 | 0.00 | 0.00 | 40 | 1012.2 |
| 20260906022306 | 31 | 270 | 6.4 | 19.3 | 0.00 | 0.00 | 0.00 | 40 | 1012.2 |
| 20260906022203 | 31 | 269 | 6.4 | 19.3 | 0.00 | 0.00 | 0.00 | 41 | 1012.2 |
| 20260906022125 | 31 | 266 | 6.4 | 19.3 | 0.00 | 0.00 | 0.00 | 41 | 1012.1 |
| 20260906022004 | 31 | 262 | 6.4 | 19.3 | 0.00 | 0.00 | 0.00 | 41 | 1012.2 |
| 20260906021903 | 31 | 259 | 6.4 | 19.3 | 0.00 | 0.00 | 0.00 | 41 | 1012.1 |
| 20260906021803 | 31 | 259 | 6.4 | 19.3 | 0.00 | 0.00 | 0.00 | 41 | 1012.1 |
| 20260906021703 | 31 | 258 | 6.4 | 19.3 | 0.00 | 0.00 | 0.00 | 41 | 1012.1 |
| 20260906021603 | 31 | 262 | 6.4 | 19.3 | 0.00 | 0.00 | 0.00 | 41 | 1012.1 |
| 20260906021503 | 31 | 263 | 6.4 | 19.3 | 0.00 | 0.00 | 0.00 | 42 | 1012.0 |
| 20260906021403 | 31 | 263 | 8.0 | 19.3 | 0.00 | 0.00 | 0.00 | 42 | 1012.0 |
| 20260906021303 | 31 | 261 | 8.0 | 20.9 | 0.00 | 0.00 | 0.00 | 42 | 1012.0 |
| 20260906021203 | 31 | 262 | 8.0 | 20.9 | 0.00 | 0.00 | 0.00 | 42 | 1012.0 |
| 20260906021103 | 31 | 263 | 8.0 | 20.9 | 0.00 | 0.00 | 0.00 | 42 | 1011.9 |
| 20260906021024 | 31 | 264 | 8.0 | 20.9 | 0.00 | 0.00 | 0.00 | 42 | 1011.9 |
| 20260906020904 | 31 | 264 | 8.0 | 20.9 | 0.00 | 0.00 | 0.00 | 42 | 1012.0 |
| 20260906020803 | 31 | 263 | 8.0 | 20.9 | 0.00 | 0.00 | 0.00 | 43 | 1011.9 |
| 20260906020703 | 31 | 261 | 8.0 | 20.9 | 0.00 | 0.00 | 0.00 | 43 | 1011.9 |
| 20260906020606 | 31 | 258 | 8.0 | 20.9 | 0.00 | 0.00 | 0.00 | 43 | 1012.0 |
| 20260906020524 | 31 | 258 | 6.4 | 20.9 | 0.00 | 0.00 | 0.00 | 43 | 1011.9 |
| 20260906020403 | 31 | 258 | 6.4 | 20.9 | 0.00 | 0.00 | 0.00 | 43 | 1011.9 |
| 20260906020325 | 31 | 258 | 6.4 | 19.3 | 0.00 | 0.00 | 0.00 | 43 | 1011.9 |
| 20260906020203 | 32 | 256 | 6.4 | 19.3 | 0.00 | 0.00 | 0.00 | 43 | 1011.8 |
| 20260906020103 | 32 | 256 | 4.8 | 19.3 | 0.00 | 0.00 | 0.00 | 43 | 1011.8 |
| 20260906020024 | 32 | 256 | 4.8 | 17.7 | 0.00 | 0.00 | 0.00 | 43 | 1011.7 |
| 20260906015903 | 32 | 256 | 4.8 | 12.9 | 0.00 | 0.00 | 0.00 | 43 | 1011.7 |
| 20260906015804 | 32 | 257 | 4.8 | 12.9 | 0.00 | 0.00 | 0.00 | 43 | 1011.6 |
| 20260906015724 | 32 | 259 | 4.8 | 12.9 | 0.00 | 0.00 | 0.00 | 43 | 1011.6 |
| 20260906015603 | 32 | 264 | 4.8 | 12.9 | 0.00 | 0.00 | 0.00 | 43 | 1011.6 |
| 20260906015503 | 32 | 267 | 4.8 | 12.9 | 0.00 | 0.00 | 0.00 | 43 | 1011.6 |
| 20260906015403 | 32 | 269 | 4.8 | 12.9 | 0.00 | 0.00 | 0.00 | 43 | 1011.6 |
| 20260906015306 | 32 | 270 | 4.8 | 11.3 | 0.00 | 0.00 | 0.00 | 43 | 1011.6 |
| 20260906015206 | 32 | 270 | 4.8 | 11.3 | 0.00 | 0.00 | 0.00 | 43 | 1011.5 |
| 20260906015103 | 32 | 270 | 4.8 | 11.3 | 0.00 | 0.00 | 0.00 | 43 | 1011.5 |
| 20260906015004 | 32 | 270 | 4.8 | 11.3 | 0.00 | 0.00 | 0.00 | 43 | 1011.6 |
| 20260906014903 | 32 | 269 | 4.8 | 12.9 | 0.00 | 0.00 | 0.00 | 43 | 1011.5 |
| 20260906014803 | 32 | 268 | 6.4 | 12.9 | 0.00 | 0.00 | 0.00 | 43 | 1011.5 |
| 20260906014724 | 32 | 266 | 6.4 | 12.9 | 0.00 | 0.00 | 0.00 | 43 | 1011.5 |
| 20260906014604 | 32 | 261 | 6.4 | 12.9 | 0.00 | 0.00 | 0.00 | 43 | 1011.5 |
| 20260906014503 | 32 | 261 | 6.4 | 14.5 | 0.00 | 0.00 | 0.00 | 43 | 1011.4 |
| 20260906014403 | 32 | 258 | 6.4 | 14.5 | 0.00 | 0.00 | 0.00 | 43 | 1011.5 |
| 20260906014303 | 32 | 257 | 6.4 | 14.5 | 0.00 | 0.00 | 0.00 | 43 | 1011.5 |
| 20260906014203 | 32 | 256 | 6.4 | 14.5 | 0.00 | 0.00 | 0.00 | 43 | 1011.5 |
| 20260906014104 | 32 | 255 | 6.4 | 14.5 | 0.00 | 0.00 | 0.00 | 44 | 1011.5 |
| 20260906014003 | 32 | 252 | 4.8 | 14.5 | 0.00 | 0.00 | 0.00 | 44 | 1011.5 |
| 20260906013904 | 32 | 252 | 4.8 | 14.5 | 0.00 | 0.00 | 0.00 | 44 | 1011.5 |
| 20260906013803 | 32 | 251 | 4.8 | 14.5 | 0.00 | 0.00 | 0.00 | 44 | 1011.4 |
| 20260906013704 | 32 | 251 | 4.8 | 14.5 | 0.00 | 0.00 | 0.00 | 44 | 1011.5 |
| 20260906013604 | 32 | 251 | 4.8 | 14.5 | 0.00 | 0.00 | 0.00 | 44 | 1011.4 |
| 20260906013503 | 32 | 249 | 4.8 | 12.9 | 0.00 | 0.00 | 0.00 | 44 | 1011.4 |
| 20260906013403 | 32 | 249 | 4.8 | 12.9 | 0.00 | 0.00 | 0.00 | 44 | 1011.5 |
| 20260906013325 | 32 | 250 | 4.8 | 12.9 | 0.00 | 0.00 | 0.00 | 44 | 1011.4 |
| 20260906013203 | 32 | 251 | 4.8 | 12.9 | 0.00 | 0.00 | 0.00 | 44 | 1011.4 |
| 20260906013103 | 32 | 251 | 4.8 | 12.9 | 0.00 | 0.00 | 0.00 | 44 | 1011.4 |
| 20260906013024 | 32 | 252 | 4.8 | 12.9 | 0.00 | 0.00 | 0.00 | 44 | 1011.3 |
| 20260906012903 | 32 | 253 | 4.8 | 12.9 | 0.00 | 0.00 | 0.00 | 44 | 1011.4 |
| 20260906012824 | 32 | 253 | 4.8 | 12.9 | 0.00 | 0.00 | 0.00 | 44 | 1011.3 |
| 20260906012703 | 32 | 254 | 4.8 | 12.9 | 0.00 | 0.00 | 0.00 | 44 | 1011.4 |
| 20260906012603 | 32 | 254 | 4.8 | 12.9 | 0.00 | 0.00 | 0.00 | 44 | 1011.4 |
| 20260906012503 | 32 | 255 | 4.8 | 12.9 | 0.00 | 0.00 | 0.00 | 44 | 1011.4 |
| 20260906012403 | 32 | 257 | 4.8 | 12.9 | 0.00 | 0.00 | 0.00 | 44 | 1011.4 |
| 20260906012306 | 32 | 258 | 4.8 | 12.9 | 0.00 | 0.00 | 0.00 | 44 | 1011.4 |
| 20260906012203 | 32 | 257 | 4.8 | 14.5 | 0.00 | 0.00 | 0.00 | 44 | 1011.3 |
| 20260906012103 | 32 | 258 | 4.8 | 14.5 | 0.00 | 0.00 | 0.00 | 44 | 1011.3 |
| 20260906012003 | 32 | 256 | 4.8 | 14.5 | 0.00 | 0.00 | 0.00 | 44 | 1011.3 |
| 20260906011903 | 32 | 257 | 4.8 | 14.5 | 0.00 | 0.00 | 0.00 | 44 | 1011.3 |
| 20260906011803 | 32 | 258 | 4.8 | 14.5 | 0.00 | 0.00 | 0.00 | 44 | 1011.3 |
| 20260906011703 | 32 | 259 | 4.8 | 14.5 | 0.00 | 0.00 | 0.00 | 44 | 1011.3 |
| 20260906011603 | 32 | 260 | 4.8 | 14.5 | 0.00 | 0.00 | 0.00 | 44 | 1011.3 |
| 20260906011504 | 32 | 260 | 6.4 | 14.5 | 0.00 | 0.00 | 0.00 | 44 | 1011.3 |
| 20260906011403 | 32 | 259 | 6.4 | 14.5 | 0.00 | 0.00 | 0.00 | 44 | 1011.3 |
| 20260906011324 | 32 | 258 | 6.4 | 14.5 | 0.00 | 0.00 | 0.00 | 44 | 1011.3 |
| 20260906011224 | 32 | 262 | 6.4 | 16.1 | 0.00 | 0.00 | 0.00 | 44 | 1011.3 |
| 20260906011124 | 33 | 261 | 6.4 | 17.7 | 0.00 | 0.00 | 0.00 | 44 | 1011.3 |
| 20260906011003 | 33 | 263 | 6.4 | 17.7 | 0.00 | 0.00 | 0.00 | 44 | 1011.3 |
| 20260906010903 | 33 | 263 | 8.0 | 17.7 | 0.00 | 0.00 | 0.00 | 44 | 1011.3 |
| 20260906010803 | 33 | 263 | 8.0 | 17.7 | 0.00 | 0.00 | 0.00 | 44 | 1011.3 |
| 20260906010724 | 33 | 263 | 8.0 | 17.7 | 0.00 | 0.00 | 0.00 | 44 | 1011.3 |
| 20260906010604 | 33 | 263 | 8.0 | 20.9 | 0.00 | 0.00 | 0.00 | 44 | 1011.3 |
| 20260906010503 | 33 | 263 | 8.0 | 20.9 | 0.00 | 0.00 | 0.00 | 44 | 1011.3 |
| 20260906010403 | 33 | 264 | 8.0 | 20.9 | 0.00 | 0.00 | 0.00 | 44 | 1011.3 |
| 20260906010303 | 33 | 264 | 8.0 | 20.9 | 0.00 | 0.00 | 0.00 | 44 | 1011.3 |
| 20260906010203 | 33 | 262 | 8.0 | 20.9 | 0.00 | 0.00 | 0.00 | 44 | 1011.2 |
| 20260906010103 | 33 | 262 | 6.4 | 20.9 | 0.00 | 0.00 | 0.00 | 44 | 1011.2 |
| 20260906010003 | 33 | 263 | 6.4 | 20.9 | 0.00 | 0.00 | 0.00 | 44 | 1011.2 |
| 20260906005925 | 33 | 261 | 6.4 | 20.9 | 0.00 | 0.00 | 0.00 | 45 | 1011.2 |
| 20260906005803 | 33 | 263 | 6.4 | 20.9 | 0.00 | 0.00 | 0.00 | 45 | 1011.3 |
| 20260906005703 | 33 | 265 | 8.0 | 20.9 | 0.00 | 0.00 | 0.00 | 45 | 1011.3 |
| 20260906005603 | 33 | 265 | 8.0 | 17.7 | 0.00 | 0.00 | 0.00 | 45 | 1011.2 |
| 20260906005503 | 33 | 265 | 8.0 | 20.9 | 0.00 | 0.00 | 0.00 | 45 | 1011.3 |
| 20260906005403 | 33 | 266 | 8.0 | 20.9 | 0.00 | 0.00 | 0.00 | 45 | 1011.3 |
| 20260906005306 | 33 | 268 | 8.0 | 20.9 | 0.00 | 0.00 | 0.00 | 45 | 1011.2 |
| 20260906005203 | 33 | 270 | 8.0 | 20.9 | 0.00 | 0.00 | 0.00 | 45 | 1011.2 |
| 20260906005124 | 33 | 272 | 8.0 | 20.9 | 0.00 | 0.00 | 0.00 | 45 | 1011.2 |
| 20260906005003 | 33 | 273 | 8.0 | 20.9 | 0.00 | 0.00 | 0.00 | 45 | 1011.2 |
| 20260906004903 | 33 | 274 | 8.0 | 20.9 | 0.00 | 0.00 | 0.00 | 45 | 1011.2 |
| 20260906004803 | 33 | 274 | 8.0 | 20.9 | 0.00 | 0.00 | 0.00 | 45 | 1011.2 |
| 20260906004703 | 33 | 272 | 8.0 | 20.9 | 0.00 | 0.00 | 0.00 | 45 | 1011.1 |
| 20260906004604 | 33 | 271 | 8.0 | 20.9 | 0.00 | 0.00 | 0.00 | 45 | 1011.2 |
| 20260906004503 | 33 | 271 | 8.0 | 16.1 | 0.00 | 0.00 | 0.00 | 45 | 1011.2 |
| 20260906004424 | 33 | 271 | 8.0 | 16.1 | 0.00 | 0.00 | 0.00 | 45 | 1011.2 |
| 20260906004324 | 33 | 267 | 8.0 | 16.1 | 0.00 | 0.00 | 0.00 | 45 | 1011.2 |
| 20260906004203 | 33 | 266 | 6.4 | 16.1 | 0.00 | 0.00 | 0.00 | 45 | 1011.2 |
| 20260906004103 | 33 | 267 | 8.0 | 16.1 | 0.00 | 0.00 | 0.00 | 45 | 1011.2 |
| 20260906004003 | 33 | 270 | 8.0 | 16.1 | 0.00 | 0.00 | 0.00 | 45 | 1011.2 |
| 20260906003903 | 33 | 271 | 8.0 | 17.7 | 0.00 | 0.00 | 0.00 | 45 | 1011.1 |
| 20260906003803 | 33 | 270 | 8.0 | 17.7 | 0.00 | 0.00 | 0.00 | 44 | 1011.2 |
| 20260906003724 | 33 | 272 | 8.0 | 17.7 | 0.00 | 0.00 | 0.00 | 44 | 1011.2 |
| 20260906003603 | 33 | 270 | 8.0 | 17.7 | 0.00 | 0.00 | 0.00 | 44 | 1011.1 |
| 20260906003503 | 33 | 269 | 8.0 | 17.7 | 0.00 | 0.00 | 0.00 | 44 | 1011.1 |
| 20260906003403 | 34 | 269 | 8.0 | 17.7 | 0.00 | 0.00 | 0.00 | 44 | 1011.1 |
| 20260906003303 | 34 | 271 | 8.0 | 17.7 | 0.00 | 0.00 | 0.00 | 44 | 1011.1 |
| 20260906003203 | 34 | 271 | 8.0 | 17.7 | 0.00 | 0.00 | 0.00 | 44 | 1011.2 |
| 20260906003103 | 34 | 268 | 8.0 | 17.7 | 0.00 | 0.00 | 0.00 | 44 | 1011.1 |
| 20260906003003 | 34 | 266 | 6.4 | 17.7 | 0.00 | 0.00 | 0.00 | 44 | 1011.1 |
| 20260906002904 | 34 | 262 | 6.4 | 16.1 | 0.00 | 0.00 | 0.00 | 44 | 1011.1 |
| 20260906002824 | 34 | 262 | 6.4 | 16.1 | 0.00 | 0.00 | 0.00 | 44 | 1011.1 |
| 20260906002703 | 34 | 261 | 6.4 | 16.1 | 0.00 | 0.00 | 0.00 | 44 | 1011.1 |
| 20260906002603 | 34 | 263 | 6.4 | 16.1 | 0.00 | 0.00 | 0.00 | 44 | 1011.1 |
| 20260906002503 | 34 | 264 | 6.4 | 16.1 | 0.00 | 0.00 | 0.00 | 44 | 1011.0 |
| 20260906002403 | 34 | 265 | 6.4 | 16.1 | 0.00 | 0.00 | 0.00 | 43 | 1011.0 |
| 20260906002306 | 34 | 264 | 6.4 | 16.1 | 0.00 | 0.00 | 0.00 | 43 | 1011.1 |
| 20260906002203 | 35 | 262 | 6.4 | 16.1 | 0.00 | 0.00 | 0.00 | 43 | 1011.0 |
| 20260906002103 | 35 | 267 | 6.4 | 14.5 | 0.00 | 0.00 | 0.00 | 43 | 1011.0 |
| 20260906002004 | 35 | 269 | 6.4 | 17.7 | 0.00 | 0.00 | 0.00 | 43 | 1011.0 |
| 20260906001903 | 35 | 268 | 6.4 | 17.7 | 0.00 | 0.00 | 0.00 | 43 | 1011.0 |
| 20260906001803 | 35 | 266 | 6.4 | 17.7 | 0.00 | 0.00 | 0.00 | 43 | 1011.0 |
| 20260906001703 | 35 | 267 | 6.4 | 17.7 | 0.00 | 0.00 | 0.00 | 43 | 1011.0 |
| 20260906001603 | 35 | 268 | 6.4 | 17.7 | 0.00 | 0.00 | 0.00 | 43 | 1011.0 |
| 20260906001503 | 35 | 268 | 6.4 | 17.7 | 0.00 | 0.00 | 0.00 | 42 | 1011.0 |
| 20260906001405 | 35 | 269 | 6.4 | 17.7 | 0.00 | 0.00 | 0.00 | 42 | 1010.9 |
| 20260906001303 | 35 | 270 | 6.4 | 17.7 | 0.00 | 0.00 | 0.00 | 43 | 1011.0 |
| 20260906001203 | 35 | 273 | 6.4 | 17.7 | 0.00 | 0.00 | 0.00 | 42 | 1010.9 |
| 20260906001103 | 35 | 269 | 4.8 | 17.7 | 0.00 | 0.00 | 0.00 | 42 | 1010.9 |
| 20260906001024 | 35 | 263 | 4.8 | 17.7 | 0.00 | 0.00 | 0.00 | 42 | 1010.9 |
| 20260906000903 | 35 | 267 | 6.4 | 17.7 | 0.00 | 0.00 | 0.00 | 42 | 1010.9 |
| 20260906000803 | 35 | 270 | 6.4 | 17.7 | 0.00 | 0.00 | 0.00 | 42 | 1010.9 |
| 20260906000703 | 35 | 270 | 4.8 | 17.7 | 0.00 | 0.00 | 0.00 | 42 | 1010.9 |
| 20260906000604 | 35 | 269 | 4.8 | 12.9 | 0.00 | 0.00 | 0.00 | 42 | 1010.9 |
| 20260906000503 | 35 | 271 | 4.8 | 12.9 | 0.00 | 0.00 | 0.00 | 42 | 1010.9 |
| 20260906000405 | 35 | 268 | 6.4 | 12.9 | 0.00 | 0.00 | 0.00 | 42 | 1010.9 |
| 20260906000304 | 35 | 266 | 6.4 | 12.9 | 0.00 | 0.00 | 0.00 | 42 | 1010.9 |
| 20260906000204 | 35 | 266 | 6.4 | 12.9 | 0.00 | 0.00 | 0.00 | 42 | 1010.9 |
| 20260906000103 | 35 | 266 | 4.8 | 11.3 | 0.00 | 0.00 | 0.00 | 41 | 1010.9 |
| 20260906000003 | 35 | 268 | 4.8 | 11.3 | 0.00 | 0.00 | 0.00 | 41 | 1010.9 |
| 20260905235924 | 35 | 264 | 4.8 | 11.3 | 0.00 | 0.00 | 0.00 | 41 | 1010.9 |
| 20260905235803 | 35 | 262 | 4.8 | 12.9 | 0.00 | 0.00 | 0.00 | 41 | 1010.8 |
| 20260905235724 | 35 | 261 | 6.4 | 12.9 | 0.00 | 0.00 | 0.00 | 41 | 1010.8 |
| 20260905235603 | 35 | 258 | 6.4 | 12.9 | 0.00 | 0.00 | 0.00 | 41 | 1010.8 |
| 20260905235524 | 35 | 256 | 6.4 | 12.9 | 0.00 | 0.00 | 0.00 | 41 | 1010.8 |
| 20260905235403 | 35 | 256 | 6.4 | 19.3 | 0.00 | 0.00 | 0.00 | 41 | 1010.8 |
| 20260905235306 | 35 | 255 | 8.0 | 19.3 | 0.00 | 0.00 | 0.00 | 41 | 1010.7 |
| 20260905235224 | 35 | 252 | 8.0 | 19.3 | 0.00 | 0.00 | 0.00 | 41 | 1010.8 |
| 20260905235103 | 35 | 249 | 9.7 | 20.9 | 0.00 | 0.00 | 0.00 | 41 | 1010.8 |
| 20260905235024 | 35 | 248 | 9.7 | 20.9 | 0.00 | 0.00 | 0.00 | 41 | 1010.8 |
| 20260905234903 | 35 | 247 | 9.7 | 20.9 | 0.00 | 0.00 | 0.00 | 41 | 1010.8 |
| 20260905234803 | 35 | 247 | 9.7 | 20.9 | 0.00 | 0.00 | 0.00 | 42 | 1010.7 |
| 20260905234703 | 35 | 245 | 9.7 | 22.5 | 0.00 | 0.00 | 0.00 | 42 | 1010.7 |
| 20260905234603 | 35 | 244 | 11.3 | 22.5 | 0.00 | 0.00 | 0.00 | 42 | 1010.7 |
| 20260905234504 | 35 | 244 | 11.3 | 22.5 | 0.00 | 0.00 | 0.00 | 42 | 1010.7 |
| 20260905234403 | 35 | 243 | 11.3 | 22.5 | 0.00 | 0.00 | 0.00 | 42 | 1010.6 |
| 20260905234303 | 35 | 245 | 11.3 | 22.5 | 0.00 | 0.00 | 0.00 | 42 | 1010.6 |
| 20260905234203 | 35 | 246 | 9.7 | 22.5 | 0.00 | 0.00 | 0.00 | 42 | 1010.6 |
| 20260905234124 | 35 | 245 | 11.3 | 22.5 | 0.00 | 0.00 | 0.00 | 42 | 1010.6 |
| 20260905234003 | 35 | 246 | 11.3 | 22.5 | 0.00 | 0.00 | 0.00 | 42 | 1010.6 |
| 20260905233903 | 35 | 247 | 11.3 | 22.5 | 0.00 | 0.00 | 0.00 | 42 | 1010.6 |
| 20260905233803 | 35 | 247 | 11.3 | 22.5 | 0.00 | 0.00 | 0.00 | 41 | 1010.6 |
| 20260905233724 | 35 | 249 | 9.7 | 20.9 | 0.00 | 0.00 | 0.00 | 41 | 1010.5 |
| 20260905233603 | 35 | 250 | 9.7 | 20.9 | 0.00 | 0.00 | 0.00 | 42 | 1010.6 |
| 20260905233524 | 35 | 252 | 9.7 | 20.9 | 0.00 | 0.00 | 0.00 | 42 | 1010.6 |
| 20260905233403 | 36 | 253 | 9.7 | 20.9 | 0.00 | 0.00 | 0.00 | 41 | 1010.6 |
| 20260905233303 | 36 | 252 | 8.0 | 20.9 | 0.00 | 0.00 | 0.00 | 41 | 1010.6 |
| 20260905233203 | 36 | 253 | 8.0 | 20.9 | 0.00 | 0.00 | 0.00 | 41 | 1010.6 |
| 20260905233124 | 36 | 253 | 8.0 | 20.9 | 0.00 | 0.00 | 0.00 | 41 | 1010.7 |
| 20260905233003 | 36 | 251 | 8.0 | 14.5 | 0.00 | 0.00 | 0.00 | 41 | 1010.6 |
| 20260905232903 | 36 | 249 | 8.0 | 17.7 | 0.00 | 0.00 | 0.00 | 41 | 1010.6 |
| 20260905232803 | 36 | 247 | 8.0 | 17.7 | 0.00 | 0.00 | 0.00 | 40 | 1010.6 |
| 20260905232703 | 36 | 246 | 8.0 | 17.7 | 0.00 | 0.00 | 0.00 | 41 | 1010.6 |
| 20260905232603 | 36 | 247 | 8.0 | 17.7 | 0.00 | 0.00 | 0.00 | 40 | 1010.6 |
| 20260905232504 | 36 | 246 | 8.0 | 17.7 | 0.00 | 0.00 | 0.00 | 41 | 1010.6 |
| 20260905232403 | 36 | 243 | 8.0 | 17.7 | 0.00 | 0.00 | 0.00 | 41 | 1010.6 |
| 20260905232324 | 36 | 244 | 8.0 | 17.7 | 0.00 | 0.00 | 0.00 | 40 | 1010.6 |
| 20260905232203 | 36 | 245 | 8.0 | 17.7 | 0.00 | 0.00 | 0.00 | 40 | 1010.6 |
| 20260905232124 | 36 | 246 | 8.0 | 17.7 | 0.00 | 0.00 | 0.00 | 40 | 1010.6 |
| 20260905232003 | 36 | 246 | 8.0 | 17.7 | 0.00 | 0.00 | 0.00 | 40 | 1010.6 |
| 20260905231924 | 36 | 245 | 8.0 | 17.7 | 0.00 | 0.00 | 0.00 | 40 | 1010.6 |
| 20260905231803 | 36 | 252 | 6.4 | 16.1 | 0.00 | 0.00 | 0.00 | 40 | 1010.6 |
| 20260905231703 | 36 | 253 | 6.4 | 16.1 | 0.00 | 0.00 | 0.00 | 40 | 1010.6 |
| 20260905231604 | 36 | 254 | 6.4 | 16.1 | 0.00 | 0.00 | 0.00 | 40 | 1010.6 |
| 20260905231503 | 36 | 255 | 6.4 | 16.1 | 0.00 | 0.00 | 0.00 | 40 | 1010.6 |
| 20260905231403 | 36 | 258 | 6.4 | 16.1 | 0.00 | 0.00 | 0.00 | 39 | 1010.6 |
| 20260905231303 | 36 | 258 | 4.8 | 16.1 | 0.00 | 0.00 | 0.00 | 39 | 1010.6 |
| 20260905231203 | 36 | 257 | 4.8 | 16.1 | 0.00 | 0.00 | 0.00 | 39 | 1010.6 |
| 20260905231103 | 36 | 259 | 4.8 | 16.1 | 0.00 | 0.00 | 0.00 | 39 | 1010.5 |
| 20260905231004 | 37 | 264 | 4.8 | 12.9 | 0.00 | 0.00 | 0.00 | 38 | 1010.5 |
| 20260905230903 | 37 | 267 | 4.8 | 9.7 | 0.00 | 0.00 | 0.00 | 38 | 1010.5 |
| 20260905230803 | 37 | 264 | 4.8 | 9.7 | 0.00 | 0.00 | 0.00 | 37 | 1010.5 |
| 20260905230703 | 37 | 266 | 4.8 | 9.7 | 0.00 | 0.00 | 0.00 | 37 | 1010.5 |
| 20260905230603 | 37 | 269 | 4.8 | 9.7 | 0.00 | 0.00 | 0.00 | 36 | 1010.5 |
| 20260905230503 | 37 | 275 | 4.8 | 11.3 | 0.00 | 0.00 | 0.00 | 37 | 1010.5 |
| 20260905230403 | 37 | 278 | 4.8 | 11.3 | 0.00 | 0.00 | 0.00 | 37 | 1010.4 |
| 20260905230324 | 37 | 278 | 4.8 | 11.3 | 0.00 | 0.00 | 0.00 | 37 | 1010.4 |
| 20260905230203 | 37 | 276 | 4.8 | 11.3 | 0.00 | 0.00 | 0.00 | 37 | 1010.4 |
| 20260905230103 | 37 | 275 | 4.8 | 11.3 | 0.00 | 0.00 | 0.00 | 36 | 1010.4 |
| 20260905230003 | 37 | 278 | 3.2 | 11.3 | 0.00 | 0.00 | 0.00 | 36 | 1010.4 |
| 20260905225903 | 37 | 279 | 3.2 | 11.3 | 0.00 | 0.00 | 0.00 | 36 | 1010.5 |
| 20260905225803 | 37 | 278 | 3.2 | 11.3 | 0.00 | 0.00 | 0.00 | 37 | 1010.5 |
| 20260905225703 | 37 | 275 | 3.2 | 11.3 | 0.00 | 0.00 | 0.00 | 36 | 1010.5 |
| 20260905225603 | 37 | 267 | 3.2 | 11.3 | 0.00 | 0.00 | 0.00 | 36 | 1010.5 |
| 20260905225503 | 37 | 258 | 4.8 | 11.3 | 0.00 | 0.00 | 0.00 | 36 | 1010.5 |
| 20260905225403 | 37 | 256 | 4.8 | 11.3 | 0.00 | 0.00 | 0.00 | 36 | 1010.5 |
| 20260905225305 | 37 | 256 | 4.8 | 12.9 | 0.00 | 0.00 | 0.00 | 36 | 1010.6 |
| 20260905225203 | 37 | 256 | 4.8 | 12.9 | 0.00 | 0.00 | 0.00 | 36 | 1010.5 |
| 20260905225103 | 37 | 256 | 6.4 | 12.9 | 0.00 | 0.00 | 0.00 | 37 | 1010.5 |
| 20260905225003 | 37 | 256 | 6.4 | 12.9 | 0.00 | 0.00 | 0.00 | 37 | 1010.6 |
| 20260905224903 | 37 | 256 | 6.4 | 12.9 | 0.00 | 0.00 | 0.00 | 37 | 1010.5 |
| 20260905224803 | 37 | 254 | 8.0 | 12.9 | 0.00 | 0.00 | 0.00 | 37 | 1010.6 |
| 20260905224703 | 37 | 253 | 8.0 | 12.9 | 0.00 | 0.00 | 0.00 | 37 | 1010.6 |
| 20260905224603 | 37 | 255 | 6.4 | 12.9 | 0.00 | 0.00 | 0.00 | 36 | 1010.6 |
| 20260905224503 | 37 | 257 | 6.4 | 12.9 | 0.00 | 0.00 | 0.00 | 36 | 1010.6 |
| 20260905224403 | 37 | 256 | 6.4 | 12.9 | 0.00 | 0.00 | 0.00 | 37 | 1010.6 |
| 20260905224303 | 37 | 254 | 6.4 | 12.9 | 0.00 | 0.00 | 0.00 | 37 | 1010.5 |
| 20260905224203 | 37 | 252 | 4.8 | 12.9 | 0.00 | 0.00 | 0.00 | 37 | 1010.5 |
| 20260905224103 | 37 | 250 | 4.8 | 12.9 | 0.00 | 0.00 | 0.00 | 37 | 1010.6 |
| 20260905224024 | 37 | 249 | 4.8 | 12.9 | 0.00 | 0.00 | 0.00 | 37 | 1010.5 |
| 20260905223903 | 37 | 244 | 4.8 | 11.3 | 0.00 | 0.00 | 0.00 | 37 | 1010.5 |
| 20260905223803 | 37 | 241 | 3.2 | 11.3 | 0.00 | 0.00 | 0.00 | 37 | 1010.5 |
| 20260905223703 | 37 | 237 | 3.2 | 11.3 | 0.00 | 0.00 | 0.00 | 37 | 1010.5 |
| 20260905223603 | 37 | 230 | 3.2 | 11.3 | 0.00 | 0.00 | 0.00 | 37 | 1010.5 |
| 20260905223503 | 37 | 217 | 3.2 | 9.7 | 0.00 | 0.00 | 0.00 | 37 | 1010.5 |
| 20260905223403 | 37 | 211 | 3.2 | 9.7 | 0.00 | 0.00 | 0.00 | 37 | 1010.5 |
| 20260905223303 | 37 | 206 | 1.6 | 9.7 | 0.00 | 0.03 | 0.00 | 37 | 1010.6 |
| 20260905223203 | 37 | 194 | 1.6 | 8.0 | 0.00 | 0.03 | 0.00 | 37 | 1010.5 |
| 20260905223103 | 37 | 190 | 1.6 | 8.0 | 0.00 | 0.03 | 0.00 | 37 | 1010.5 |
| 20260905223003 | 37 | 183 | 1.6 | 8.0 | 0.00 | 0.03 | 0.00 | 37 | 1010.6 |
| 20260905222903 | 37 | 174 | 1.6 | 8.0 | 0.00 | 0.05 | 0.00 | 37 | 1010.5 |
| 20260905222803 | 36 | 178 | 3.2 | 6.4 | 0.00 | 0.05 | 0.00 | 37 | 1010.6 |
| 20260905222703 | 36 | 186 | 3.2 | 8.0 | 0.00 | 0.05 | 0.00 | 37 | 1010.6 |
| 20260905222603 | 36 | 190 | 3.2 | 8.0 | 0.00 | 0.08 | 0.00 | 37 | 1010.6 |
| 20260905222503 | 36 | 193 | 3.2 | 8.0 | 0.00 | 0.10 | 0.00 | 37 | 1010.6 |
| 20260905222403 | 36 | 195 | 3.2 | 8.0 | 0.00 | 0.10 | 0.00 | 37 | 1010.6 |
| 20260905222306 | 36 | 197 | 4.8 | 9.7 | 0.00 | 0.10 | 0.00 | 37 | 1010.6 |
| 20260905222205 | 36 | 200 | 4.8 | 9.7 | 0.00 | 0.13 | 0.00 | 37 | 1010.6 |
| 20260905222103 | 36 | 202 | 4.8 | 9.7 | 0.00 | 0.13 | 0.00 | 37 | 1010.6 |
| 20260905222024 | 36 | 203 | 4.8 | 9.7 | 0.00 | 0.13 | 0.00 | 37 | 1010.6 |
| 20260905221903 | 36 | 207 | 4.8 | 9.7 | 0.00 | 0.13 | 0.00 | 37 | 1010.7 |
| 20260905221824 | 36 | 208 | 4.8 | 9.7 | 0.00 | 0.13 | 0.00 | 38 | 1010.7 |
| 20260905221724 | 36 | 209 | 4.8 | 9.7 | 0.00 | 0.13 | 0.00 | 38 | 1010.7 |
| 20260905221603 | 36 | 210 | 4.8 | 9.7 | 0.00 | 0.13 | 0.00 | 38 | 1010.6 |
| 20260905221525 | 36 | 210 | 4.8 | 9.7 | 0.00 | 0.13 | 0.00 | 38 | 1010.6 |
| 20260905221403 | 36 | 210 | 4.8 | 9.7 | 0.00 | 0.13 | 0.00 | 37 | 1010.7 |
| 20260905221303 | 36 | 207 | 4.8 | 9.7 | 0.00 | 0.13 | 0.00 | 37 | 1010.7 |
| 20260905221203 | 36 | 204 | 4.8 | 9.7 | 0.00 | 0.13 | 0.00 | 38 | 1010.7 |
| 20260905221103 | 36 | 203 | 4.8 | 9.7 | 0.00 | 0.13 | 0.00 | 38 | 1010.7 |
| 20260905221003 | 36 | 199 | 4.8 | 9.7 | 0.00 | 0.13 | 0.00 | 37 | 1010.7 |
| 20260905220903 | 36 | 196 | 4.8 | 9.7 | 0.00 | 0.13 | 0.00 | 37 | 1010.7 |
| 20260905220803 | 36 | 192 | 4.8 | 9.7 | 0.00 | 0.13 | 0.00 | 37 | 1010.6 |
| 20260905220703 | 36 | 193 | 4.8 | 9.7 | 0.00 | 0.13 | 0.00 | 37 | 1010.7 |
| 20260905220624 | 36 | 195 | 4.8 | 9.7 | 0.00 | 0.13 | 0.00 | 37 | 1010.7 |
| 20260905220503 | 36 | 200 | 4.8 | 9.7 | 0.00 | 0.13 | 0.00 | 37 | 1010.7 |
| 20260905220403 | 37 | 207 | 4.8 | 9.7 | 0.00 | 0.13 | 0.00 | 37 | 1010.7 |
| 20260905220303 | 37 | 215 | 4.8 | 9.7 | 0.00 | 0.13 | 0.00 | 37 | 1010.7 |
| 20260905220203 | 37 | 223 | 4.8 | 11.3 | 0.00 | 0.13 | 0.00 | 37 | 1010.7 |
| 20260905220103 | 37 | 230 | 4.8 | 11.3 | 0.00 | 0.13 | 0.00 | 37 | 1010.8 |
| 20260905220003 | 37 | 238 | 6.4 | 11.3 | 0.00 | 0.13 | 0.00 | 37 | 1010.7 |
| 20260905215903 | 37 | 244 | 6.4 | 12.9 | 0.00 | 0.13 | 0.00 | 37 | 1010.8 |
| 20260905215803 | 37 | 245 | 6.4 | 12.9 | 0.00 | 0.13 | 0.00 | 37 | 1010.8 |
| 20260905215703 | 37 | 243 | 6.4 | 12.9 | 0.00 | 0.13 | 0.00 | 37 | 1010.8 |
| 20260905215603 | 37 | 242 | 6.4 | 14.5 | 0.00 | 0.13 | 0.00 | 37 | 1010.8 |
| 20260905215524 | 37 | 241 | 6.4 | 14.5 | 0.00 | 0.13 | 0.00 | 37 | 1010.8 |
| 20260905215403 | 37 | 237 | 6.4 | 14.5 | 0.00 | 0.13 | 0.00 | 37 | 1010.8 |
| 20260905215306 | 37 | 236 | 6.4 | 14.5 | 0.00 | 0.13 | 0.00 | 37 | 1010.8 |
| 20260905215224 | 37 | 237 | 6.4 | 14.5 | 0.00 | 0.13 | 0.00 | 37 | 1010.9 |
| 20260905215103 | 37 | 236 | 6.4 | 14.5 | 0.00 | 0.13 | 0.00 | 37 | 1010.8 |
| 20260905215024 | 37 | 235 | 6.4 | 14.5 | 0.00 | 0.13 | 0.00 | 37 | 1010.8 |
| 20260905214903 | 37 | 234 | 4.8 | 14.5 | 0.00 | 0.13 | 0.00 | 37 | 1010.8 |
| 20260905214824 | 37 | 237 | 6.4 | 14.5 | 0.00 | 0.13 | 0.00 | 37 | 1010.7 |
| 20260905214703 | 37 | 239 | 4.8 | 14.5 | 0.00 | 0.13 | 0.00 | 36 | 1010.7 |
| 20260905214624 | 37 | 240 | 4.8 | 14.5 | 0.00 | 0.13 | 0.00 | 36 | 1010.7 |
| 20260905214503 | 37 | 240 | 4.8 | 11.3 | 0.00 | 0.13 | 0.00 | 36 | 1010.7 |
| 20260905214403 | 37 | 241 | 4.8 | 11.3 | 0.00 | 0.13 | 0.00 | 36 | 1010.7 |
| 20260905214303 | 37 | 239 | 4.8 | 9.7 | 0.00 | 0.13 | 0.00 | 36 | 1010.7 |
| 20260905214203 | 37 | 237 | 4.8 | 9.7 | 0.00 | 0.13 | 0.00 | 36 | 1010.7 |
| 20260905214103 | 37 | 243 | 4.8 | 9.7 | 0.00 | 0.13 | 0.00 | 36 | 1010.7 |
| 20260905214003 | 37 | 249 | 4.8 | 9.7 | 0.00 | 0.13 | 0.00 | 36 | 1010.7 |
| 20260905213903 | 37 | 257 | 4.8 | 9.7 | 0.00 | 0.13 | 0.00 | 36 | 1010.7 |
| 20260905213824 | 37 | 258 | 4.8 | 9.7 | 0.00 | 0.13 | 0.00 | 36 | 1010.7 |
| 20260905213703 | 37 | 265 | 4.8 | 9.7 | 0.00 | 0.13 | 0.00 | 36 | 1010.7 |
| 20260905213624 | 37 | 267 | 4.8 | 9.7 | 0.00 | 0.13 | 0.00 | 36 | 1010.6 |
| 20260905213525 | 37 | 272 | 4.8 | 9.7 | 0.00 | 0.13 | 0.00 | 37 | 1010.7 |
| 20260905213424 | 37 | 274 | 4.8 | 9.7 | 0.00 | 0.13 | 0.00 | 36 | 1010.7 |
| 20260905213303 | 37 | 283 | 3.2 | 9.7 | 0.00 | 0.13 | 0.00 | 36 | 1010.8 |
| 20260905213203 | 37 | 283 | 3.2 | 9.7 | 0.00 | 0.13 | 0.00 | 36 | 1010.8 |
| 20260905213103 | 37 | 276 | 4.8 | 9.7 | 0.00 | 0.13 | 0.00 | 36 | 1010.7 |
| 20260905213003 | 37 | 274 | 4.8 | 9.7 | 0.00 | 0.13 | 0.00 | 36 | 1010.8 |
| 20260905212903 | 37 | 265 | 4.8 | 9.7 | 0.00 | 0.13 | 0.00 | 37 | 1010.8 |
| 20260905212803 | 37 | 264 | 4.8 | 12.9 | 0.00 | 0.13 | 0.00 | 36 | 1010.7 |
| 20260905212703 | 37 | 263 | 4.8 | 12.9 | 0.00 | 0.13 | 0.00 | 36 | 1010.8 |
| 20260905212603 | 37 | 263 | 4.8 | 12.9 | 0.00 | 0.13 | 0.00 | 37 | 1010.8 |
| 20260905212503 | 37 | 262 | 4.8 | 12.9 | 0.00 | 0.13 | 0.00 | 36 | 1010.7 |
| 20260905212424 | 37 | 262 | 4.8 | 12.9 | 0.00 | 0.13 | 0.00 | 36 | 1010.8 |
| 20260905212306 | 37 | 261 | 4.8 | 12.9 | 0.00 | 0.13 | 0.00 | 36 | 1010.8 |
| 20260905212224 | 37 | 259 | 4.8 | 12.9 | 0.00 | 0.13 | 0.00 | 35 | 1010.9 |
| 20260905212103 | 37 | 253 | 4.8 | 12.9 | 0.00 | 0.13 | 0.00 | 35 | 1010.8 |
| 20260905212024 | 37 | 245 | 4.8 | 12.9 | 0.00 | 0.13 | 0.00 | 36 | 1010.9 |
| 20260905211924 | 37 | 240 | 4.8 | 12.9 | 0.00 | 0.13 | 0.00 | 35 | 1010.9 |
| 20260905211803 | 37 | 234 | 3.2 | 8.0 | 0.00 | 0.13 | 0.00 | 36 | 1010.9 |
| 20260905211703 | 37 | 231 | 3.2 | 8.0 | 0.00 | 0.13 | 0.00 | 36 | 1010.9 |
| 20260905211603 | 37 | 230 | 3.2 | 8.0 | 0.00 | 0.13 | 0.00 | 36 | 1011.0 |
| 20260905211503 | 37 | 226 | 3.2 | 8.0 | 0.00 | 0.13 | 0.00 | 36 | 1011.0 |
| 20260905211403 | 37 | 221 | 4.8 | 8.0 | 0.00 | 0.13 | 0.00 | 36 | 1011.0 |
| 20260905211303 | 37 | 216 | 4.8 | 8.0 | 0.00 | 0.13 | 0.00 | 36 | 1011.0 |
| 20260905211203 | 37 | 211 | 4.8 | 8.0 | 0.00 | 0.13 | 0.00 | 36 | 1011.1 |
| 20260905211103 | 37 | 209 | 4.8 | 9.7 | 0.00 | 0.13 | 0.00 | 37 | 1011.0 |
| 20260905211003 | 37 | 205 | 4.8 | 9.7 | 0.00 | 0.13 | 0.00 | 36 | 1011.1 |
| 20260905210903 | 37 | 202 | 3.2 | 9.7 | 0.00 | 0.13 | 0.00 | 36 | 1011.0 |
| 20260905210803 | 37 | 197 | 3.2 | 9.7 | 0.00 | 0.13 | 0.00 | 36 | 1011.0 |
| 20260905210703 | 37 | 181 | 3.2 | 9.7 | 0.00 | 0.13 | 0.00 | 36 | 1011.1 |
| 20260905210603 | 37 | 126 | 4.8 | 11.3 | 0.00 | 0.13 | 0.00 | 36 | 1011.1 |
| 20260905210503 | 37 | 89 | 4.8 | 11.3 | 0.00 | 0.13 | 0.00 | 36 | 1011.1 |
| 20260905210424 | 37 | 72 | 4.8 | 11.3 | 0.00 | 0.13 | 0.00 | 36 | 1011.1 |
| 20260905210303 | 37 | 53 | 4.8 | 14.5 | 0.00 | 0.13 | 0.00 | 35 | 1011.2 |
| 20260905210203 | 37 | 49 | 4.8 | 14.5 | 0.00 | 0.13 | 0.00 | 35 | 1011.2 |
| 20260905210103 | 37 | 48 | 4.8 | 14.5 | 0.00 | 0.13 | 0.00 | 35 | 1011.2 |
| 20260905210003 | 37 | 48 | 4.8 | 14.5 | 0.00 | 0.13 | 0.00 | 36 | 1011.2 |
| 20260905205904 | 37 | 48 | 4.8 | 14.5 | 0.00 | 0.13 | 0.00 | 36 | 1011.2 |
| 20260905205803 | 37 | 48 | 4.8 | 14.5 | 0.00 | 0.13 | 0.00 | 35 | 1011.2 |
| 20260905205703 | 37 | 222 | 4.8 | 14.5 | 0.00 | 0.13 | 0.00 | 35 | 1011.2 |
| 20260905205624 | 37 | 226 | 4.8 | 14.5 | 0.00 | 0.13 | 0.00 | 35 | 1011.2 |
| 20260905205503 | 37 | 229 | 4.8 | 14.5 | 0.00 | 0.13 | 0.00 | 35 | 1011.2 |
| 20260905205424 | 37 | 226 | 4.8 | 14.5 | 0.00 | 0.13 | 0.00 | 35 | 1011.2 |
| 20260905205306 | 37 | 221 | 3.2 | 8.0 | 0.00 | 0.13 | 0.00 | 36 | 1011.2 |
| 20260905205203 | 37 | 217 | 3.2 | 8.0 | 0.00 | 0.13 | 0.00 | 36 | 1011.3 |
| 20260905205103 | 37 | 215 | 3.2 | 8.0 | 0.00 | 0.13 | 0.00 | 37 | 1011.3 |
| 20260905205004 | 36 | 211 | 3.2 | 8.0 | 0.00 | 0.13 | 0.00 | 37 | 1011.4 |
| 20260905204924 | 36 | 208 | 3.2 | 8.0 | 0.00 | 0.13 | 0.00 | 37 | 1011.3 |
| 20260905204824 | 36 | 201 | 3.2 | 8.0 | 0.00 | 0.13 | 0.00 | 37 | 1011.4 |
| 20260905204724 | 36 | 195 | 3.2 | 8.0 | 0.00 | 0.13 | 0.00 | 37 | 1011.4 |
| 20260905204624 | 36 | 189 | 3.2 | 8.0 | 0.00 | 0.13 | 0.00 | 37 | 1011.4 |
| 20260905204524 | 36 | 186 | 3.2 | 8.0 | 0.00 | 0.13 | 0.00 | 38 | 1011.4 |
| 20260905204403 | 36 | 186 | 3.2 | 8.0 | 0.00 | 0.13 | 0.00 | 37 | 1011.4 |
| 20260905204303 | 36 | 183 | 3.2 | 8.0 | 0.00 | 0.13 | 0.00 | 38 | 1011.4 |
| 20260905204203 | 36 | 183 | 3.2 | 9.7 | 0.00 | 0.13 | 0.00 | 37 | 1011.5 |
| 20260905204103 | 36 | 185 | 4.8 | 9.7 | 0.00 | 0.13 | 0.00 | 38 | 1011.5 |
| 20260905204024 | 36 | 193 | 4.8 | 9.7 | 0.00 | 0.13 | 0.00 | 38 | 1011.4 |
| 20260905203903 | 36 | 204 | 4.8 | 9.7 | 0.00 | 0.13 | 0.00 | 37 | 1011.5 |
| 20260905203803 | 36 | 202 | 4.8 | 9.7 | 0.00 | 0.13 | 0.00 | 37 | 1011.5 |
| 20260905203703 | 36 | 215 | 4.8 | 9.7 | 0.00 | 0.13 | 0.00 | 37 | 1011.5 |
| 20260905203603 | 36 | 217 | 4.8 | 9.7 | 0.00 | 0.13 | 0.00 | 37 | 1011.5 |
| 20260905203503 | 36 | 227 | 4.8 | 9.7 | 0.00 | 0.13 | 0.00 | 36 | 1011.6 |
| 20260905203403 | 36 | 256 | 4.8 | 9.7 | 0.00 | 0.13 | 0.00 | 36 | 1011.6 |
| 20260905203303 | 37 | 285 | 4.8 | 9.7 | 0.00 | 0.13 | 0.00 | 36 | 1011.6 |
| 20260905203203 | 36 | 301 | 4.8 | 9.7 | 0.00 | 0.13 | 0.00 | 36 | 1011.6 |
| 20260905203105 | 36 | 303 | 4.8 | 9.7 | 0.00 | 0.13 | 0.00 | 36 | 1011.7 |
| 20260905203003 | 36 | 307 | 4.8 | 9.7 | 0.00 | 0.13 | 0.00 | 36 | 1011.7 |
| 20260905202924 | 36 | 318 | 4.8 | 9.7 | 0.00 | 0.13 | 0.00 | 36 | 1011.7 |
| 20260905202803 | 36 | 311 | 4.8 | 11.3 | 0.00 | 0.13 | 0.00 | 36 | 1011.7 |
| 20260905202703 | 36 | 311 | 4.8 | 11.3 | 0.00 | 0.13 | 0.00 | 37 | 1011.7 |
| 20260905202603 | 36 | 310 | 4.8 | 11.3 | 0.00 | 0.13 | 0.00 | 37 | 1011.7 |
| 20260905202524 | 36 | 310 | 4.8 | 11.3 | 0.00 | 0.13 | 0.00 | 36 | 1011.7 |
| 20260905202403 | 36 | 310 | 4.8 | 11.3 | 0.00 | 0.13 | 0.00 | 36 | 1011.8 |
| 20260905202306 | 36 | 311 | 4.8 | 11.3 | 0.00 | 0.13 | 0.00 | 36 | 1011.8 |
| 20260905202224 | 36 | 310 | 4.8 | 11.3 | 0.00 | 0.13 | 0.00 | 36 | 1011.8 |
| 20260905202103 | 36 | 308 | 4.8 | 11.3 | 0.00 | 0.13 | 0.00 | 36 | 1011.9 |
| 20260905202003 | 36 | 308 | 4.8 | 11.3 | 0.00 | 0.13 | 0.00 | 36 | 1011.9 |
| 20260905201924 | 36 | 312 | 4.8 | 11.3 | 0.00 | 0.13 | 0.00 | 36 | 1011.8 |
| 20260905201824 | 36 | 316 | 4.8 | 8.0 | 0.00 | 0.13 | 0.00 | 36 | 1011.9 |
| 20260905201703 | 36 | 323 | 4.8 | 8.0 | 0.00 | 0.13 | 0.00 | 36 | 1011.9 |
| 20260905201603 | 36 | 329 | 3.2 | 8.0 | 0.00 | 0.13 | 0.00 | 36 | 1011.9 |
| 20260905201503 | 36 | 340 | 3.2 | 8.0 | 0.00 | 0.13 | 0.00 | 36 | 1011.9 |
| 20260905201403 | 36 | 353 | 4.8 | 8.0 | 0.00 | 0.13 | 0.00 | 36 | 1011.9 |
| 20260905201303 | 36 | 10 | 4.8 | 8.0 | 0.00 | 0.13 | 0.00 | 36 | 1011.9 |
| 20260905201203 | 36 | 30 | 4.8 | 8.0 | 0.00 | 0.13 | 0.00 | 36 | 1011.9 |
| 20260905201124 | 37 | 38 | 4.8 | 8.0 | 0.00 | 0.13 | 0.00 | 36 | 1011.9 |
| 20260905201003 | 37 | 56 | 4.8 | 8.0 | 0.00 | 0.13 | 0.00 | 36 | 1011.9 |
| 20260905200924 | 37 | 63 | 4.8 | 11.3 | 0.00 | 0.13 | 0.00 | 35 | 1011.9 |
| 20260905200803 | 37 | 68 | 4.8 | 12.9 | 0.00 | 0.13 | 0.00 | 36 | 1012.0 |
| 20260905200703 | 36 | 69 | 4.8 | 12.9 | 0.00 | 0.13 | 0.00 | 36 | 1012.0 |
| 20260905200603 | 36 | 69 | 4.8 | 12.9 | 0.00 | 0.13 | 0.00 | 36 | 1012.0 |
| 20260905200525 | 36 | 70 | 4.8 | 12.9 | 0.00 | 0.13 | 0.00 | 36 | 1012.0 |
| 20260905200403 | 36 | 69 | 4.8 | 12.9 | 0.00 | 0.13 | 0.00 | 36 | 1012.1 |
| 20260905200326 | 36 | 69 | 4.8 | 12.9 | 0.00 | 0.13 | 0.00 | 36 | 1012.1 |
| 20260905200203 | 36 | 66 | 6.4 | 12.9 | 0.00 | 0.13 | 0.00 | 36 | 1012.1 |
| 20260905200103 | 36 | 58 | 6.4 | 12.9 | 0.00 | 0.13 | 0.00 | 36 | 1012.1 |
| 20260905200024 | 36 | 55 | 6.4 | 12.9 | 0.00 | 0.13 | 0.00 | 36 | 1012.1 |
| 20260905195903 | 36 | 46 | 4.8 | 12.9 | 0.00 | 0.13 | 0.00 | 36 | 1012.2 |
| 20260905195803 | 36 | 42 | 4.8 | 9.7 | 0.00 | 0.13 | 0.00 | 37 | 1012.2 |
| 20260905195724 | 36 | 40 | 4.8 | 9.7 | 0.00 | 0.13 | 0.00 | 36 | 1012.2 |
| 20260905195624 | 36 | 38 | 4.8 | 11.3 | 0.00 | 0.13 | 0.00 | 36 | 1012.2 |
| 20260905195524 | 36 | 39 | 4.8 | 11.3 | 0.00 | 0.13 | 0.00 | 35 | 1012.3 |
| 20260905195424 | 36 | 40 | 4.8 | 11.3 | 0.00 | 0.13 | 0.00 | 35 | 1012.3 |
| 20260905195324 | 36 | 38 | 4.8 | 11.3 | 0.00 | 0.13 | 0.00 | 35 | 1012.3 |
| 20260905195203 | 36 | 37 | 4.8 | 11.3 | 0.00 | 0.13 | 0.00 | 35 | 1012.3 |
| 20260905195103 | 36 | 46 | 4.8 | 11.3 | 0.00 | 0.13 | 0.00 | 36 | 1012.3 |
| 20260905195004 | 36 | 53 | 4.8 | 11.3 | 0.00 | 0.13 | 0.00 | 36 | 1012.3 |
| 20260905194903 | 36 | 55 | 4.8 | 11.3 | 0.00 | 0.13 | 0.00 | 36 | 1012.3 |
| 20260905194803 | 36 | 55 | 4.8 | 11.3 | 0.00 | 0.13 | 0.00 | 36 | 1012.4 |
| 20260905194703 | 36 | 53 | 4.8 | 11.3 | 0.00 | 0.13 | 0.00 | 36 | 1012.4 |
| 20260905194603 | 36 | 54 | 3.2 | 11.3 | 0.00 | 0.13 | 0.00 | 36 | 1012.3 |
| 20260905194503 | 36 | 52 | 3.2 | 11.3 | 0.00 | 0.13 | 0.00 | 36 | 1012.4 |
| 20260905194403 | 36 | 46 | 3.2 | 11.3 | 0.00 | 0.13 | 0.00 | 36 | 1012.4 |
| 20260905194303 | 36 | 44 | 3.2 | 11.3 | 0.00 | 0.13 | 0.00 | 36 | 1012.4 |
| 20260905194203 | 36 | 41 | 3.2 | 11.3 | 0.00 | 0.13 | 0.00 | 36 | 1012.4 |
| 20260905194124 | 36 | 40 | 3.2 | 11.3 | 0.00 | 0.13 | 0.00 | 36 | 1012.4 |
| 20260905194003 | 36 | 34 | 3.2 | 11.3 | 0.00 | 0.13 | 0.00 | 35 | 1012.4 |
| 20260905193903 | 36 | 34 | 3.2 | 11.3 | 0.00 | 0.13 | 0.00 | 35 | 1012.5 |
| 20260905193803 | 36 | 33 | 4.8 | 11.3 | 0.00 | 0.13 | 0.00 | 36 | 1012.4 |
| 20260905193703 | 36 | 38 | 4.8 | 14.5 | 0.00 | 0.13 | 0.00 | 36 | 1012.4 |
| 20260905193624 | 36 | 39 | 4.8 | 14.5 | 0.00 | 0.13 | 0.00 | 36 | 1012.4 |
| 20260905193504 | 36 | 42 | 4.8 | 14.5 | 0.00 | 0.13 | 0.00 | 36 | 1012.5 |
| 20260905193403 | 36 | 48 | 4.8 | 14.5 | 0.00 | 0.13 | 0.00 | 36 | 1012.5 |
| 20260905193303 | 36 | 49 | 4.8 | 14.5 | 0.00 | 0.13 | 0.00 | 35 | 1012.6 |
| 20260905193203 | 36 | 51 | 4.8 | 14.5 | 0.00 | 0.13 | 0.00 | 36 | 1012.6 |
| 20260905193103 | 36 | 53 | 4.8 | 14.5 | 0.00 | 0.13 | 0.00 | 36 | 1012.6 |
| 20260905193003 | 36 | 59 | 4.8 | 14.5 | 0.00 | 0.13 | 0.00 | 37 | 1012.6 |
| 20260905192924 | 36 | 63 | 4.8 | 14.5 | 0.00 | 0.13 | 0.00 | 36 | 1012.6 |
| 20260905192803 | 36 | 70 | 4.8 | 14.5 | 0.00 | 0.13 | 0.00 | 36 | 1012.6 |
| 20260905192703 | 36 | 70 | 4.8 | 11.3 | 0.00 | 0.13 | 0.00 | 36 | 1012.7 |
| 20260905192603 | 36 | 66 | 4.8 | 11.3 | 0.00 | 0.13 | 0.00 | 36 | 1012.7 |
| 20260905192503 | 36 | 60 | 4.8 | 11.3 | 0.00 | 0.13 | 0.00 | 37 | 1012.7 |
| 20260905192403 | 36 | 48 | 4.8 | 11.3 | 0.00 | 0.13 | 0.00 | 37 | 1012.7 |
| 20260905192324 | 35 | 44 | 4.8 | 11.3 | 0.00 | 0.13 | 0.00 | 37 | 1012.8 |
| 20260905192224 | 35 | 34 | 4.8 | 11.3 | 0.00 | 0.13 | 0.00 | 37 | 1012.8 |
| 20260905192103 | 35 | 9 | 4.8 | 11.3 | 0.00 | 0.13 | 0.00 | 37 | 1012.8 |
| 20260905192024 | 35 | 353 | 4.8 | 11.3 | 0.00 | 0.13 | 0.00 | 37 | 1012.8 |
| 20260905191903 | 35 | 343 | 3.2 | 9.7 | 0.00 | 0.13 | 0.00 | 36 | 1012.8 |
| 20260905191803 | 35 | 342 | 4.8 | 9.7 | 0.00 | 0.13 | 0.00 | 36 | 1012.8 |
| 20260905191703 | 35 | 353 | 4.8 | 11.3 | 0.00 | 0.13 | 0.00 | 36 | 1012.8 |
| 20260905191603 | 35 | 6 | 4.8 | 11.3 | 0.00 | 0.13 | 0.00 | 36 | 1012.8 |
| 20260905191524 | 36 | 16 | 4.8 | 14.5 | 0.00 | 0.13 | 0.00 | 35 | 1012.9 |
| 20260905191403 | 36 | 38 | 4.8 | 14.5 | 0.00 | 0.13 | 0.00 | 35 | 1012.9 |
| 20260905191303 | 36 | 46 | 6.4 | 14.5 | 0.00 | 0.13 | 0.00 | 35 | 1012.9 |
| 20260905191203 | 36 | 49 | 6.4 | 14.5 | 0.00 | 0.13 | 0.00 | 36 | 1012.9 |
| 20260905191103 | 36 | 51 | 6.4 | 14.5 | 0.00 | 0.13 | 0.00 | 36 | 1013.0 |
| 20260905191003 | 35 | 54 | 6.4 | 14.5 | 0.00 | 0.13 | 0.00 | 36 | 1013.0 |
| 20260905190903 | 35 | 53 | 6.4 | 14.5 | 0.00 | 0.13 | 0.00 | 36 | 1013.0 |
| 20260905190803 | 35 | 55 | 6.4 | 14.5 | 0.00 | 0.13 | 0.00 | 36 | 1013.0 |
| 20260905190703 | 35 | 57 | 8.0 | 14.5 | 0.00 | 0.13 | 0.00 | 37 | 1013.0 |
| 20260905190603 | 35 | 57 | 8.0 | 14.5 | 0.00 | 0.13 | 0.00 | 37 | 1013.0 |
| 20260905190503 | 35 | 57 | 8.0 | 16.1 | 0.00 | 0.13 | 0.00 | 36 | 1013.1 |
| 20260905190403 | 35 | 61 | 8.0 | 16.1 | 0.00 | 0.13 | 0.00 | 36 | 1013.0 |
| 20260905190303 | 35 | 66 | 8.0 | 16.1 | 0.00 | 0.13 | 0.00 | 36 | 1013.1 |
| 20260905190224 | 35 | 72 | 8.0 | 16.1 | 0.00 | 0.13 | 0.00 | 36 | 1013.1 |
| 20260905190103 | 35 | 78 | 8.0 | 16.1 | 0.00 | 0.13 | 0.00 | 36 | 1013.1 |
| 20260905190003 | 35 | 80 | 8.0 | 16.1 | 0.00 | 0.13 | 0.00 | 37 | 1013.1 |
| 20260905185903 | 35 | 80 | 8.0 | 16.1 | 0.00 | 0.13 | 0.00 | 37 | 1013.2 |
| 20260905185824 | 35 | 81 | 8.0 | 16.1 | 0.00 | 0.13 | 0.00 | 37 | 1013.1 |
| 20260905185703 | 35 | 84 | 6.4 | 16.1 | 0.00 | 0.13 | 0.00 | 37 | 1013.2 |
| 20260905185603 | 35 | 84 | 6.4 | 16.1 | 0.00 | 0.13 | 0.00 | 37 | 1013.2 |
| 20260905185503 | 35 | 89 | 6.4 | 14.5 | 0.00 | 0.13 | 0.00 | 37 | 1013.2 |
| 20260905185424 | 35 | 85 | 6.4 | 14.5 | 0.00 | 0.13 | 0.00 | 36 | 1013.2 |
| 20260905185305 | 35 | 78 | 4.8 | 14.5 | 0.00 | 0.13 | 0.00 | 36 | 1013.3 |
| 20260905185203 | 35 | 75 | 4.8 | 12.9 | 0.00 | 0.13 | 0.00 | 37 | 1013.3 |
| 20260905185124 | 35 | 73 | 4.8 | 12.9 | 0.00 | 0.13 | 0.00 | 36 | 1013.3 |
| 20260905185024 | 35 | 73 | 4.8 | 12.9 | 0.00 | 0.13 | 0.00 | 36 | 1013.3 |
| 20260905184903 | 35 | 75 | 4.8 | 11.3 | 0.00 | 0.13 | 0.00 | 36 | 1013.3 |
| 20260905184803 | 35 | 67 | 4.8 | 11.3 | 0.00 | 0.13 | 0.00 | 36 | 1013.4 |
| 20260905184703 | 35 | 60 | 4.8 | 11.3 | 0.00 | 0.13 | 0.00 | 37 | 1013.4 |
| 20260905184603 | 35 | 51 | 4.8 | 11.3 | 0.00 | 0.13 | 0.00 | 37 | 1013.4 |
| 20260905184503 | 35 | 45 | 6.4 | 12.9 | 0.00 | 0.13 | 0.00 | 37 | 1013.4 |
| 20260905184403 | 35 | 39 | 6.4 | 12.9 | 0.00 | 0.13 | 0.00 | 36 | 1013.5 |
| 20260905184303 | 35 | 30 | 6.4 | 12.9 | 0.00 | 0.13 | 0.00 | 36 | 1013.5 |
| 20260905184203 | 35 | 26 | 4.8 | 12.9 | 0.00 | 0.13 | 0.00 | 36 | 1013.5 |
| 20260905184104 | 35 | 22 | 4.8 | 12.9 | 0.00 | 0.13 | 0.00 | 36 | 1013.5 |
| 20260905184003 | 35 | 17 | 4.8 | 12.9 | 0.00 | 0.13 | 0.00 | 36 | 1013.5 |
| 20260905183903 | 35 | 3 | 4.8 | 12.9 | 0.00 | 0.13 | 0.00 | 35 | 1013.6 |
| 20260905183824 | 35 | 354 | 4.8 | 12.9 | 0.00 | 0.13 | 0.00 | 35 | 1013.6 |
| 20260905183703 | 35 | 353 | 4.8 | 12.9 | 0.00 | 0.13 | 0.00 | 35 | 1013.6 |
| 20260905183603 | 35 | 355 | 3.2 | 12.9 | 0.00 | 0.13 | 0.00 | 35 | 1013.6 |
| 20260905183503 | 35 | 351 | 3.2 | 9.7 | 0.00 | 0.13 | 0.00 | 35 | 1013.6 |
| 20260905183403 | 35 | 353 | 3.2 | 9.7 | 0.00 | 0.13 | 0.00 | 35 | 1013.6 |
| 20260905183303 | 35 | 7 | 3.2 | 9.7 | 0.00 | 0.13 | 0.00 | 35 | 1013.6 |
| 20260905183203 | 35 | 20 | 3.2 | 9.7 | 0.00 | 0.13 | 0.00 | 35 | 1013.6 |
| 20260905183103 | 35 | 27 | 3.2 | 9.7 | 0.00 | 0.13 | 0.00 | 34 | 1013.6 |
| 20260905183003 | 35 | 36 | 4.8 | 9.7 | 0.00 | 0.13 | 0.00 | 34 | 1013.8 |
| 20260905182903 | 35 | 37 | 4.8 | 14.5 | 0.00 | 0.13 | 0.00 | 34 | 1013.7 |
| 20260905182824 | 35 | 47 | 4.8 | 14.5 | 0.00 | 0.13 | 0.00 | 35 | 1013.7 |
| 20260905182703 | 35 | 45 | 6.4 | 16.1 | 0.00 | 0.13 | 0.00 | 34 | 1013.7 |
| 20260905182603 | 35 | 37 | 6.4 | 16.1 | 0.00 | 0.13 | 0.00 | 35 | 1013.7 |
| 20260905182525 | 35 | 32 | 6.4 | 16.1 | 0.00 | 0.13 | 0.00 | 35 | 1013.8 |
| 20260905182403 | 35 | 23 | 6.4 | 16.1 | 0.00 | 0.13 | 0.00 | 34 | 1013.8 |
| 20260905182305 | 35 | 18 | 4.8 | 16.1 | 0.00 | 0.13 | 0.00 | 34 | 1013.8 |
| 20260905182203 | 35 | 9 | 4.8 | 16.1 | 0.00 | 0.13 | 0.00 | 34 | 1013.8 |
| 20260905182103 | 35 | 4 | 4.8 | 16.1 | 0.00 | 0.13 | 0.00 | 34 | 1013.9 |
| 20260905182024 | 35 | 358 | 4.8 | 16.1 | 0.00 | 0.13 | 0.00 | 34 | 1013.9 |
| 20260905181903 | 35 | 343 | 4.8 | 16.1 | 0.00 | 0.13 | 0.00 | 35 | 1013.9 |
| 20260905181803 | 35 | 330 | 4.8 | 16.1 | 0.00 | 0.13 | 0.00 | 35 | 1013.9 |
| 20260905181703 | 35 | 328 | 4.8 | 11.3 | 0.00 | 0.13 | 0.00 | 35 | 1013.9 |
| 20260905181603 | 35 | 340 | 4.8 | 9.7 | 0.00 | 0.13 | 0.00 | 35 | 1014.0 |
| 20260905181503 | 35 | 352 | 4.8 | 9.7 | 0.00 | 0.13 | 0.00 | 35 | 1014.0 |
| 20260905181403 | 34 | 3 | 4.8 | 9.7 | 0.00 | 0.13 | 0.00 | 35 | 1014.0 |
| 20260905181303 | 34 | 12 | 4.8 | 9.7 | 0.00 | 0.13 | 0.00 | 34 | 1014.0 |
| 20260905181203 | 35 | 20 | 4.8 | 9.7 | 0.00 | 0.13 | 0.00 | 34 | 1014.0 |
| 20260905181124 | 35 | 23 | 4.8 | 9.7 | 0.00 | 0.13 | 0.00 | 34 | 1014.0 |
| 20260905181003 | 35 | 33 | 4.8 | 9.7 | 0.00 | 0.13 | 0.00 | 34 | 1014.1 |
| 20260905180903 | 35 | 40 | 4.8 | 9.7 | 0.00 | 0.13 | 0.00 | 34 | 1014.1 |
| 20260905180803 | 35 | 47 | 4.8 | 9.7 | 0.00 | 0.13 | 0.00 | 33 | 1014.0 |
| 20260905180703 | 34 | 47 | 4.8 | 9.7 | 0.00 | 0.13 | 0.00 | 34 | 1014.1 |
| 20260905180603 | 34 | 47 | 3.2 | 8.0 | 0.00 | 0.13 | 0.00 | 33 | 1014.1 |
| 20260905180524 | 34 | 45 | 3.2 | 8.0 | 0.00 | 0.13 | 0.00 | 33 | 1014.1 |
| 20260905180403 | 34 | 42 | 3.2 | 8.0 | 0.00 | 0.13 | 0.00 | 33 | 1014.2 |
| 20260905180304 | 34 | 39 | 3.2 | 8.0 | 0.00 | 0.13 | 0.00 | 33 | 1014.2 |
| 20260905180224 | 34 | 37 | 3.2 | 8.0 | 0.00 | 0.13 | 0.00 | 33 | 1014.2 |
| 20260905180124 | 34 | 36 | 4.8 | 8.0 | 0.00 | 0.13 | 0.00 | 33 | 1014.2 |
| 20260905180003 | 34 | 31 | 4.8 | 17.7 | 0.00 | 0.13 | 0.00 | 33 | 1014.3 |
| 20260905175924 | 34 | 32 | 4.8 | 17.7 | 0.00 | 0.13 | 0.00 | 33 | 1014.3 |
| 20260905175803 | 34 | 33 | 4.8 | 17.7 | 0.00 | 0.13 | 0.00 | 33 | 1014.3 |
| 20260905175703 | 34 | 33 | 6.4 | 17.7 | 0.00 | 0.13 | 0.00 | 33 | 1014.4 |
| 20260905175603 | 34 | 35 | 6.4 | 17.7 | 0.00 | 0.13 | 0.00 | 33 | 1014.4 |
| 20260905175503 | 34 | 36 | 8.0 | 17.7 | 0.00 | 0.13 | 0.00 | 32 | 1014.4 |
| 20260905175404 | 34 | 37 | 8.0 | 17.7 | 0.00 | 0.13 | 0.00 | 32 | 1014.4 |
| 20260905175306 | 34 | 37 | 8.0 | 17.7 | 0.00 | 0.13 | 0.00 | 32 | 1014.5 |
| 20260905175224 | 34 | 37 | 8.0 | 17.7 | 0.00 | 0.13 | 0.00 | 32 | 1014.5 |
| 20260905175124 | 34 | 36 | 8.0 | 17.7 | 0.00 | 0.13 | 0.00 | 32 | 1014.6 |
| 20260905175003 | 34 | 42 | 8.0 | 16.1 | 0.00 | 0.13 | 0.00 | 32 | 1014.6 |
| 20260905174903 | 34 | 45 | 8.0 | 16.1 | 0.00 | 0.13 | 0.00 | 32 | 1014.6 |
| 20260905174803 | 34 | 47 | 6.4 | 16.1 | 0.00 | 0.13 | 0.00 | 31 | 1014.6 |
| 20260905174703 | 34 | 54 | 6.4 | 16.1 | 0.00 | 0.13 | 0.00 | 31 | 1014.6 |
| 20260905174603 | 34 | 56 | 4.8 | 16.1 | 0.00 | 0.13 | 0.00 | 30 | 1014.6 |
| 20260905174503 | 34 | 64 | 4.8 | 11.3 | 0.00 | 0.13 | 0.00 | 30 | 1014.6 |
| 20260905174403 | 34 | 68 | 4.8 | 11.3 | 0.00 | 0.13 | 0.00 | 30 | 1014.6 |
| 20260905174303 | 34 | 73 | 4.8 | 11.3 | 0.00 | 0.13 | 0.00 | 30 | 1014.7 |
| 20260905174203 | 34 | 79 | 4.8 | 11.3 | 0.00 | 0.13 | 0.00 | 30 | 1014.7 |
| 20260905174103 | 34 | 80 | 4.8 | 11.3 | 0.00 | 0.13 | 0.00 | 30 | 1014.7 |
| 20260905174024 | 33 | 81 | 4.8 | 11.3 | 0.00 | 0.13 | 0.00 | 29 | 1014.7 |
| 20260905173903 | 33 | 81 | 4.8 | 11.3 | 0.00 | 0.13 | 0.00 | 29 | 1014.6 |
| 20260905173803 | 33 | 80 | 4.8 | 12.9 | 0.00 | 0.13 | 0.00 | 29 | 1014.7 |
| 20260905173703 | 33 | 79 | 4.8 | 12.9 | 0.00 | 0.13 | 0.00 | 29 | 1014.8 |
| 20260905173603 | 33 | 78 | 4.8 | 12.9 | 0.00 | 0.13 | 0.00 | 29 | 1014.7 |
| 20260905173503 | 33 | 77 | 4.8 | 12.9 | 0.00 | 0.13 | 0.00 | 29 | 1014.8 |
| 20260905173403 | 33 | 73 | 4.8 | 12.9 | 0.00 | 0.13 | 0.00 | 29 | 1014.8 |
| 20260905173303 | 33 | 54 | 4.8 | 12.9 | 0.00 | 0.13 | 0.00 | 29 | 1014.7 |
| 20260905173203 | 33 | 280 | 4.8 | 12.9 | 0.00 | 0.13 | 0.00 | 29 | 1014.7 |
| 20260905173103 | 33 | 274 | 4.8 | 12.9 | 0.00 | 0.13 | 0.00 | 29 | 1014.7 |
| 20260905173003 | 33 | 280 | 4.8 | 12.9 | 0.00 | 0.13 | 0.00 | 29 | 1014.7 |
| 20260905172924 | 33 | 281 | 4.8 | 12.9 | 0.00 | 0.13 | 0.00 | 29 | 1014.7 |
| 20260905172803 | 33 | 286 | 4.8 | 12.9 | 0.00 | 0.13 | 0.00 | 28 | 1014.7 |
| 20260905172724 | 33 | 321 | 4.8 | 16.1 | 0.00 | 0.13 | 0.00 | 28 | 1014.8 |
| 20260905172603 | 33 | 14 | 6.4 | 16.1 | 0.00 | 0.13 | 0.00 | 27 | 1014.8 |
| 20260905172524 | 33 | 32 | 6.4 | 16.1 | 0.00 | 0.13 | 0.00 | 28 | 1014.8 |
| 20260905172403 | 33 | 46 | 6.4 | 16.1 | 0.00 | 0.13 | 0.00 | 28 | 1014.8 |
| 20260905172305 | 33 | 50 | 6.4 | 16.1 | 0.00 | 0.13 | 0.00 | 27 | 1014.8 |
| 20260905172203 | 33 | 55 | 6.4 | 16.1 | 0.00 | 0.13 | 0.00 | 27 | 1014.9 |
| 20260905172124 | 33 | 58 | 6.4 | 16.1 | 0.00 | 0.13 | 0.00 | 27 | 1014.9 |
| 20260905172003 | 33 | 63 | 8.0 | 16.1 | 0.00 | 0.13 | 0.00 | 27 | 1014.9 |
| 20260905171903 | 32 | 63 | 8.0 | 16.1 | 0.00 | 0.13 | 0.00 | 27 | 1015.0 |
| 20260905171803 | 32 | 63 | 6.4 | 16.1 | 0.00 | 0.13 | 0.00 | 27 | 1014.9 |
| 20260905171703 | 32 | 63 | 6.4 | 16.1 | 0.00 | 0.13 | 0.00 | 26 | 1014.9 |
| 20260905171603 | 32 | 64 | 6.4 | 16.1 | 0.00 | 0.13 | 0.00 | 26 | 1014.9 |
| 20260905171524 | 32 | 64 | 6.4 | 16.1 | 0.00 | 0.13 | 0.00 | 26 | 1014.9 |
| 20260905171403 | 32 | 59 | 6.4 | 12.9 | 0.00 | 0.13 | 0.00 | 26 | 1015.0 |
| 20260905171303 | 32 | 57 | 6.4 | 14.5 | 0.00 | 0.13 | 0.00 | 26 | 1015.0 |
| 20260905171224 | 32 | 54 | 6.4 | 16.1 | 0.00 | 0.13 | 0.00 | 26 | 1015.0 |
| 20260905171103 | 32 | 47 | 8.0 | 16.1 | 0.00 | 0.13 | 0.00 | 25 | 1015.0 |
| 20260905171003 | 32 | 44 | 6.4 | 16.1 | 0.00 | 0.13 | 0.00 | 25 | 1015.1 |
| 20260905170903 | 32 | 43 | 8.0 | 16.1 | 0.00 | 0.13 | 0.00 | 25 | 1015.1 |
| 20260905170803 | 32 | 43 | 6.4 | 16.1 | 0.00 | 0.13 | 0.00 | 25 | 1015.1 |
| 20260905170703 | 32 | 42 | 6.4 | 16.1 | 0.00 | 0.13 | 0.00 | 24 | 1015.1 |
| 20260905170624 | 32 | 43 | 6.4 | 16.1 | 0.00 | 0.13 | 0.00 | 24 | 1015.2 |
| 20260905170503 | 33 | 44 | 6.4 | 16.1 | 0.00 | 0.13 | 0.00 | 24 | 1015.1 |
| 20260905170403 | 33 | 46 | 6.4 | 16.1 | 0.00 | 0.13 | 0.00 | 23 | 1015.1 |
| 20260905170304 | 33 | 46 | 4.8 | 16.1 | 0.00 | 0.13 | 0.00 | 23 | 1015.1 |
| 20260905170203 | 33 | 52 | 4.8 | 16.1 | 0.00 | 0.13 | 0.00 | 23 | 1015.1 |
| 20260905170003 | 33 | 58 | 4.8 | 16.1 | 0.00 | 0.13 | 0.00 | 23 | 1015.2 |
| 20260905165903 | 32 | 61 | 6.4 | 16.1 | 0.00 | 0.13 | 0.00 | 23 | 1015.2 |
| 20260905165803 | 32 | 59 | 6.4 | 16.1 | 0.00 | 0.13 | 0.00 | 22 | 1015.2 |
| 20260905165703 | 32 | 59 | 8.0 | 16.1 | 0.00 | 0.13 | 0.00 | 22 | 1015.2 |
| 20260905165603 | 32 | 56 | 8.0 | 17.7 | 0.00 | 0.13 | 0.00 | 21 | 1015.2 |
| 20260905165524 | 32 | 56 | 8.0 | 17.7 | 0.00 | 0.13 | 0.00 | 22 | 1015.2 |
| 20260905165424 | 32 | 55 | 8.0 | 17.7 | 0.00 | 0.13 | 0.00 | 22 | 1015.3 |
| 20260905165306 | 32 | 52 | 8.0 | 17.7 | 0.00 | 0.13 | 0.00 | 21 | 1015.2 |
| 20260905165224 | 32 | 52 | 6.4 | 17.7 | 0.00 | 0.13 | 0.00 | 21 | 1015.2 |
| 20260905165103 | 32 | 47 | 8.0 | 17.7 | 0.00 | 0.13 | 0.00 | 21 | 1015.2 |
| 20260905165024 | 32 | 44 | 8.0 | 17.7 | 0.00 | 0.13 | 0.00 | 20 | 1015.2 |
| 20260905164903 | 32 | 41 | 8.0 | 17.7 | 0.00 | 0.13 | 0.00 | 20 | 1015.2 |
| 20260905164803 | 32 | 41 | 8.0 | 17.7 | 0.00 | 0.13 | 0.00 | 19 | 1015.2 |
| 20260905164703 | 32 | 41 | 6.4 | 17.7 | 0.00 | 0.13 | 0.00 | 19 | 1015.2 |
| 20260905164603 | 32 | 42 | 6.4 | 16.1 | 0.00 | 0.13 | 0.00 | 19 | 1015.1 |
| 20260905164503 | 32 | 43 | 6.4 | 16.1 | 0.00 | 0.13 | 0.00 | 19 | 1015.2 |
| 20260905164403 | 32 | 44 | 8.0 | 16.1 | 0.00 | 0.13 | 0.00 | 19 | 1015.1 |
| 20260905164324 | 32 | 45 | 8.0 | 16.1 | 0.00 | 0.13 | 0.00 | 19 | 1015.2 |
| 20260905164203 | 32 | 46 | 8.0 | 16.1 | 0.00 | 0.13 | 0.00 | 18 | 1015.2 |
| 20260905164103 | 32 | 47 | 8.0 | 19.3 | 0.00 | 0.13 | 0.00 | 17 | 1015.2 |
| 20260905164003 | 32 | 50 | 8.0 | 19.3 | 0.00 | 0.13 | 0.00 | 16 | 1015.2 |
| 20260905163903 | 32 | 48 | 8.0 | 19.3 | 0.00 | 0.13 | 0.00 | 15 | 1015.2 |
| 20260905163803 | 32 | 48 | 6.4 | 19.3 | 0.00 | 0.13 | 0.00 | 15 | 1015.1 |
| 20260905163724 | 32 | 49 | 6.4 | 19.3 | 0.00 | 0.13 | 0.00 | 15 | 1015.1 |
| 20260905163603 | 32 | 48 | 6.4 | 19.3 | 0.00 | 0.13 | 0.00 | 12 | 1015.1 |
| 20260905163503 | 32 | 48 | 6.4 | 19.3 | 0.00 | 0.13 | 0.00 | 13 | 1015.2 |
| 20260905163403 | 32 | 45 | 6.4 | 19.3 | 0.00 | 0.13 | 0.00 | 13 | 1015.2 |
| 20260905163303 | 32 | 44 | 6.4 | 19.3 | 0.00 | 0.13 | 0.00 | 13 | 1015.1 |
| 20260905163203 | 32 | 45 | 6.4 | 19.3 | 0.00 | 0.13 | 0.00 | 13 | 1015.1 |
| 20260905163103 | 32 | 46 | 4.8 | 14.5 | 0.00 | 0.13 | 0.00 | 12 | 1015.1 |
| 20260905163003 | 32 | 47 | 6.4 | 14.5 | 0.00 | 0.13 | 0.00 | 12 | 1015.1 |
| 20260905162903 | 32 | 53 | 6.4 | 14.5 | 0.00 | 0.13 | 0.00 | 10 | 1015.1 |
| 20260905162803 | 31 | 55 | 6.4 | 14.5 | 0.00 | 0.13 | 0.00 | 9 | 1015.2 |
| 20260905162703 | 31 | 55 | 8.0 | 14.5 | 0.00 | 0.13 | 0.00 | 10 | 1015.1 |
| 20260905162603 | 31 | 56 | 8.0 | 14.5 | 0.00 | 0.13 | 0.00 | 10 | 1015.1 |
| 20260905162503 | 32 | 58 | 8.0 | 14.5 | 0.00 | 0.13 | 0.00 | 11 | 1015.2 |
| 20260905162403 | 32 | 61 | 8.0 | 14.5 | 0.00 | 0.13 | 0.00 | 9 | 1015.1 |
| 20260905162305 | 31 | 62 | 8.0 | 17.7 | 0.00 | 0.13 | 0.00 | 8 | 1015.1 |
| 20260905162203 | 31 | 61 | 8.0 | 17.7 | 0.00 | 0.13 | 0.00 | 8 | 1015.1 |
| 20260905162103 | 31 | 61 | 8.0 | 17.7 | 0.00 | 0.13 | 0.00 | 9 | 1015.1 |
| 20260905162003 | 31 | 61 | 8.0 | 17.7 | 0.00 | 0.13 | 0.00 | 9 | 1015.1 |
| 20260905161903 | 31 | 57 | 8.0 | 17.7 | 0.00 | 0.13 | 0.00 | 8 | 1015.1 |
| 20260905161824 | 31 | 56 | 8.0 | 17.7 | 0.00 | 0.13 | 0.00 | 10 | 1015.1 |
| 20260905161703 | 31 | 54 | 8.0 | 17.7 | 0.00 | 0.13 | 0.00 | 9 | 1015.1 |
| 20260905161603 | 31 | 50 | 8.0 | 19.3 | 0.00 | 0.13 | 0.00 | 10 | 1015.2 |
| 20260905161524 | 31 | 48 | 8.0 | 19.3 | 0.00 | 0.13 | 0.00 | 9 | 1015.2 |
| 20260905161403 | 32 | 44 | 8.0 | 19.3 | 0.00 | 0.13 | 0.00 | 7 | 1015.2 |
| 20260905161303 | 31 | 41 | 8.0 | 19.3 | 0.00 | 0.13 | 0.00 | 8 | 1015.2 |
| 20260905161203 | 31 | 43 | 8.0 | 19.3 | 0.00 | 0.13 | 0.00 | 7 | 1015.2 |
| 20260905161103 | 31 | 43 | 8.0 | 19.3 | 0.00 | 0.13 | 0.00 | 7 | 1015.2 |
| 20260905161003 | 31 | 44 | 9.7 | 19.3 | 0.00 | 0.13 | 0.00 | 7 | 1015.2 |
| 20260905160903 | 31 | 43 | 9.7 | 19.3 | 0.00 | 0.13 | 0.00 | 8 | 1015.2 |
| 20260905160803 | 31 | 39 | 9.7 | 19.3 | 0.00 | 0.13 | 0.00 | 8 | 1015.2 |
| 20260905160703 | 31 | 37 | 9.7 | 19.3 | 0.00 | 0.13 | 0.00 | 8 | 1015.2 |
| 20260905160603 | 31 | 38 | 8.0 | 16.1 | 0.00 | 0.13 | 0.00 | 8 | 1015.2 |
| 20260905160503 | 31 | 39 | 8.0 | 16.1 | 0.00 | 0.13 | 0.00 | 8 | 1015.2 |
| 20260905160403 | 31 | 37 | 8.0 | 14.5 | 0.00 | 0.13 | 0.00 | 6 | 1015.2 |
| 20260905160304 | 31 | 33 | 8.0 | 14.5 | 0.00 | 0.13 | 0.00 | 6 | 1015.3 |
| 20260905160203 | 31 | 31 | 8.0 | 14.5 | 0.00 | 0.13 | 0.00 | 6 | 1015.3 |
| 20260905160003 | 31 | 32 | 8.0 | 16.1 | 0.00 | 0.13 | 0.00 | 5 | 1015.3 |
| 20260905155903 | 31 | 37 | 8.0 | 16.1 | 0.00 | 0.13 | 0.00 | 4 | 1015.2 |
| 20260905155803 | 31 | 41 | 8.0 | 16.1 | 0.00 | 0.13 | 0.00 | 3 | 1015.2 |
| 20260905155703 | 31 | 45 | 8.0 | 16.1 | 0.00 | 0.13 | 0.00 | 1 | 1015.2 |
| 20260905155604 | 31 | 48 | 8.0 | 16.1 | 0.00 | 0.13 | 0.00 | 1 | 1015.2 |
| 20260905155524 | 31 | 46 | 6.4 | 16.1 | 0.00 | 0.13 | 0.00 | 1 | 1015.2 |
| 20260905155403 | 31 | 50 | 6.4 | 16.1 | 0.00 | 0.13 | 0.00 | 1 | 1015.2 |
| 20260905155306 | 31 | 54 | 6.4 | 16.1 | 0.00 | 0.13 | 0.00 | 1 | 1015.2 |
| 20260905155224 | 31 | 55 | 6.4 | 16.1 | 0.00 | 0.13 | 0.00 | 1 | 1015.2 |
| 20260905155103 | 31 | 55 | 4.8 | 14.5 | 0.00 | 0.13 | 0.00 | 1 | 1015.2 |
| 20260905155024 | 31 | 55 | 4.8 | 12.9 | 0.00 | 0.13 | 0.00 | 1 | 1015.2 |
| 20260905154903 | 31 | 51 | 4.8 | 12.9 | 0.00 | 0.13 | 0.00 | 1 | 1015.2 |
| 20260905154803 | 31 | 47 | 4.8 | 12.9 | 0.00 | 0.13 | 0.00 | 1 | 1015.2 |
| 20260905154703 | 31 | 44 | 4.8 | 12.9 | 0.00 | 0.13 | 0.00 | 1 | 1015.2 |
| 20260905154603 | 31 | 42 | 4.8 | 9.7 | 0.00 | 0.13 | 0.00 | 1 | 1015.2 |
| 20260905154503 | 31 | 43 | 4.8 | 14.5 | 0.00 | 0.13 | 0.00 | 1 | 1015.2 |
| 20260905154403 | 31 | 46 | 4.8 | 14.5 | 0.00 | 0.13 | 0.00 | 1 | 1015.2 |
| 20260905154324 | 31 | 46 | 6.4 | 14.5 | 0.00 | 0.13 | 0.00 | 1 | 1015.2 |
| 20260905154203 | 31 | 46 | 6.4 | 14.5 | 0.00 | 0.13 | 0.00 | 1 | 1015.2 |
| 20260905154103 | 30 | 43 | 8.0 | 16.1 | 0.00 | 0.13 | 0.00 | 1 | 1015.2 |
| 20260905154024 | 30 | 43 | 8.0 | 16.1 | 0.00 | 0.13 | 0.00 | 1 | 1015.1 |
| 20260905153903 | 30 | 46 | 9.7 | 16.1 | 0.00 | 0.13 | 0.00 | 1 | 1015.2 |
| 20260905153803 | 30 | 47 | 9.7 | 17.7 | 0.00 | 0.13 | 0.00 | 1 | 1015.2 |
| 20260905153703 | 30 | 47 | 9.7 | 17.7 | 0.00 | 0.13 | 0.00 | 1 | 1015.2 |
| 20260905153624 | 30 | 47 | 9.7 | 17.7 | 0.00 | 0.13 | 0.00 | 1 | 1015.2 |
| 20260905153503 | 30 | 46 | 8.0 | 17.7 | 0.00 | 0.13 | 0.00 | 1 | 1015.2 |
| 20260905153424 | 30 | 44 | 9.7 | 17.7 | 0.00 | 0.13 | 0.00 | 1 | 1015.2 |
| 20260905153324 | 30 | 41 | 9.7 | 17.7 | 0.00 | 0.13 | 0.00 | 1 | 1015.2 |
| 20260905153203 | 30 | 41 | 8.0 | 17.7 | 0.00 | 0.13 | 0.00 | 1 | 1015.2 |
| 20260905153103 | 30 | 45 | 8.0 | 17.7 | 0.00 | 0.13 | 0.00 | 1 | 1015.2 |
| 20260905153003 | 30 | 44 | 8.0 | 17.7 | 0.00 | 0.13 | 0.00 | 1 | 1015.2 |
| 20260905152903 | 30 | 40 | 8.0 | 17.7 | 0.00 | 0.13 | 0.00 | 1 | 1015.2 |
| 20260905152803 | 30 | 38 | 6.4 | 16.1 | 0.00 | 0.13 | 0.00 | 1 | 1015.2 |
| 20260905152703 | 30 | 38 | 8.0 | 16.1 | 0.00 | 0.13 | 0.00 | 1 | 1015.1 |
| 20260905152603 | 30 | 38 | 8.0 | 16.1 | 0.00 | 0.13 | 0.00 | 1 | 1015.1 |
| 20260905152503 | 30 | 39 | 8.0 | 16.1 | 0.00 | 0.13 | 0.00 | 1 | 1015.2 |
| 20260905152403 | 30 | 40 | 8.0 | 17.7 | 0.00 | 0.13 | 0.00 | 1 | 1015.2 |
| 20260905152306 | 30 | 41 | 8.0 | 17.7 | 0.00 | 0.13 | 0.00 | 1 | 1015.2 |
| 20260905152224 | 30 | 39 | 8.0 | 17.7 | 0.00 | 0.13 | 0.00 | 1 | 1015.2 |
| 20260905152124 | 30 | 39 | 8.0 | 17.7 | 0.00 | 0.13 | 0.00 | 1 | 1015.2 |
| 20260905152003 | 30 | 41 | 8.0 | 17.7 | 0.00 | 0.13 | 0.00 | 1 | 1015.2 |
| 20260905151903 | 30 | 42 | 8.0 | 17.7 | 0.00 | 0.13 | 0.00 | 1 | 1015.3 |
| 20260905151803 | 30 | 44 | 8.0 | 17.7 | 0.00 | 0.13 | 0.00 | 1 | 1015.2 |
| 20260905151703 | 30 | 49 | 8.0 | 17.7 | 0.00 | 0.13 | 0.00 | 1 | 1015.2 |
| 20260905151603 | 30 | 53 | 8.0 | 17.7 | 0.00 | 0.13 | 0.00 | 1 | 1015.2 |
| 20260905151503 | 30 | 56 | 8.0 | 17.7 | 0.00 | 0.13 | 0.00 | 1 | 1015.2 |
| 20260905151403 | 30 | 57 | 8.0 | 14.5 | 0.00 | 0.13 | 0.00 | 1 | 1015.2 |
| 20260905151303 | 30 | 58 | 8.0 | 12.9 | 0.00 | 0.13 | 0.00 | 1 | 1015.2 |
| 20260905151203 | 30 | 61 | 8.0 | 12.9 | 0.00 | 0.13 | 0.00 | 1 | 1015.2 |
| 20260905151103 | 30 | 61 | 8.0 | 12.9 | 0.00 | 0.13 | 0.00 | 1 | 1015.2 |
| 20260905151003 | 30 | 60 | 8.0 | 12.9 | 0.00 | 0.13 | 0.00 | 1 | 1015.2 |
| 20260905150903 | 30 | 62 | 8.0 | 14.5 | 0.00 | 0.13 | 0.00 | 1 | 1015.3 |
| 20260905150824 | 30 | 64 | 8.0 | 14.5 | 0.00 | 0.13 | 0.00 | 1 | 1015.3 |
| 20260905150703 | 30 | 61 | 8.0 | 14.5 | 0.00 | 0.13 | 0.00 | 1 | 1015.3 |
| 20260905150603 | 30 | 59 | 8.0 | 14.5 | 0.00 | 0.13 | 0.00 | 1 | 1015.3 |
| 20260905150503 | 30 | 58 | 8.0 | 14.5 | 0.00 | 0.13 | 0.00 | 1 | 1015.2 |
| 20260905150403 | 30 | 60 | 6.4 | 14.5 | 0.00 | 0.13 | 0.00 | 1 | 1015.2 |
| 20260905150303 | 30 | 62 | 6.4 | 14.5 | 0.00 | 0.13 | 0.00 | 1 | 1015.2 |
| 20260905150203 | 30 | 63 | 6.4 | 14.5 | 0.00 | 0.13 | 0.00 | 1 | 1015.2 |
| 20260905150003 | 30 | 67 | 4.8 | 14.5 | 0.00 | 0.13 | 0.00 | 1 | 1015.2 |
| 20260905145903 | 30 | 66 | 4.8 | 14.5 | 0.00 | 0.13 | 0.00 | 1 | 1015.2 |
| 20260905145824 | 30 | 66 | 3.2 | 14.5 | 0.00 | 0.13 | 0.00 | 1 | 1015.2 |
| 20260905145703 | 30 | 66 | 3.2 | 8.0 | 0.00 | 0.13 | 0.00 | 1 | 1015.2 |
| 20260905145603 | 30 | 66 | 3.2 | 8.0 | 0.00 | 0.13 | 0.00 | 1 | 1015.2 |
| 20260905145503 | 30 | 66 | 3.2 | 8.0 | 0.00 | 0.13 | 0.00 | 1 | 1015.2 |
| 20260905145424 | 30 | 64 | 3.2 | 8.0 | 0.00 | 0.13 | 0.00 | 1 | 1015.2 |
| 20260905145306 | 30 | 60 | 3.2 | 9.7 | 0.00 | 0.13 | 0.00 | 1 | 1015.2 |
| 20260905145203 | 30 | 57 | 4.8 | 9.7 | 0.00 | 0.13 | 0.00 | 1 | 1015.2 |
| 20260905145103 | 30 | 53 | 3.2 | 9.7 | 0.00 | 0.13 | 0.00 | 1 | 1015.2 |
| 20260905145003 | 30 | 50 | 3.2 | 9.7 | 0.00 | 0.13 | 0.00 | 1 | 1015.2 |
| 20260905144903 | 29 | 45 | 4.8 | 9.7 | 0.00 | 0.13 | 0.00 | 1 | 1015.2 |
| 20260905144803 | 29 | 42 | 4.8 | 11.3 | 0.00 | 0.13 | 0.00 | 1 | 1015.1 |
| 20260905144703 | 29 | 42 | 4.8 | 11.3 | 0.00 | 0.13 | 0.00 | 1 | 1015.2 |
| 20260905144603 | 29 | 43 | 4.8 | 11.3 | 0.00 | 0.13 | 0.00 | 1 | 1015.1 |
| 20260905144503 | 29 | 42 | 4.8 | 11.3 | 0.00 | 0.13 | 0.00 | 1 | 1015.1 |
| 20260905144403 | 29 | 44 | 4.8 | 11.3 | 0.00 | 0.13 | 0.00 | 1 | 1015.2 |
| 20260905144303 | 29 | 46 | 4.8 | 11.3 | 0.00 | 0.13 | 0.00 | 1 | 1015.2 |
| 20260905144203 | 29 | 48 | 4.8 | 11.3 | 0.00 | 0.13 | 0.00 | 1 | 1015.1 |
| 20260905144103 | 28 | 50 | 4.8 | 11.3 | 0.00 | 0.13 | 0.00 | 1 | 1015.1 |
| 20260905144003 | 28 | 52 | 6.4 | 11.3 | 0.00 | 0.13 | 0.00 | 1 | 1015.1 |
| 20260905143903 | 28 | 56 | 4.8 | 11.3 | 0.00 | 0.13 | 0.00 | 1 | 1015.2 |
| 20260905143803 | 28 | 58 | 4.8 | 8.0 | 0.00 | 0.13 | 0.00 | 1 | 1015.1 |
| 20260905143724 | 28 | 58 | 4.8 | 8.0 | 0.00 | 0.13 | 0.00 | 1 | 1015.2 |
| 20260905143624 | 28 | 58 | 4.8 | 8.0 | 0.00 | 0.13 | 0.00 | 1 | 1015.2 |
| 20260905143524 | 28 | 58 | 3.2 | 8.0 | 0.00 | 0.13 | 0.00 | 1 | 1015.2 |
| 20260905143403 | 28 | 58 | 3.2 | 8.0 | 0.00 | 0.13 | 0.00 | 1 | 1015.2 |
| 20260905143303 | 28 | 59 | 1.6 | 8.0 | 0.00 | 0.13 | 0.00 | 1 | 1015.2 |
| 20260905143203 | 28 | 59 | 1.6 | 8.0 | 0.00 | 0.13 | 0.00 | 1 | 1015.2 |
| 20260905143103 | 28 | 59 | 1.6 | 8.0 | 0.00 | 0.13 | 0.00 | 1 | 1015.2 |
| 20260905143003 | 28 | 59 | 0.0 | 8.0 | 0.00 | 0.13 | 0.00 | 1 | 1015.2 |
| 20260905142903 | 28 | 60 | 0.0 | 6.4 | 0.00 | 0.13 | 0.00 | 1 | 1015.2 |
| 20260905142803 | 28 | 0 | 0.0 | 0.0 | 0.00 | 0.13 | 0.00 | 1 | 1015.2 |
| 20260905142703 | 28 | 0 | 0.0 | 0.0 | 0.00 | 0.13 | 0.00 | 1 | 1015.2 |
| 20260905142624 | 28 | 0 | 0.0 | 0.0 | 0.00 | 0.13 | 0.00 | 1 | 1015.2 |
| 20260905142503 | 28 | 0 | 0.0 | 0.0 | 0.00 | 0.13 | 0.00 | 1 | 1015.2 |
| 20260905142403 | 28 | 0 | 0.0 | 0.0 | 0.00 | 0.13 | 0.00 | 1 | 1015.2 |
| 20260905142306 | 28 | 0 | 0.0 | 0.0 | 0.00 | 0.13 | 0.00 | 1 | 1015.2 |
| 20260905142203 | 28 | 0 | 0.0 | 0.0 | 0.00 | 0.13 | 0.00 | 1 | 1015.2 |
| 20260905142124 | 28 | 0 | 0.0 | 0.0 | 0.00 | 0.13 | 0.00 | 1 | 1015.3 |
| 20260905142024 | 28 | 0 | 0.0 | 0.0 | 0.00 | 0.13 | 0.00 | 1 | 1015.2 |
| 20260905141903 | 28 | 0 | 0.0 | 0.0 | 0.00 | 0.13 | 0.00 | 1 | 1015.2 |
| 20260905141803 | 28 | 0 | 0.0 | 0.0 | 0.00 | 0.13 | 0.00 | 1 | 1015.2 |
| 20260905141703 | 28 | 0 | 0.0 | 0.0 | 0.00 | 0.13 | 0.00 | 1 | 1015.2 |
| 20260905141603 | 28 | 0 | 0.0 | 0.0 | 0.00 | 0.13 | 0.00 | 1 | 1015.2 |
| 20260905141524 | 28 | 0 | 0.0 | 0.0 | 0.00 | 0.13 | 0.00 | 1 | 1015.2 |
| 20260905141403 | 27 | 0 | 0.0 | 0.0 | 0.00 | 0.13 | 0.00 | 1 | 1015.2 |
| 20260905141303 | 27 | 0 | 0.0 | 0.0 | 0.00 | 0.13 | 0.00 | 1 | 1015.2 |
| 20260905141203 | 27 | 0 | 0.0 | 0.0 | 0.00 | 0.13 | 0.00 | 1 | 1015.1 |
| 20260905141103 | 27 | 0 | 0.0 | 0.0 | 0.00 | 0.13 | 0.00 | 1 | 1015.1 |
| 20260905141024 | 27 | 0 | 0.0 | 0.0 | 0.00 | 0.13 | 0.00 | 1 | 1015.1 |
| 20260905140924 | 27 | 0 | 0.0 | 0.0 | 0.00 | 0.13 | 0.00 | 1 | 1015.1 |
| 20260905140803 | 27 | 0 | 0.0 | 0.0 | 0.00 | 0.13 | 0.00 | 1 | 1015.1 |
| 20260905140703 | 27 | 0 | 0.0 | 0.0 | 0.00 | 0.13 | 0.00 | 1 | 1015.1 |
| 20260905140603 | 27 | 0 | 0.0 | 0.0 | 0.00 | 0.13 | 0.00 | 1 | 1015.0 |
| 20260905140503 | 27 | 0 | 0.0 | 0.0 | 0.00 | 0.13 | 0.00 | 1 | 1015.0 |
| 20260905140403 | 28 | 0 | 0.0 | 0.0 | 0.00 | 0.13 | 0.00 | 1 | 1015.0 |
| 20260905140303 | 28 | 0 | 0.0 | 0.0 | 0.00 | 0.13 | 0.00 | 1 | 1015.0 |
| 20260905140203 | 28 | 0 | 0.0 | 0.0 | 0.00 | 0.13 | 0.00 | 1 | 1015.0 |
| 20260905140103 | 28 | 0 | 0.0 | 0.0 | 0.00 | 0.13 | 0.00 | 1 | 1015.0 |
| 20260905140003 | 28 | 0 | 0.0 | 0.0 | 0.00 | 0.13 | 0.00 | 1 | 1015.0 |
| 20260905135903 | 27 | 0 | 0.0 | 0.0 | 0.00 | 0.13 | 0.00 | 1 | 1014.9 |
| 20260905135803 | 27 | 0 | 0.0 | 0.0 | 0.00 | 0.13 | 0.00 | 1 | 1014.9 |
| 20260905135703 | 27 | 0 | 0.0 | 0.0 | 0.00 | 0.13 | 0.00 | 1 | 1014.9 |
| 20260905135603 | 27 | 0 | 0.0 | 0.0 | 0.00 | 0.13 | 0.00 | 1 | 1015.0 |
| 20260905135503 | 27 | 0 | 0.0 | 0.0 | 0.00 | 0.13 | 0.00 | 1 | 1014.9 |
| 20260905135403 | 27 | 0 | 0.0 | 0.0 | 0.00 | 0.13 | 0.00 | 1 | 1014.9 |
| 20260905135306 | 27 | 0 | 0.0 | 0.0 | 0.00 | 0.13 | 0.00 | 1 | 1015.0 |
| 20260905135203 | 27 | 0 | 0.0 | 0.0 | 0.00 | 0.13 | 0.00 | 1 | 1015.0 |
| 20260905135103 | 27 | 0 | 0.0 | 0.0 | 0.00 | 0.13 | 0.00 | 1 | 1014.9 |
| 20260905135003 | 27 | 0 | 0.0 | 0.0 | 0.00 | 0.13 | 0.00 | 1 | 1015.0 |
| 20260905134903 | 27 | 0 | 0.0 | 0.0 | 0.00 | 0.13 | 0.00 | 1 | 1014.9 |
| 20260905134803 | 27 | 0 | 0.0 | 0.0 | 0.00 | 0.13 | 0.00 | 1 | 1015.0 |
| 20260905134703 | 27 | 0 | 0.0 | 0.0 | 0.00 | 0.13 | 0.00 | 1 | 1014.9 |
| 20260905134603 | 27 | 0 | 0.0 | 0.0 | 0.00 | 0.13 | 0.00 | 1 | 1014.9 |
| 20260905134503 | 27 | 0 | 0.0 | 0.0 | 0.00 | 0.13 | 0.00 | 1 | 1014.9 |
| 20260905134403 | 27 | 0 | 0.0 | 0.0 | 0.00 | 0.13 | 0.00 | 1 | 1014.9 |
| 20260905134303 | 27 | 0 | 0.0 | 0.0 | 0.00 | 0.13 | 0.00 | 1 | 1014.9 |
| 20260905134203 | 27 | 0 | 0.0 | 0.0 | 0.00 | 0.13 | 0.00 | 1 | 1014.9 |
| 20260905134103 | 27 | 0 | 0.0 | 0.0 | 0.00 | 0.13 | 0.00 | 1 | 1014.9 |
| 20260905134003 | 27 | 0 | 0.0 | 0.0 | 0.00 | 0.13 | 0.00 | 1 | 1014.9 |
| 20260905133903 | 27 | 0 | 0.0 | 0.0 | 0.00 | 0.13 | 0.00 | 1 | 1014.9 |
| 20260905133824 | 27 | 0 | 0.0 | 0.0 | 0.00 | 0.13 | 0.00 | 1 | 1014.9 |
| 20260905133703 | 27 | 0 | 0.0 | 0.0 | 0.00 | 0.13 | 0.00 | 1 | 1014.9 |
| 20260905133603 | 27 | 0 | 0.0 | 0.0 | 0.00 | 0.13 | 0.00 | 1 | 1014.9 |
| 20260905133503 | 27 | 0 | 0.0 | 0.0 | 0.00 | 0.13 | 0.00 | 1 | 1014.9 |
| 20260905133403 | 27 | 0 | 0.0 | 0.0 | 0.00 | 0.13 | 0.00 | 1 | 1014.9 |
| 20260905133303 | 27 | 0 | 0.0 | 0.0 | 0.00 | 0.13 | 0.00 | 1 | 1014.9 |
| 20260905133203 | 27 | 0 | 0.0 | 0.0 | 0.00 | 0.13 | 0.00 | 1 | 1014.9 |
| 20260905133103 | 27 | 0 | 0.0 | 0.0 | 0.00 | 0.13 | 0.00 | 1 | 1014.8 |
| 20260905133024 | 26 | 0 | 0.0 | 0.0 | 0.00 | 0.13 | 0.00 | 1 | 1014.8 |
| 20260905132903 | 26 | 0 | 0.0 | 0.0 | 0.00 | 0.13 | 0.00 | 1 | 1014.8 |
| 20260905132803 | 26 | 0 | 0.0 | 0.0 | 0.00 | 0.13 | 0.00 | 1 | 1014.8 |
| 20260905132703 | 26 | 0 | 0.0 | 0.0 | 0.00 | 0.13 | 0.00 | 1 | 1014.8 |
| 20260905132603 | 26 | 0 | 0.0 | 0.0 | 0.00 | 0.13 | 0.00 | 1 | 1014.7 |
| 20260905132524 | 26 | 0 | 0.0 | 0.0 | 0.00 | 0.13 | 0.00 | 1 | 1014.7 |
| 20260905132424 | 26 | 0 | 0.0 | 0.0 | 0.00 | 0.13 | 0.00 | 1 | 1014.7 |
| 20260905132305 | 26 | 0 | 0.0 | 0.0 | 0.00 | 0.13 | 0.00 | 1 | 1014.6 |
| 20260905132203 | 26 | 0 | 0.0 | 0.0 | 0.00 | 0.13 | 0.00 | 1 | 1014.6 |
| 20260905132103 | 26 | 0 | 0.0 | 0.0 | 0.00 | 0.13 | 0.00 | 1 | 1014.6 |
| 20260905132003 | 26 | 0 | 0.0 | 0.0 | 0.00 | 0.13 | 0.00 | 1 | 1014.7 |
| 20260905131903 | 26 | 0 | 0.0 | 0.0 | 0.00 | 0.13 | 0.00 | 1 | 1014.6 |
| 20260905131803 | 26 | 0 | 0.0 | 0.0 | 0.00 | 0.13 | 0.00 | 1 | 1014.6 |
| 20260905131724 | 26 | 0 | 0.0 | 0.0 | 0.00 | 0.13 | 0.00 | 1 | 1014.6 |
| 20260905131603 | 26 | 0 | 0.0 | 0.0 | 0.00 | 0.13 | 0.00 | 1 | 1014.6 |
| 20260905131503 | 26 | 0 | 0.0 | 0.0 | 0.00 | 0.13 | 0.00 | 1 | 1014.6 |
| 20260905131403 | 26 | 0 | 0.0 | 0.0 | 0.00 | 0.13 | 0.00 | 1 | 1014.6 |
| 20260905131303 | 26 | 0 | 0.0 | 0.0 | 0.00 | 0.13 | 0.00 | 1 | 1014.6 |
| 20260905131203 | 26 | 0 | 0.0 | 0.0 | 0.00 | 0.13 | 0.00 | 1 | 1014.6 |
| 20260905131103 | 26 | 0 | 0.0 | 0.0 | 0.00 | 0.13 | 0.00 | 1 | 1014.6 |
| 20260905131024 | 26 | 0 | 0.0 | 0.0 | 0.00 | 0.13 | 0.00 | 1 | 1014.5 |
| 20260905130903 | 26 | 0 | 0.0 | 0.0 | 0.00 | 0.13 | 0.00 | 1 | 1014.5 |
| 20260905130803 | 26 | 0 | 0.0 | 0.0 | 0.00 | 0.15 | 0.00 | 1 | 1014.5 |
| 20260905130703 | 26 | 0 | 0.0 | 0.0 | 0.00 | 0.15 | 0.00 | 1 | 1014.5 |
| 20260905130603 | 25 | 0 | 0.0 | 0.0 | 0.00 | 0.15 | 0.00 | 1 | 1014.5 |
| 20260905130524 | 25 | 0 | 0.0 | 0.0 | 0.00 | 0.15 | 0.00 | 1 | 1014.5 |
| 20260905130403 | 25 | 0 | 0.0 | 0.0 | 0.00 | 0.15 | 0.00 | 1 | 1014.5 |
| 20260905130303 | 25 | 0 | 0.0 | 0.0 | 0.00 | 0.15 | 0.00 | 1 | 1014.5 |
| 20260905130203 | 25 | 0 | 0.0 | 0.0 | 0.00 | 0.15 | 0.00 | 1 | 1014.5 |
| 20260905130003 | 25 | 0 | 0.0 | 0.0 | 0.00 | 0.15 | 0.00 | 1 | 1014.5 |
| 20260905125903 | 25 | 0 | 0.0 | 0.0 | 0.00 | 0.15 | 0.00 | 1 | 1014.5 |
| 20260905125825 | 25 | 0 | 0.0 | 0.0 | 0.00 | 0.15 | 0.00 | 1 | 1014.4 |
| 20260905125704 | 25 | 0 | 0.0 | 0.0 | 0.00 | 0.15 | 0.00 | 1 | 1014.5 |
| 20260905125604 | 25 | 0 | 0.0 | 0.0 | 0.00 | 0.15 | 0.00 | 1 | 1014.5 |
| 20260905125504 | 25 | 0 | 0.0 | 0.0 | 0.00 | 0.15 | 0.00 | 1 | 1014.5 |
| 20260905125404 | 24 | 0 | 0.0 | 0.0 | 0.00 | 0.15 | 0.00 | 1 | 1014.5 |
| 20260905125306 | 24 | 0 | 0.0 | 0.0 | 0.00 | 0.15 | 0.00 | 1 | 1014.5 |
| 20260905125204 | 24 | 0 | 0.0 | 0.0 | 0.00 | 0.15 | 0.00 | 1 | 1014.4 |
| 20260905125104 | 24 | 0 | 0.0 | 0.0 | 0.00 | 0.15 | 0.00 | 1 | 1014.4 |
| 20260905125025 | 24 | 0 | 0.0 | 0.0 | 0.00 | 0.15 | 0.00 | 1 | 1014.4 |
| 20260905124904 | 24 | 0 | 0.0 | 0.0 | 0.00 | 0.15 | 0.00 | 1 | 1014.4 |
| 20260905124826 | 24 | 0 | 0.0 | 0.0 | 0.00 | 0.15 | 0.00 | 1 | 1014.4 |
| 20260905124704 | 24 | 0 | 0.0 | 0.0 | 0.00 | 0.15 | 0.00 | 1 | 1014.4 |
| 20260905124604 | 23 | 0 | 0.0 | 0.0 | 0.00 | 0.15 | 0.00 | 1 | 1014.4 |
| 20260905124504 | 23 | 0 | 0.0 | 0.0 | 0.00 | 0.15 | 0.00 | 1 | 1014.4 |
| 20260905124404 | 23 | 0 | 0.0 | 0.0 | 0.00 | 0.15 | 0.00 | 1 | 1014.4 |
| 20260905124304 | 23 | 0 | 0.0 | 0.0 | 0.00 | 0.15 | 0.00 | 1 | 1014.4 |
| 20260905124204 | 23 | 0 | 0.0 | 0.0 | 0.00 | 0.15 | 0.00 | 1 | 1014.4 |
| 20260905124104 | 23 | 0 | 0.0 | 0.0 | 0.00 | 0.15 | 0.00 | 1 | 1014.3 |
| 20260905124004 | 23 | 0 | 0.0 | 0.0 | 0.00 | 0.15 | 0.00 | 1 | 1014.3 |
| 20260905123927 | 23 | 0 | 0.0 | 0.0 | 0.00 | 0.15 | 0.00 | 1 | 1014.3 |
| 20260905123804 | 23 | 0 | 0.0 | 0.0 | 0.00 | 0.15 | 0.00 | 1 | 1014.3 |
| 20260905123725 | 23 | 0 | 0.0 | 0.0 | 0.00 | 0.15 | 0.00 | 1 | 1014.2 |
| 20260905123604 | 23 | 0 | 0.0 | 0.0 | 0.00 | 0.15 | 0.00 | 1 | 1014.3 |
| 20260905123525 | 23 | 0 | 0.0 | 0.0 | 0.00 | 0.15 | 0.00 | 1 | 1014.3 |
| 20260905123404 | 23 | 0 | 0.0 | 0.0 | 0.00 | 0.15 | 0.00 | 1 | 1014.3 |
| 20260905123304 | 23 | 0 | 0.0 | 0.0 | 0.00 | 0.15 | 0.00 | 1 | 1014.2 |
| 20260905123204 | 23 | 0 | 0.0 | 0.0 | 0.00 | 0.15 | 0.00 | 1 | 1014.2 |
| 20260905123104 | 23 | 0 | 0.0 | 0.0 | 0.00 | 0.15 | 0.00 | 1 | 1014.3 |
| 20260905123025 | 23 | 0 | 0.0 | 0.0 | 0.00 | 0.15 | 0.00 | 1 | 1014.2 |
| 20260905122904 | 23 | 0 | 0.0 | 0.0 | 0.00 | 0.15 | 0.00 | 1 | 1014.3 |
| 20260905122804 | 23 | 0 | 0.0 | 0.0 | 0.00 | 0.15 | 0.00 | 1 | 1014.2 |
| 20260905122704 | 23 | 0 | 0.0 | 0.0 | 0.00 | 0.15 | 0.00 | 1 | 1014.2 |
| 20260905122604 | 23 | 0 | 0.0 | 0.0 | 0.00 | 0.15 | 0.00 | 1 | 1014.2 |
| 20260905122525 | 23 | 0 | 0.0 | 0.0 | 0.00 | 0.15 | 0.00 | 1 | 1014.1 |
| 20260905122404 | 23 | 0 | 0.0 | 0.0 | 0.00 | 0.15 | 0.00 | 1 | 1014.1 |
| 20260905122306 | 23 | 0 | 0.0 | 0.0 | 0.00 | 0.15 | 0.00 | 1 | 1014.2 |
| 20260905122204 | 23 | 0 | 0.0 | 0.0 | 0.00 | 0.15 | 0.00 | 1 | 1014.2 |
| 20260905122104 | 23 | 0 | 0.0 | 0.0 | 0.00 | 0.15 | 0.00 | 1 | 1014.1 |
| 20260905122004 | 23 | 0 | 0.0 | 0.0 | 0.00 | 0.15 | 0.00 | 1 | 1014.1 |
| 20260905121904 | 23 | 0 | 0.0 | 0.0 | 0.00 | 0.15 | 0.00 | 1 | 1014.2 |
| 20260905121804 | 23 | 0 | 0.0 | 0.0 | 0.00 | 0.15 | 0.00 | 1 | 1014.2 |
| 20260905121704 | 23 | 0 | 0.0 | 0.0 | 0.00 | 0.15 | 0.00 | 1 | 1014.2 |
| 20260905121604 | 23 | 0 | 0.0 | 0.0 | 0.00 | 0.15 | 0.00 | 1 | 1014.2 |
| 20260905121504 | 23 | 0 | 0.0 | 0.0 | 0.00 | 0.15 | 0.00 | 1 | 1014.2 |
| 20260905121404 | 23 | 0 | 0.0 | 0.0 | 0.00 | 0.15 | 0.00 | 1 | 1014.2 |
| 20260905121304 | 23 | 0 | 0.0 | 0.0 | 0.00 | 0.15 | 0.00 | 1 | 1014.2 |
| 20260905121225 | 23 | 0 | 0.0 | 0.0 | 0.00 | 0.15 | 0.00 | 1 | 1014.1 |
| 20260905121104 | 23 | 0 | 0.0 | 0.0 | 0.00 | 0.15 | 0.00 | 1 | 1014.1 |
| 20260905121004 | 23 | 0 | 0.0 | 0.0 | 0.00 | 0.15 | 0.00 | 1 | 1014.1 |
| 20260905120904 | 23 | 0 | 0.0 | 0.0 | 0.00 | 0.15 | 0.00 | 1 | 1014.1 |
| 20260905120804 | 23 | 0 | 0.0 | 0.0 | 0.00 | 0.15 | 0.00 | 1 | 1014.0 |
| 20260905120704 | 23 | 0 | 0.0 | 0.0 | 0.00 | 0.15 | 0.00 | 1 | 1014.1 |
| 20260905120604 | 23 | 0 | 0.0 | 0.0 | 0.00 | 0.15 | 0.00 | 1 | 1014.1 |
| 20260905120504 | 23 | 0 | 0.0 | 0.0 | 0.00 | 0.15 | 0.00 | 1 | 1014.1 |
| 20260905120404 | 23 | 0 | 0.0 | 0.0 | 0.00 | 0.15 | 0.00 | 1 | 1014.0 |
| 20260905120304 | 23 | 0 | 0.0 | 0.0 | 0.00 | 0.15 | 0.00 | 1 | 1014.0 |
| 20260905120204 | 23 | 0 | 0.0 | 0.0 | 0.00 | 0.15 | 0.00 | 1 | 1014.0 |
| 20260905120104 | 23 | 0 | 0.0 | 0.0 | 0.00 | 0.15 | 0.00 | 1 | 1014.1 |
| 20260905120004 | 23 | 0 | 0.0 | 0.0 | 0.00 | 0.15 | 0.00 | 1 | 1014.1 |
| 20260905115904 | 23 | 0 | 0.0 | 0.0 | 0.00 | 0.15 | 0.00 | 1 | 1014.0 |
| 20260905115825 | 23 | 0 | 0.0 | 0.0 | 0.00 | 0.15 | 0.00 | 1 | 1014.1 |
| 20260905115704 | 23 | 0 | 0.0 | 0.0 | 0.00 | 0.15 | 0.00 | 1 | 1014.0 |
| 20260905115604 | 23 | 0 | 0.0 | 0.0 | 0.00 | 0.15 | 0.00 | 1 | 1014.0 |
| 20260905115525 | 23 | 0 | 0.0 | 0.0 | 0.00 | 0.15 | 0.00 | 1 | 1014.0 |
| 20260905115425 | 23 | 0 | 0.0 | 0.0 | 0.00 | 0.15 | 0.00 | 1 | 1014.0 |
| 20260905115306 | 23 | 0 | 0.0 | 0.0 | 0.00 | 0.15 | 0.00 | 1 | 1013.9 |
| 20260905115204 | 23 | 0 | 0.0 | 0.0 | 0.00 | 0.15 | 0.00 | 1 | 1013.9 |
| 20260905115104 | 23 | 0 | 0.0 | 0.0 | 0.00 | 0.15 | 0.00 | 1 | 1013.9 |
| 20260905115004 | 23 | 0 | 0.0 | 0.0 | 0.00 | 0.15 | 0.00 | 1 | 1013.9 |
| 20260905114904 | 23 | 0 | 0.0 | 0.0 | 0.00 | 0.15 | 0.00 | 1 | 1013.9 |
| 20260905114804 | 23 | 0 | 0.0 | 0.0 | 0.00 | 0.15 | 0.00 | 1 | 1013.8 |
| 20260905114704 | 23 | 0 | 0.0 | 0.0 | 0.00 | 0.15 | 0.00 | 1 | 1013.9 |
| 20260905114604 | 23 | 0 | 0.0 | 0.0 | 0.00 | 0.15 | 0.00 | 1 | 1013.9 |
| 20260905114504 | 23 | 0 | 0.0 | 0.0 | 0.00 | 0.15 | 0.00 | 1 | 1013.8 |
| 20260905114404 | 23 | 0 | 0.0 | 0.0 | 0.00 | 0.15 | 0.00 | 1 | 1013.9 |
| 20260905114304 | 23 | 0 | 0.0 | 0.0 | 0.00 | 0.15 | 0.00 | 1 | 1013.9 |
| 20260905114225 | 23 | 0 | 0.0 | 0.0 | 0.00 | 0.15 | 0.00 | 1 | 1013.8 |
| 20260905114104 | 23 | 0 | 0.0 | 0.0 | 0.00 | 0.15 | 0.00 | 1 | 1013.8 |
| 20260905114004 | 23 | 0 | 0.0 | 0.0 | 0.00 | 0.15 | 0.00 | 1 | 1013.8 |
| 20260905113904 | 23 | 0 | 0.0 | 0.0 | 0.00 | 0.15 | 0.00 | 1 | 1013.8 |
| 20260905113804 | 23 | 0 | 0.0 | 0.0 | 0.00 | 0.15 | 0.00 | 1 | 1013.8 |
| 20260905113704 | 23 | 0 | 0.0 | 0.0 | 0.00 | 0.15 | 0.00 | 1 | 1013.8 |
| 20260905113604 | 23 | 0 | 0.0 | 0.0 | 0.00 | 0.15 | 0.00 | 1 | 1013.8 |
| 20260905113504 | 23 | 0 | 0.0 | 0.0 | 0.00 | 0.15 | 0.00 | 1 | 1013.8 |
| 20260905113404 | 23 | 0 | 0.0 | 0.0 | 0.00 | 0.15 | 0.00 | 1 | 1013.8 |
| 20260905113304 | 23 | 0 | 0.0 | 0.0 | 0.00 | 0.15 | 0.00 | 1 | 1013.8 |
| 20260905113225 | 23 | 0 | 0.0 | 0.0 | 0.00 | 0.15 | 0.00 | 1 | 1013.8 |
| 20260905113104 | 23 | 0 | 0.0 | 0.0 | 0.00 | 0.15 | 0.00 | 1 | 1013.8 |
| 20260905113025 | 23 | 0 | 0.0 | 0.0 | 0.00 | 0.15 | 0.00 | 1 | 1013.8 |
| 20260905112925 | 23 | 0 | 0.0 | 0.0 | 0.00 | 0.15 | 0.00 | 1 | 1013.8 |
| 20260905112804 | 23 | 0 | 0.0 | 0.0 | 0.00 | 0.15 | 0.00 | 1 | 1013.8 |
| 20260905112704 | 23 | 0 | 0.0 | 0.0 | 0.00 | 0.15 | 0.00 | 1 | 1013.8 |
| 20260905112604 | 23 | 0 | 0.0 | 0.0 | 0.00 | 0.15 | 0.00 | 1 | 1013.8 |
| 20260905112504 | 23 | 0 | 0.0 | 0.0 | 0.00 | 0.15 | 0.00 | 1 | 1013.8 |
| 20260905112404 | 23 | 0 | 0.0 | 0.0 | 0.00 | 0.15 | 0.00 | 1 | 1013.8 |
| 20260905112325 | 23 | 0 | 0.0 | 0.0 | 0.00 | 0.15 | 0.00 | 1 | 1013.8 |
| 20260905112205 | 23 | 0 | 0.0 | 0.0 | 0.00 | 0.15 | 0.00 | 1 | 1013.8 |
| 20260905112104 | 23 | 0 | 0.0 | 0.0 | 0.00 | 0.15 | 0.00 | 1 | 1013.8 |
| 20260905112006 | 23 | 0 | 0.0 | 0.0 | 0.00 | 0.15 | 0.00 | 1 | 1013.8 |
| 20260905111906 | 23 | 0 | 0.0 | 0.0 | 0.00 | 0.15 | 0.00 | 1 | 1013.8 |
| 20260905111804 | 23 | 0 | 0.0 | 0.0 | 0.00 | 0.15 | 0.00 | 1 | 1013.8 |
| 20260905111725 | 23 | 0 | 0.0 | 0.0 | 0.00 | 0.15 | 0.00 | 1 | 1013.7 |
| 20260905111604 | 23 | 0 | 0.0 | 0.0 | 0.00 | 0.15 | 0.00 | 1 | 1013.8 |
| 20260905111504 | 23 | 0 | 0.0 | 0.0 | 0.00 | 0.15 | 0.00 | 1 | 1013.7 |
| 20260905111404 | 23 | 0 | 0.0 | 0.0 | 0.00 | 0.15 | 0.00 | 1 | 1013.7 |
| 20260905111304 | 23 | 0 | 0.0 | 0.0 | 0.00 | 0.15 | 0.00 | 1 | 1013.7 |
| 20260905111204 | 23 | 0 | 0.0 | 0.0 | 0.00 | 0.15 | 0.00 | 1 | 1013.8 |
| 20260905111104 | 23 | 0 | 0.0 | 0.0 | 0.00 | 0.15 | 0.00 | 1 | 1013.8 |
| 20260905111004 | 23 | 51 | 0.0 | 1.6 | 0.00 | 0.15 | 0.00 | 1 | 1013.7 |
| 20260905110904 | 23 | 51 | 0.0 | 1.6 | 0.00 | 0.15 | 0.00 | 1 | 1013.8 |
| 20260905110804 | 23 | 51 | 0.0 | 1.6 | 0.00 | 0.15 | 0.00 | 1 | 1013.8 |
| 20260905110725 | 23 | 51 | 0.0 | 1.6 | 0.00 | 0.15 | 0.00 | 1 | 1013.8 |
| 20260905110625 | 23 | 51 | 0.0 | 1.6 | 0.00 | 0.15 | 0.00 | 1 | 1013.7 |
| 20260905110525 | 23 | 51 | 0.0 | 1.6 | 0.00 | 0.15 | 0.00 | 1 | 1013.8 |
| 20260905110404 | 23 | 51 | 0.0 | 1.6 | 0.00 | 0.15 | 0.00 | 1 | 1013.7 |
| 20260905110304 | 23 | 51 | 0.0 | 1.6 | 0.00 | 0.15 | 0.00 | 1 | 1013.7 |
| 20260905110204 | 23 | 51 | 0.0 | 1.6 | 0.00 | 0.15 | 0.00 | 1 | 1013.8 |
| 20260905110104 | 23 | 51 | 0.0 | 1.6 | 0.00 | 0.15 | 0.00 | 1 | 1013.8 |
| 20260905110004 | 23 | 51 | 0.0 | 1.6 | 0.00 | 0.15 | 0.00 | 1 | 1013.7 |
| 20260905105904 | 23 | 51 | 0.0 | 1.6 | 0.00 | 0.15 | 0.00 | 1 | 1013.8 |
| 20260905105804 | 23 | 51 | 0.0 | 1.6 | 0.00 | 0.15 | 0.00 | 1 | 1013.7 |
| 20260905105704 | 23 | 51 | 0.0 | 1.6 | 0.00 | 0.15 | 0.00 | 1 | 1013.8 |
| 20260905105604 | 23 | 51 | 0.0 | 1.6 | 0.00 | 0.15 | 0.00 | 1 | 1013.7 |
| 20260905105525 | 23 | 51 | 0.0 | 1.6 | 0.00 | 0.15 | 0.00 | 1 | 1013.7 |
| 20260905105404 | 23 | 51 | 0.0 | 1.6 | 0.00 | 0.15 | 0.00 | 1 | 1013.7 |
| 20260905105306 | 23 | 0 | 0.0 | 1.6 | 0.00 | 0.15 | 0.00 | 1 | 1013.6 |
| 20260905105204 | 23 | 0 | 0.0 | 1.6 | 0.00 | 0.15 | 0.00 | 1 | 1013.7 |
| 20260905105104 | 23 | 0 | 0.0 | 1.6 | 0.00 | 0.15 | 0.00 | 1 | 1013.7 |
| 20260905105004 | 23 | 0 | 0.0 | 1.6 | 0.00 | 0.15 | 0.00 | 1 | 1013.7 |
| 20260905104925 | 23 | 0 | 0.0 | 1.6 | 0.00 | 0.15 | 0.00 | 1 | 1013.7 |
| 20260905104804 | 23 | 0 | 0.0 | 0.0 | 0.00 | 0.15 | 0.00 | 1 | 1013.6 |
| 20260905104704 | 23 | 0 | 0.0 | 0.0 | 0.00 | 0.15 | 0.00 | 1 | 1013.7 |
| 20260905104604 | 23 | 0 | 0.0 | 0.0 | 0.00 | 0.15 | 0.00 | 1 | 1013.7 |
| 20260905104504 | 23 | 0 | 0.0 | 0.0 | 0.00 | 0.15 | 0.00 | 1 | 1013.6 |
| 20260905104404 | 23 | 51 | 0.0 | 1.6 | 0.00 | 0.15 | 0.00 | 1 | 1013.7 |
| 20260905104304 | 23 | 51 | 0.0 | 1.6 | 0.00 | 0.15 | 0.00 | 1 | 1013.6 |
| 20260905104227 | 23 | 51 | 0.0 | 1.6 | 0.00 | 0.15 | 0.00 | 1 | 1013.6 |
| 20260905104104 | 23 | 51 | 0.0 | 1.6 | 0.00 | 0.15 | 0.00 | 1 | 1013.6 |
| 20260905104004 | 23 | 51 | 0.0 | 1.6 | 0.00 | 0.15 | 0.00 | 1 | 1013.6 |
| 20260905103904 | 23 | 51 | 0.0 | 1.6 | 0.00 | 0.15 | 0.00 | 1 | 1013.6 |
| 20260905103804 | 23 | 51 | 0.0 | 1.6 | 0.00 | 0.15 | 0.00 | 1 | 1013.6 |
| 20260905103725 | 23 | 51 | 0.0 | 1.6 | 0.00 | 0.15 | 0.00 | 1 | 1013.7 |
| 20260905103625 | 23 | 51 | 0.0 | 1.6 | 0.00 | 0.15 | 0.00 | 1 | 1013.6 |
| 20260905103504 | 23 | 51 | 0.0 | 1.6 | 0.00 | 0.15 | 0.00 | 1 | 1013.7 |
| 20260905103404 | 23 | 51 | 0.0 | 1.6 | 0.00 | 0.15 | 0.00 | 1 | 1013.6 |
| 20260905103304 | 23 | 51 | 0.0 | 1.6 | 0.00 | 0.15 | 0.00 | 1 | 1013.6 |
| 20260905103204 | 23 | 51 | 0.0 | 1.6 | 0.00 | 0.15 | 0.00 | 1 | 1013.6 |
| 20260905103104 | 23 | 51 | 0.0 | 1.6 | 0.00 | 0.15 | 0.00 | 1 | 1013.6 |
| 20260905103004 | 23 | 51 | 0.0 | 1.6 | 0.00 | 0.15 | 0.00 | 1 | 1013.7 |
| 20260905102904 | 23 | 51 | 0.0 | 1.6 | 0.00 | 0.15 | 0.00 | 1 | 1013.6 |
| 20260905102804 | 23 | 51 | 0.0 | 1.6 | 0.00 | 0.15 | 0.00 | 1 | 1013.7 |
| 20260905102704 | 23 | 51 | 0.0 | 1.6 | 0.00 | 0.15 | 0.00 | 1 | 1013.6 |
| 20260905102604 | 23 | 0 | 0.0 | 0.0 | 0.00 | 0.15 | 0.00 | 1 | 1013.6 |
| 20260905102504 | 23 | 0 | 0.0 | 0.0 | 0.00 | 0.15 | 0.00 | 1 | 1013.6 |
| 20260905102425 | 23 | 0 | 0.0 | 0.0 | 0.00 | 0.15 | 0.00 | 1 | 1013.6 |
| 20260905102306 | 23 | 0 | 0.0 | 1.6 | 0.00 | 0.15 | 0.00 | 1 | 1013.6 |
| 20260905102204 | 23 | 0 | 0.0 | 1.6 | 0.00 | 0.15 | 0.00 | 1 | 1013.7 |
| 20260905102104 | 23 | 0 | 0.0 | 1.6 | 0.00 | 0.15 | 0.00 | 1 | 1013.6 |
| 20260905102025 | 23 | 0 | 0.0 | 1.6 | 0.00 | 0.15 | 0.00 | 1 | 1013.6 |
| 20260905101925 | 23 | 0 | 0.0 | 1.6 | 0.00 | 0.15 | 0.00 | 1 | 1013.6 |
| 20260905101804 | 23 | 0 | 0.0 | 1.6 | 0.00 | 0.15 | 0.00 | 1 | 1013.6 |
| 20260905101704 | 23 | 0 | 0.0 | 1.6 | 0.00 | 0.15 | 0.00 | 1 | 1013.6 |
| 20260905101604 | 23 | 0 | 0.0 | 1.6 | 0.00 | 0.15 | 0.00 | 1 | 1013.6 |
| 20260905101504 | 23 | 0 | 0.0 | 1.6 | 0.00 | 0.15 | 0.00 | 1 | 1013.6 |
| 20260905101404 | 23 | 0 | 0.0 | 1.6 | 0.00 | 0.15 | 0.00 | 1 | 1013.6 |
| 20260905101304 | 23 | 0 | 0.0 | 0.0 | 0.00 | 0.15 | 0.00 | 1 | 1013.6 |
| 20260905101204 | 23 | 0 | 0.0 | 0.0 | 0.00 | 0.15 | 0.00 | 1 | 1013.6 |
| 20260905101104 | 23 | 0 | 0.0 | 0.0 | 0.00 | 0.15 | 0.00 | 1 | 1013.6 |
| 20260905101004 | 23 | 0 | 0.0 | 0.0 | 0.00 | 0.15 | 0.00 | 1 | 1013.6 |
| 20260905100925 | 23 | 0 | 0.0 | 0.0 | 0.00 | 0.15 | 0.00 | 1 | 1013.6 |
| 20260905100825 | 23 | 0 | 0.0 | 0.0 | 0.00 | 0.15 | 0.00 | 1 | 1013.6 |
| 20260905100725 | 23 | 0 | 0.0 | 0.0 | 0.00 | 0.15 | 0.00 | 1 | 1013.6 |
| 20260905100625 | 23 | 0 | 0.0 | 0.0 | 0.00 | 0.15 | 0.00 | 1 | 1013.6 |
| 20260905100504 | 23 | 0 | 0.0 | 0.0 | 0.00 | 0.15 | 0.00 | 1 | 1013.6 |
| 20260905100404 | 23 | 51 | 0.0 | 1.6 | 0.00 | 0.15 | 0.00 | 1 | 1013.6 |
| 20260905100304 | 23 | 51 | 0.0 | 1.6 | 0.00 | 0.15 | 0.00 | 1 | 1013.6 |
| 20260905100204 | 23 | 51 | 0.0 | 1.6 | 0.00 | 0.15 | 0.00 | 1 | 1013.5 |
| 20260905100104 | 23 | 51 | 0.0 | 1.6 | 0.00 | 0.15 | 0.00 | 1 | 1013.6 |
| 20260905100004 | 23 | 51 | 0.0 | 1.6 | 0.00 | 0.15 | 0.00 | 1 | 1013.6 |
| 20260905095904 | 23 | 51 | 0.0 | 1.6 | 0.00 | 0.15 | 0.00 | 1 | 1013.6 |
| 20260905095804 | 23 | 51 | 0.0 | 1.6 | 0.00 | 0.15 | 0.00 | 1 | 1013.6 |
| 20260905095704 | 23 | 51 | 0.0 | 1.6 | 0.00 | 0.15 | 0.00 | 1 | 1013.6 |
| 20260905095604 | 23 | 51 | 1.6 | 1.6 | 0.00 | 0.15 | 0.00 | 1 | 1013.6 |
| 20260905095504 | 23 | 51 | 1.6 | 1.6 | 0.00 | 0.15 | 0.00 | 1 | 1013.6 |
| 20260905095404 | 23 | 51 | 1.6 | 1.6 | 0.00 | 0.15 | 0.00 | 1 | 1013.6 |
| 20260905095306 | 23 | 51 | 1.6 | 1.6 | 0.00 | 0.15 | 0.00 | 1 | 1013.7 |
| 20260905095225 | 23 | 51 | 0.0 | 1.6 | 0.00 | 0.15 | 0.00 | 1 | 1013.6 |
| 20260905095125 | 23 | 51 | 0.0 | 1.6 | 0.00 | 0.15 | 0.00 | 1 | 1013.6 |
| 20260905095004 | 23 | 51 | 0.0 | 1.6 | 0.00 | 0.15 | 0.00 | 1 | 1013.6 |
| 20260905094904 | 23 | 51 | 0.0 | 1.6 | 0.00 | 0.15 | 0.00 | 1 | 1013.5 |
| 20260905094804 | 23 | 51 | 0.0 | 1.6 | 0.00 | 0.15 | 0.00 | 1 | 1013.5 |
| 20260905094725 | 23 | 51 | 0.0 | 1.6 | 0.00 | 0.15 | 0.00 | 1 | 1013.6 |
| 20260905094604 | 24 | 51 | 0.0 | 1.6 | 0.00 | 0.15 | 0.00 | 1 | 1013.5 |
| 20260905094504 | 24 | 0 | 0.0 | 0.0 | 0.00 | 0.15 | 0.00 | 1 | 1013.5 |
| 20260905094404 | 24 | 0 | 0.0 | 1.6 | 0.00 | 0.15 | 0.00 | 1 | 1013.5 |
| 20260905094304 | 24 | 0 | 0.0 | 1.6 | 0.00 | 0.15 | 0.00 | 1 | 1013.5 |
| 20260905094204 | 24 | 0 | 0.0 | 1.6 | 0.00 | 0.15 | 0.00 | 1 | 1013.4 |
| 20260905094104 | 24 | 0 | 0.0 | 1.6 | 0.00 | 0.15 | 0.00 | 1 | 1013.4 |
| 20260905094004 | 24 | 0 | 0.0 | 1.6 | 0.00 | 0.15 | 0.00 | 1 | 1013.5 |
| 20260905093904 | 24 | 0 | 0.0 | 1.6 | 0.00 | 0.15 | 0.00 | 1 | 1013.4 |
| 20260905093825 | 24 | 0 | 0.0 | 1.6 | 0.00 | 0.15 | 0.00 | 1 | 1013.4 |
| 20260905093704 | 24 | 0 | 0.0 | 1.6 | 0.00 | 0.15 | 0.00 | 1 | 1013.4 |
| 20260905093604 | 24 | 0 | 0.0 | 1.6 | 0.00 | 0.15 | 0.00 | 1 | 1013.4 |
| 20260905093504 | 24 | 0 | 0.0 | 1.6 | 0.00 | 0.15 | 0.00 | 1 | 1013.4 |
| 20260905093404 | 24 | 51 | 0.0 | 1.6 | 0.00 | 0.15 | 0.00 | 1 | 1013.3 |
| 20260905093304 | 24 | 51 | 0.0 | 1.6 | 0.00 | 0.15 | 0.00 | 1 | 1013.4 |
| 20260905093204 | 24 | 51 | 0.0 | 1.6 | 0.00 | 0.15 | 0.00 | 1 | 1013.4 |
| 20260905093104 | 24 | 51 | 0.0 | 1.6 | 0.00 | 0.15 | 0.00 | 1 | 1013.4 |
| 20260905093004 | 24 | 51 | 0.0 | 1.6 | 0.00 | 0.15 | 0.00 | 1 | 1013.3 |
| 20260905092904 | 24 | 51 | 0.0 | 1.6 | 0.00 | 0.15 | 0.00 | 1 | 1013.4 |
| 20260905092804 | 24 | 51 | 0.0 | 1.6 | 0.00 | 0.15 | 0.00 | 1 | 1013.4 |
| 20260905092704 | 24 | 51 | 0.0 | 1.6 | 0.00 | 0.15 | 0.00 | 1 | 1013.4 |
| 20260905092604 | 24 | 51 | 0.0 | 1.6 | 0.00 | 0.15 | 0.00 | 1 | 1013.4 |
| 20260905092504 | 24 | 51 | 0.0 | 1.6 | 0.00 | 0.15 | 0.00 | 1 | 1013.4 |
| 20260905092404 | 24 | 51 | 0.0 | 1.6 | 0.00 | 0.15 | 0.00 | 1 | 1013.5 |
| 20260905092306 | 24 | 51 | 0.0 | 1.6 | 0.00 | 0.15 | 0.00 | 1 | 1013.4 |
| 20260905092204 | 24 | 51 | 0.0 | 1.6 | 0.00 | 0.15 | 0.00 | 1 | 1013.4 |
| 20260905092104 | 24 | 51 | 0.0 | 1.6 | 0.00 | 0.15 | 0.00 | 1 | 1013.5 |
| 20260905092004 | 24 | 51 | 0.0 | 1.6 | 0.00 | 0.15 | 0.00 | 1 | 1013.5 |
| 20260905091904 | 24 | 51 | 0.0 | 1.6 | 0.00 | 0.15 | 0.00 | 1 | 1013.5 |
| 20260905091804 | 25 | 51 | 0.0 | 1.6 | 0.00 | 0.15 | 0.00 | 1 | 1013.5 |
| 20260905091704 | 25 | 51 | 0.0 | 1.6 | 0.00 | 0.15 | 0.00 | 1 | 1013.6 |
| 20260905091604 | 25 | 51 | 0.0 | 1.6 | 0.00 | 0.15 | 0.00 | 1 | 1013.6 |
| 20260905091525 | 25 | 51 | 0.0 | 1.6 | 0.00 | 0.15 | 0.00 | 1 | 1013.6 |
| 20260905091425 | 25 | 51 | 0.0 | 1.6 | 0.00 | 0.15 | 0.00 | 1 | 1013.7 |
| 20260905091325 | 25 | 51 | 0.0 | 1.6 | 0.00 | 0.15 | 0.00 | 1 | 1013.6 |
| 20260905091204 | 25 | 51 | 0.0 | 1.6 | 0.00 | 0.15 | 0.00 | 1 | 1013.6 |
| 20260905091104 | 25 | 51 | 0.0 | 1.6 | 0.00 | 0.15 | 0.00 | 1 | 1013.6 |
| 20260905091004 | 25 | 51 | 0.0 | 1.6 | 0.00 | 0.15 | 0.00 | 1 | 1013.7 |
| 20260905090904 | 25 | 51 | 0.0 | 1.6 | 0.00 | 0.15 | 0.00 | 1 | 1013.7 |
| 20260905090804 | 25 | 51 | 0.0 | 1.6 | 0.00 | 0.15 | 0.00 | 1 | 1013.7 |
| 20260905090704 | 25 | 51 | 0.0 | 3.2 | 0.00 | 0.15 | 0.00 | 1 | 1013.6 |
| 20260905090604 | 25 | 51 | 0.0 | 3.2 | 0.00 | 0.15 | 0.00 | 1 | 1013.7 |
| 20260905090504 | 25 | 51 | 0.0 | 3.2 | 0.00 | 0.15 | 0.00 | 1 | 1013.7 |
| 20260905090404 | 25 | 51 | 1.6 | 3.2 | 0.00 | 0.15 | 0.00 | 1 | 1013.6 |
| 20260905090304 | 25 | 51 | 1.6 | 3.2 | 0.00 | 0.15 | 0.00 | 1 | 1013.7 |
| 20260905090206 | 25 | 51 | 1.6 | 3.2 | 0.00 | 0.15 | 0.00 | 1 | 1013.7 |
| 20260905090104 | 25 | 51 | 1.6 | 3.2 | 0.00 | 0.15 | 0.00 | 1 | 1013.7 |
| 20260905090004 | 25 | 51 | 1.6 | 3.2 | 0.00 | 0.15 | 0.00 | 1 | 1013.7 |
| 20260905085904 | 25 | 51 | 1.6 | 3.2 | 0.00 | 0.15 | 0.00 | 1 | 1013.8 |
| 20260905085804 | 25 | 51 | 1.6 | 3.2 | 0.00 | 0.15 | 0.00 | 1 | 1013.7 |
| 20260905085725 | 25 | 51 | 1.6 | 3.2 | 0.00 | 0.15 | 0.00 | 1 | 1013.7 |
| 20260905085604 | 25 | 51 | 1.6 | 3.2 | 0.00 | 0.15 | 0.00 | 1 | 1013.7 |
| 20260905085504 | 25 | 51 | 1.6 | 3.2 | 0.00 | 0.15 | 0.00 | 1 | 1013.7 |
| 20260905085404 | 25 | 51 | 1.6 | 3.2 | 0.00 | 0.15 | 0.00 | 1 | 1013.7 |
| 20260905085325 | 25 | 51 | 1.6 | 3.2 | 0.00 | 0.15 | 0.00 | 1 | 1013.7 |
| 20260905085204 | 25 | 51 | 1.6 | 3.2 | 0.00 | 0.15 | 0.00 | 1 | 1013.7 |
| 20260905085104 | 25 | 51 | 1.6 | 4.8 | 0.00 | 0.15 | 0.00 | 1 | 1013.6 |
| 20260905085004 | 25 | 51 | 1.6 | 4.8 | 0.00 | 0.15 | 0.00 | 1 | 1013.7 |
| 20260905084904 | 25 | 51 | 1.6 | 4.8 | 0.00 | 0.15 | 0.00 | 1 | 1013.7 |
| 20260905084804 | 25 | 51 | 1.6 | 4.8 | 0.00 | 0.15 | 0.00 | 1 | 1013.7 |
| 20260905084704 | 25 | 51 | 1.6 | 4.8 | 0.00 | 0.15 | 0.00 | 1 | 1013.8 |
| 20260905084604 | 25 | 51 | 1.6 | 4.8 | 0.00 | 0.15 | 0.00 | 1 | 1013.8 |
| 20260905084504 | 25 | 51 | 3.2 | 4.8 | 0.00 | 0.15 | 0.00 | 1 | 1013.8 |
| 20260905084404 | 25 | 51 | 3.2 | 4.8 | 0.00 | 0.15 | 0.00 | 1 | 1013.8 |
| 20260905084304 | 25 | 51 | 3.2 | 4.8 | 0.00 | 0.15 | 0.00 | 1 | 1013.8 |
| 20260905084204 | 25 | 51 | 3.2 | 6.4 | 0.00 | 0.15 | 0.00 | 1 | 1013.8 |
| 20260905084104 | 25 | 50 | 3.2 | 6.4 | 0.00 | 0.15 | 0.00 | 1 | 1013.8 |
| 20260905084025 | 25 | 50 | 3.2 | 6.4 | 0.00 | 0.15 | 0.00 | 1 | 1013.8 |
| 20260905083925 | 25 | 50 | 3.2 | 6.4 | 0.00 | 0.15 | 0.00 | 1 | 1013.8 |
| 20260905083804 | 25 | 50 | 3.2 | 6.4 | 0.00 | 0.15 | 0.00 | 1 | 1013.8 |
| 20260905083704 | 25 | 50 | 3.2 | 6.4 | 0.00 | 0.15 | 0.00 | 1 | 1013.8 |
| 20260905083604 | 25 | 50 | 3.2 | 8.0 | 0.00 | 0.15 | 0.00 | 1 | 1013.7 |
| 20260905083504 | 25 | 50 | 3.2 | 8.0 | 0.00 | 0.15 | 0.00 | 1 | 1013.7 |
| 20260905083425 | 25 | 49 | 3.2 | 8.0 | 0.00 | 0.15 | 0.00 | 1 | 1013.8 |
| 20260905083304 | 25 | 49 | 3.2 | 8.0 | 0.00 | 0.15 | 0.00 | 1 | 1013.7 |
| 20260905083204 | 25 | 49 | 3.2 | 8.0 | 0.00 | 0.15 | 0.00 | 1 | 1013.7 |
| 20260905083125 | 25 | 49 | 3.2 | 8.0 | 0.00 | 0.15 | 0.00 | 1 | 1013.7 |
| 20260905083004 | 25 | 49 | 3.2 | 8.0 | 0.00 | 0.15 | 0.00 | 1 | 1013.7 |
| 20260905082904 | 25 | 49 | 3.2 | 8.0 | 0.00 | 0.15 | 0.00 | 1 | 1013.7 |
| 20260905082804 | 25 | 49 | 3.2 | 8.0 | 0.00 | 0.15 | 0.00 | 1 | 1013.7 |
| 20260905082704 | 25 | 49 | 3.2 | 8.0 | 0.00 | 0.15 | 0.00 | 1 | 1013.7 |
| 20260905082604 | 25 | 49 | 4.8 | 9.7 | 0.00 | 0.15 | 0.00 | 1 | 1013.7 |
| 20260905082504 | 25 | 49 | 4.8 | 9.7 | 0.00 | 0.15 | 0.00 | 1 | 1013.7 |
| 20260905082404 | 25 | 49 | 4.8 | 9.7 | 0.00 | 0.15 | 0.00 | 1 | 1013.7 |
| 20260905082307 | 25 | 49 | 4.8 | 9.7 | 0.00 | 0.15 | 0.00 | 1 | 1013.7 |
| 20260905082225 | 25 | 49 | 4.8 | 9.7 | 0.00 | 0.15 | 0.00 | 1 | 1013.7 |
| 20260905082104 | 25 | 49 | 4.8 | 9.7 | 0.00 | 0.15 | 0.00 | 1 | 1013.7 |
| 20260905082004 | 25 | 49 | 4.8 | 9.7 | 0.00 | 0.15 | 0.00 | 1 | 1013.8 |
| 20260905081904 | 25 | 50 | 4.8 | 9.7 | 0.00 | 0.15 | 0.00 | 1 | 1013.8 |
| 20260905081804 | 25 | 50 | 4.8 | 9.7 | 0.00 | 0.15 | 0.00 | 1 | 1013.7 |
| 20260905081704 | 25 | 50 | 4.8 | 9.7 | 0.00 | 0.15 | 0.00 | 1 | 1013.8 |
| 20260905081604 | 25 | 51 | 4.8 | 9.7 | 0.00 | 0.15 | 0.00 | 1 | 1013.8 |
| 20260905081504 | 25 | 51 | 4.8 | 8.0 | 0.00 | 0.15 | 0.00 | 1 | 1013.7 |
| 20260905081425 | 25 | 52 | 4.8 | 8.0 | 0.00 | 0.15 | 0.00 | 1 | 1013.7 |
| 20260905081304 | 25 | 52 | 4.8 | 8.0 | 0.00 | 0.15 | 0.00 | 1 | 1013.8 |
| 20260905081204 | 25 | 52 | 4.8 | 8.0 | 0.00 | 0.15 | 0.00 | 1 | 1013.8 |
| 20260905081104 | 25 | 53 | 4.8 | 8.0 | 0.00 | 0.15 | 0.00 | 1 | 1013.8 |
| 20260905081004 | 25 | 53 | 3.2 | 8.0 | 0.00 | 0.15 | 0.00 | 1 | 1013.7 |
| 20260905080925 | 25 | 54 | 3.2 | 6.4 | 0.00 | 0.15 | 0.00 | 1 | 1013.7 |
| 20260905080804 | 25 | 52 | 4.8 | 9.7 | 0.00 | 0.15 | 0.00 | 1 | 1013.7 |
| 20260905080704 | 25 | 50 | 4.8 | 9.7 | 0.00 | 0.15 | 0.00 | 1 | 1013.8 |
| 20260905080604 | 25 | 49 | 4.8 | 9.7 | 0.00 | 0.15 | 0.00 | 1 | 1013.7 |
| 20260905080504 | 25 | 48 | 4.8 | 9.7 | 0.00 | 0.15 | 0.00 | 1 | 1013.8 |
| 20260905080404 | 25 | 46 | 3.2 | 9.7 | 0.00 | 0.15 | 0.00 | 1 | 1013.8 |
| 20260905080304 | 25 | 45 | 3.2 | 9.7 | 0.00 | 0.15 | 0.00 | 1 | 1013.7 |
| 20260905080225 | 25 | 44 | 3.2 | 9.7 | 0.00 | 0.15 | 0.00 | 1 | 1013.8 |
| 20260905080104 | 25 | 42 | 3.2 | 9.7 | 0.00 | 0.15 | 0.00 | 1 | 1013.8 |
| 20260905080004 | 25 | 41 | 3.2 | 9.7 | 0.00 | 0.15 | 0.00 | 1 | 1013.8 |
| 20260905075904 | 25 | 39 | 3.2 | 9.7 | 0.00 | 0.15 | 0.00 | 1 | 1013.8 |
| 20260905075825 | 25 | 38 | 3.2 | 8.0 | 0.00 | 0.15 | 0.00 | 1 | 1013.8 |
| 20260905075704 | 25 | 37 | 3.2 | 8.0 | 0.00 | 0.15 | 0.00 | 1 | 1013.8 |
| 20260905075604 | 25 | 36 | 1.6 | 6.4 | 0.00 | 0.15 | 0.00 | 1 | 1013.8 |
| 20260905075504 | 25 | 36 | 3.2 | 6.4 | 0.00 | 0.15 | 0.00 | 1 | 1013.8 |
| 20260905075404 | 25 | 36 | 3.2 | 6.4 | 0.00 | 0.15 | 0.00 | 1 | 1013.8 |
| 20260905075306 | 25 | 36 | 3.2 | 9.7 | 0.00 | 0.15 | 0.00 | 1 | 1013.8 |
| 20260905075204 | 25 | 36 | 3.2 | 9.7 | 0.00 | 0.15 | 0.00 | 1 | 1013.8 |
| 20260905075104 | 25 | 37 | 3.2 | 9.7 | 0.00 | 0.15 | 0.00 | 1 | 1013.8 |
| 20260905075004 | 25 | 37 | 3.2 | 9.7 | 0.00 | 0.15 | 0.00 | 1 | 1013.9 |
| 20260905074904 | 25 | 38 | 3.2 | 9.7 | 0.00 | 0.15 | 0.00 | 1 | 1013.9 |
| 20260905074804 | 25 | 38 | 3.2 | 9.7 | 0.00 | 0.15 | 0.00 | 1 | 1013.8 |
| 20260905074704 | 25 | 39 | 3.2 | 9.7 | 0.00 | 0.15 | 0.00 | 1 | 1013.9 |
| 20260905074604 | 25 | 39 | 3.2 | 9.7 | 0.00 | 0.15 | 0.00 | 1 | 1013.9 |
| 20260905074504 | 25 | 39 | 3.2 | 9.7 | 0.00 | 0.15 | 0.00 | 1 | 1013.9 |
| 20260905074404 | 25 | 40 | 3.2 | 9.7 | 0.00 | 0.15 | 0.00 | 1 | 1013.8 |
| 20260905074304 | 25 | 41 | 3.2 | 9.7 | 0.00 | 0.15 | 0.00 | 1 | 1013.9 |
| 20260905074204 | 25 | 41 | 3.2 | 8.0 | 0.00 | 0.15 | 0.00 | 1 | 1013.9 |
| 20260905074104 | 25 | 41 | 3.2 | 8.0 | 0.00 | 0.15 | 0.00 | 1 | 1013.9 |
| 20260905074004 | 25 | 41 | 3.2 | 8.0 | 0.00 | 0.15 | 0.00 | 1 | 1013.9 |
| 20260905073904 | 25 | 41 | 3.2 | 8.0 | 0.00 | 0.15 | 0.00 | 1 | 1013.8 |
| 20260905073804 | 25 | 41 | 3.2 | 8.0 | 0.00 | 0.15 | 0.00 | 1 | 1013.9 |
| 20260905073704 | 25 | 41 | 3.2 | 6.4 | 0.00 | 0.15 | 0.00 | 1 | 1013.9 |
| 20260905073604 | 26 | 41 | 3.2 | 6.4 | 0.00 | 0.15 | 0.00 | 1 | 1013.9 |
| 20260905073504 | 26 | 41 | 3.2 | 6.4 | 0.00 | 0.15 | 0.00 | 1 | 1013.9 |
| 20260905073404 | 26 | 41 | 3.2 | 6.4 | 0.00 | 0.15 | 0.00 | 1 | 1013.9 |
| 20260905073304 | 26 | 41 | 3.2 | 8.0 | 0.00 | 0.15 | 0.00 | 1 | 1014.0 |
| 20260905073204 | 26 | 40 | 3.2 | 8.0 | 0.00 | 0.15 | 0.00 | 1 | 1014.0 |
| 20260905073104 | 26 | 40 | 3.2 | 8.0 | 0.00 | 0.15 | 0.00 | 1 | 1014.0 |
| 20260905073004 | 26 | 39 | 3.2 | 8.0 | 0.00 | 0.15 | 0.00 | 1 | 1014.0 |
| 20260905072904 | 26 | 38 | 3.2 | 8.0 | 0.00 | 0.15 | 0.00 | 1 | 1014.0 |
| 20260905072804 | 26 | 38 | 3.2 | 8.0 | 0.00 | 0.15 | 0.00 | 1 | 1014.0 |
| 20260905072704 | 26 | 37 | 3.2 | 8.0 | 0.00 | 0.15 | 0.00 | 1 | 1014.0 |
| 20260905072604 | 26 | 37 | 3.2 | 8.0 | 0.00 | 0.15 | 0.00 | 1 | 1014.0 |
| 20260905072525 | 26 | 37 | 3.2 | 8.0 | 0.00 | 0.15 | 0.00 | 1 | 1013.9 |
| 20260905072404 | 26 | 36 | 3.2 | 8.0 | 0.00 | 0.15 | 0.00 | 1 | 1013.9 |
| 20260905072306 | 26 | 36 | 3.2 | 8.0 | 0.00 | 0.15 | 0.00 | 1 | 1013.9 |
| 20260905072227 | 26 | 36 | 3.2 | 8.0 | 0.00 | 0.15 | 0.00 | 1 | 1013.9 |
| 20260905072104 | 26 | 37 | 3.2 | 6.4 | 0.00 | 0.15 | 0.00 | 1 | 1013.9 |
| 20260905072004 | 26 | 37 | 3.2 | 6.4 | 0.00 | 0.15 | 0.00 | 1 | 1013.9 |
| 20260905071904 | 26 | 38 | 3.2 | 8.0 | 0.00 | 0.15 | 0.00 | 1 | 1013.9 |
| 20260905071804 | 26 | 38 | 3.2 | 8.0 | 0.00 | 0.15 | 0.00 | 1 | 1014.0 |
| 20260905071704 | 26 | 38 | 3.2 | 8.0 | 0.00 | 0.15 | 0.00 | 1 | 1014.0 |
| 20260905071604 | 26 | 38 | 3.2 | 8.0 | 0.00 | 0.15 | 0.00 | 1 | 1014.0 |
| 20260905071504 | 26 | 38 | 3.2 | 8.0 | 0.00 | 0.15 | 0.00 | 1 | 1014.0 |
| 20260905071404 | 26 | 38 | 3.2 | 8.0 | 0.00 | 0.15 | 0.00 | 1 | 1014.0 |
| 20260905071304 | 26 | 38 | 3.2 | 8.0 | 0.00 | 0.15 | 0.00 | 1 | 1014.0 |
| 20260905071204 | 26 | 39 | 3.2 | 8.0 | 0.00 | 0.15 | 0.00 | 1 | 1014.0 |
| 20260905071125 | 26 | 39 | 3.2 | 8.0 | 0.00 | 0.15 | 0.00 | 1 | 1014.0 |
| 20260905071028 | 26 | 39 | 3.2 | 8.0 | 0.00 | 0.15 | 0.00 | 1 | 1014.0 |
| 20260905070904 | 26 | 39 | 3.2 | 6.4 | 0.00 | 0.15 | 0.00 | 1 | 1014.0 |
| 20260905070804 | 26 | 39 | 3.2 | 6.4 | 0.00 | 0.15 | 0.00 | 1 | 1014.1 |
| 20260905070704 | 26 | 40 | 3.2 | 6.4 | 0.00 | 0.15 | 0.00 | 1 | 1014.1 |
| 20260905070604 | 26 | 40 | 3.2 | 6.4 | 0.00 | 0.15 | 0.00 | 1 | 1014.1 |
| 20260905070525 | 26 | 40 | 3.2 | 6.4 | 0.00 | 0.15 | 0.00 | 1 | 1014.1 |
| 20260905070425 | 26 | 41 | 3.2 | 6.4 | 0.00 | 0.15 | 0.00 | 1 | 1014.1 |
| 20260905070304 | 26 | 41 | 3.2 | 6.4 | 0.00 | 0.15 | 0.00 | 1 | 1014.1 |
| 20260905070204 | 26 | 42 | 1.6 | 6.4 | 0.00 | 0.15 | 0.00 | 1 | 1014.1 |
| 20260905070104 | 26 | 43 | 3.2 | 6.4 | 0.00 | 0.15 | 0.00 | 1 | 1014.1 |
| 20260905070004 | 26 | 42 | 3.2 | 6.4 | 0.00 | 0.15 | 0.00 | 1 | 1014.1 |
| 20260905065904 | 26 | 40 | 3.2 | 8.0 | 0.00 | 0.15 | 0.00 | 1 | 1014.1 |
| 20260905065825 | 26 | 39 | 3.2 | 8.0 | 0.00 | 0.15 | 0.00 | 1 | 1014.1 |
| 20260905065704 | 26 | 36 | 3.2 | 8.0 | 0.00 | 0.15 | 0.00 | 1 | 1014.1 |
| 20260905065604 | 26 | 35 | 3.2 | 9.7 | 0.00 | 0.15 | 0.00 | 1 | 1014.1 |
| 20260905065504 | 26 | 35 | 3.2 | 9.7 | 0.00 | 0.15 | 0.00 | 1 | 1014.2 |
| 20260905065425 | 26 | 33 | 4.8 | 9.7 | 0.00 | 0.15 | 0.00 | 1 | 1014.1 |
| 20260905065306 | 26 | 33 | 4.8 | 9.7 | 0.00 | 0.15 | 0.00 | 1 | 1014.1 |
| 20260905065204 | 26 | 33 | 4.8 | 9.7 | 0.00 | 0.15 | 0.00 | 1 | 1014.1 |
| 20260905065104 | 26 | 32 | 4.8 | 9.7 | 0.00 | 0.15 | 0.00 | 1 | 1014.1 |
| 20260905065025 | 26 | 32 | 3.2 | 9.7 | 0.00 | 0.15 | 0.00 | 1 | 1014.1 |
| 20260905064904 | 26 | 34 | 3.2 | 9.7 | 0.00 | 0.15 | 0.00 | 1 | 1014.1 |
| 20260905064825 | 26 | 36 | 3.2 | 9.7 | 0.00 | 0.15 | 0.00 | 1 | 1014.1 |